<?xml version="1.0" encoding="UTF-8" standalone="no" ?>
<gpx xmlns="http://www.topografix.com/GPX/1/1" xmlns:xsi="http://www.w3.org/2001/XMLSchema-instance" xsi:schemaLocation="http://www.topografix.com/GPX/1/1 http://www.topografix.com/GPX/1/1/gpx.xsd" version="1.1" creator="VisuGPX - https://www.visugpx.com">
  <metadata>
    <name>Les Bréviaires (2h40)</name>
    <desc><![CDATA[encore une autre façon de voir les étangs de Hollande]]></desc>
  </metadata>
  <trk>
    <name><![CDATA[Untitled]]></name>
    <trkseg>
      <trkpt lat="48.70455" lon="1.76164">
        <ele>174.19999694824</ele>
        <time>2012-03-27T09:06:40.000Z</time>
      </trkpt>
      <trkpt lat="48.70457" lon="1.76173">
        <ele>173.80000305176</ele>
        <time>2012-03-27T09:06:45.000Z</time>
      </trkpt>
      <trkpt lat="48.7046" lon="1.76177">
        <ele>173.60000610352</ele>
        <time>2012-03-27T09:06:49.000Z</time>
      </trkpt>
      <trkpt lat="48.70461" lon="1.76191">
        <ele>173.39999389648</ele>
        <time>2012-03-27T09:06:54.000Z</time>
      </trkpt>
      <trkpt lat="48.7046" lon="1.76202">
        <ele>173</ele>
        <time>2012-03-27T09:06:59.000Z</time>
      </trkpt>
      <trkpt lat="48.70457" lon="1.76209">
        <ele>173</ele>
        <time>2012-03-27T09:07:02.000Z</time>
      </trkpt>
      <trkpt lat="48.70457" lon="1.76217">
        <ele>172.80000305176</ele>
        <time>2012-03-27T09:07:07.000Z</time>
      </trkpt>
      <trkpt lat="48.70458" lon="1.76221">
        <ele>172.60000610352</ele>
        <time>2012-03-27T09:07:11.000Z</time>
      </trkpt>
      <trkpt lat="48.70461" lon="1.76227">
        <ele>172.39999389648</ele>
        <time>2012-03-27T09:07:15.000Z</time>
      </trkpt>
      <trkpt lat="48.70463" lon="1.76228">
        <ele>172.19999694824</ele>
        <time>2012-03-27T09:07:17.000Z</time>
      </trkpt>
      <trkpt lat="48.70467" lon="1.76231">
        <ele>172</ele>
        <time>2012-03-27T09:07:22.000Z</time>
      </trkpt>
      <trkpt lat="48.70467" lon="1.76244">
        <ele>171.80000305176</ele>
        <time>2012-03-27T09:07:27.000Z</time>
      </trkpt>
      <trkpt lat="48.70462" lon="1.76258">
        <ele>171.80000305176</ele>
        <time>2012-03-27T09:07:31.000Z</time>
      </trkpt>
      <trkpt lat="48.70458" lon="1.76271">
        <ele>172.19999694824</ele>
        <time>2012-03-27T09:07:36.000Z</time>
      </trkpt>
      <trkpt lat="48.70455" lon="1.76276">
        <ele>172.39999389648</ele>
        <time>2012-03-27T09:07:41.000Z</time>
      </trkpt>
      <trkpt lat="48.70453" lon="1.76269">
        <ele>172.39999389648</ele>
        <time>2012-03-27T09:07:46.000Z</time>
      </trkpt>
      <trkpt lat="48.70453" lon="1.76262">
        <ele>172.39999389648</ele>
        <time>2012-03-27T09:07:53.000Z</time>
      </trkpt>
      <trkpt lat="48.70453" lon="1.76268">
        <ele>172.39999389648</ele>
        <time>2012-03-27T09:08:00.000Z</time>
      </trkpt>
      <trkpt lat="48.70454" lon="1.76258">
        <ele>172.19999694824</ele>
        <time>2012-03-27T09:08:10.000Z</time>
      </trkpt>
      <trkpt lat="48.70454" lon="1.76261">
        <ele>172.19999694824</ele>
        <time>2012-03-27T09:08:17.000Z</time>
      </trkpt>
      <trkpt lat="48.70449" lon="1.76268">
        <ele>172.60000610352</ele>
        <time>2012-03-27T09:08:26.000Z</time>
      </trkpt>
      <trkpt lat="48.70453" lon="1.76268">
        <ele>172.39999389648</ele>
        <time>2012-03-27T09:08:46.000Z</time>
      </trkpt>
      <trkpt lat="48.70453" lon="1.76266">
        <ele>172.39999389648</ele>
        <time>2012-03-27T09:08:49.000Z</time>
      </trkpt>
      <trkpt lat="48.70451" lon="1.76266">
        <ele>172.39999389648</ele>
        <time>2012-03-27T09:08:56.000Z</time>
      </trkpt>
      <trkpt lat="48.70452" lon="1.76276">
        <ele>172.39999389648</ele>
        <time>2012-03-27T09:09:01.000Z</time>
      </trkpt>
      <trkpt lat="48.70452" lon="1.76292">
        <ele>172.60000610352</ele>
        <time>2012-03-27T09:09:09.000Z</time>
      </trkpt>
      <trkpt lat="48.70453" lon="1.76293">
        <ele>172.39999389648</ele>
        <time>2012-03-27T09:09:10.000Z</time>
      </trkpt>
      <trkpt lat="48.70452" lon="1.76306">
        <ele>172.60000610352</ele>
        <time>2012-03-27T09:09:15.000Z</time>
      </trkpt>
      <trkpt lat="48.70452" lon="1.76316">
        <ele>172.60000610352</ele>
        <time>2012-03-27T09:09:18.000Z</time>
      </trkpt>
      <trkpt lat="48.70451" lon="1.76324">
        <ele>172.80000305176</ele>
        <time>2012-03-27T09:09:22.000Z</time>
      </trkpt>
      <trkpt lat="48.70453" lon="1.76337">
        <ele>172.80000305176</ele>
        <time>2012-03-27T09:09:28.000Z</time>
      </trkpt>
      <trkpt lat="48.70452" lon="1.76347">
        <ele>173.39999389648</ele>
        <time>2012-03-27T09:09:32.000Z</time>
      </trkpt>
      <trkpt lat="48.70455" lon="1.76359">
        <ele>173.80000305176</ele>
        <time>2012-03-27T09:09:39.000Z</time>
      </trkpt>
      <trkpt lat="48.70457" lon="1.76366">
        <ele>174</ele>
        <time>2012-03-27T09:09:43.000Z</time>
      </trkpt>
      <trkpt lat="48.70458" lon="1.76376">
        <ele>174.60000610352</ele>
        <time>2012-03-27T09:09:47.000Z</time>
      </trkpt>
      <trkpt lat="48.70461" lon="1.76382">
        <ele>174.80000305176</ele>
        <time>2012-03-27T09:09:51.000Z</time>
      </trkpt>
      <trkpt lat="48.70459" lon="1.76403">
        <ele>175.80000305176</ele>
        <time>2012-03-27T09:09:59.000Z</time>
      </trkpt>
      <trkpt lat="48.70461" lon="1.76417">
        <ele>176.39999389648</ele>
        <time>2012-03-27T09:10:05.000Z</time>
      </trkpt>
      <trkpt lat="48.70461" lon="1.76436">
        <ele>176.80000305176</ele>
        <time>2012-03-27T09:10:13.000Z</time>
      </trkpt>
      <trkpt lat="48.70458" lon="1.76444">
        <ele>177.19999694824</ele>
        <time>2012-03-27T09:10:19.000Z</time>
      </trkpt>
      <trkpt lat="48.70455" lon="1.76454">
        <ele>177.60000610352</ele>
        <time>2012-03-27T09:10:24.000Z</time>
      </trkpt>
      <trkpt lat="48.70457" lon="1.76473">
        <ele>178</ele>
        <time>2012-03-27T09:10:37.000Z</time>
      </trkpt>
      <trkpt lat="48.70454" lon="1.76484">
        <ele>178.39999389648</ele>
        <time>2012-03-27T09:10:42.000Z</time>
      </trkpt>
      <trkpt lat="48.70451" lon="1.765">
        <ele>179</ele>
        <time>2012-03-27T09:10:48.000Z</time>
      </trkpt>
      <trkpt lat="48.7045" lon="1.76508">
        <ele>179</ele>
        <time>2012-03-27T09:10:53.000Z</time>
      </trkpt>
      <trkpt lat="48.70448" lon="1.76517">
        <ele>179.19999694824</ele>
        <time>2012-03-27T09:10:58.000Z</time>
      </trkpt>
      <trkpt lat="48.70446" lon="1.7653">
        <ele>179.39999389648</ele>
        <time>2012-03-27T09:11:04.000Z</time>
      </trkpt>
      <trkpt lat="48.70443" lon="1.76541">
        <ele>179.60000610352</ele>
        <time>2012-03-27T09:11:09.000Z</time>
      </trkpt>
      <trkpt lat="48.70441" lon="1.76557">
        <ele>179.80000305176</ele>
        <time>2012-03-27T09:11:14.000Z</time>
      </trkpt>
      <trkpt lat="48.7044" lon="1.76568">
        <ele>179.80000305176</ele>
        <time>2012-03-27T09:11:20.000Z</time>
      </trkpt>
      <trkpt lat="48.70439" lon="1.76582">
        <ele>180</ele>
        <time>2012-03-27T09:11:27.000Z</time>
      </trkpt>
      <trkpt lat="48.70436" lon="1.76586">
        <ele>180</ele>
        <time>2012-03-27T09:11:30.000Z</time>
      </trkpt>
      <trkpt lat="48.70425" lon="1.76597">
        <ele>180.39999389648</ele>
        <time>2012-03-27T09:11:37.000Z</time>
      </trkpt>
      <trkpt lat="48.70419" lon="1.76598">
        <ele>180.80000305176</ele>
        <time>2012-03-27T09:11:42.000Z</time>
      </trkpt>
      <trkpt lat="48.70412" lon="1.76603">
        <ele>180.60000610352</ele>
        <time>2012-03-27T09:11:46.000Z</time>
      </trkpt>
      <trkpt lat="48.70405" lon="1.76602">
        <ele>180.39999389648</ele>
        <time>2012-03-27T09:11:51.000Z</time>
      </trkpt>
      <trkpt lat="48.704" lon="1.76603">
        <ele>180.39999389648</ele>
        <time>2012-03-27T09:11:56.000Z</time>
      </trkpt>
      <trkpt lat="48.70395" lon="1.76603">
        <ele>180.19999694824</ele>
        <time>2012-03-27T09:12:02.000Z</time>
      </trkpt>
      <trkpt lat="48.70386" lon="1.76608">
        <ele>180</ele>
        <time>2012-03-27T09:12:09.000Z</time>
      </trkpt>
      <trkpt lat="48.70378" lon="1.76611">
        <ele>179.80000305176</ele>
        <time>2012-03-27T09:12:16.000Z</time>
      </trkpt>
      <trkpt lat="48.70374" lon="1.76612">
        <ele>179.60000610352</ele>
        <time>2012-03-27T09:12:21.000Z</time>
      </trkpt>
      <trkpt lat="48.7037" lon="1.76613">
        <ele>179.60000610352</ele>
        <time>2012-03-27T09:12:26.000Z</time>
      </trkpt>
      <trkpt lat="48.70364" lon="1.76616">
        <ele>179.39999389648</ele>
        <time>2012-03-27T09:12:31.000Z</time>
      </trkpt>
      <trkpt lat="48.70359" lon="1.76619">
        <ele>179.19999694824</ele>
        <time>2012-03-27T09:12:35.000Z</time>
      </trkpt>
      <trkpt lat="48.70359" lon="1.7662">
        <ele>179.19999694824</ele>
        <time>2012-03-27T09:12:39.000Z</time>
      </trkpt>
      <trkpt lat="48.7036" lon="1.76618">
        <ele>179.19999694824</ele>
        <time>2012-03-27T09:12:44.000Z</time>
      </trkpt>
      <trkpt lat="48.70361" lon="1.76615">
        <ele>179.19999694824</ele>
        <time>2012-03-27T09:12:48.000Z</time>
      </trkpt>
      <trkpt lat="48.7036" lon="1.76615">
        <ele>179.19999694824</ele>
        <time>2012-03-27T09:12:54.000Z</time>
      </trkpt>
      <trkpt lat="48.70352" lon="1.76625">
        <ele>179</ele>
        <time>2012-03-27T09:13:00.000Z</time>
      </trkpt>
      <trkpt lat="48.70351" lon="1.76629">
        <ele>178.80000305176</ele>
        <time>2012-03-27T09:13:02.000Z</time>
      </trkpt>
      <trkpt lat="48.70347" lon="1.76635">
        <ele>178.80000305176</ele>
        <time>2012-03-27T09:13:07.000Z</time>
      </trkpt>
      <trkpt lat="48.70341" lon="1.76635">
        <ele>178.60000610352</ele>
        <time>2012-03-27T09:13:13.000Z</time>
      </trkpt>
      <trkpt lat="48.70338" lon="1.76635">
        <ele>178.39999389648</ele>
        <time>2012-03-27T09:13:15.000Z</time>
      </trkpt>
      <trkpt lat="48.70335" lon="1.76634">
        <ele>178.39999389648</ele>
        <time>2012-03-27T09:13:20.000Z</time>
      </trkpt>
      <trkpt lat="48.70337" lon="1.76632">
        <ele>178.60000610352</ele>
        <time>2012-03-27T09:13:34.000Z</time>
      </trkpt>
      <trkpt lat="48.70338" lon="1.76628">
        <ele>178.60000610352</ele>
        <time>2012-03-27T09:13:35.000Z</time>
      </trkpt>
      <trkpt lat="48.70336" lon="1.76626">
        <ele>178.60000610352</ele>
        <time>2012-03-27T09:13:42.000Z</time>
      </trkpt>
      <trkpt lat="48.70335" lon="1.76626">
        <ele>178.60000610352</ele>
        <time>2012-03-27T09:13:44.000Z</time>
      </trkpt>
      <trkpt lat="48.70335" lon="1.7664">
        <ele>178.39999389648</ele>
        <time>2012-03-27T09:14:10.000Z</time>
      </trkpt>
      <trkpt lat="48.70333" lon="1.76642">
        <ele>178.39999389648</ele>
        <time>2012-03-27T09:14:11.000Z</time>
      </trkpt>
      <trkpt lat="48.70331" lon="1.76644">
        <ele>178.39999389648</ele>
        <time>2012-03-27T09:14:13.000Z</time>
      </trkpt>
      <trkpt lat="48.70327" lon="1.76647">
        <ele>178.39999389648</ele>
        <time>2012-03-27T09:14:18.000Z</time>
      </trkpt>
      <trkpt lat="48.70325" lon="1.76651">
        <ele>178.39999389648</ele>
        <time>2012-03-27T09:14:23.000Z</time>
      </trkpt>
      <trkpt lat="48.70324" lon="1.76654">
        <ele>178.39999389648</ele>
        <time>2012-03-27T09:14:25.000Z</time>
      </trkpt>
      <trkpt lat="48.70324" lon="1.7666">
        <ele>178.39999389648</ele>
        <time>2012-03-27T09:14:27.000Z</time>
      </trkpt>
      <trkpt lat="48.70327" lon="1.76669">
        <ele>178.19999694824</ele>
        <time>2012-03-27T09:14:33.000Z</time>
      </trkpt>
      <trkpt lat="48.70328" lon="1.76682">
        <ele>178.19999694824</ele>
        <time>2012-03-27T09:14:39.000Z</time>
      </trkpt>
      <trkpt lat="48.70331" lon="1.76697">
        <ele>178</ele>
        <time>2012-03-27T09:14:46.000Z</time>
      </trkpt>
      <trkpt lat="48.70331" lon="1.7671">
        <ele>178</ele>
        <time>2012-03-27T09:14:53.000Z</time>
      </trkpt>
      <trkpt lat="48.70329" lon="1.76725">
        <ele>178</ele>
        <time>2012-03-27T09:15:00.000Z</time>
      </trkpt>
      <trkpt lat="48.70327" lon="1.76739">
        <ele>178.19999694824</ele>
        <time>2012-03-27T09:15:08.000Z</time>
      </trkpt>
      <trkpt lat="48.70328" lon="1.76752">
        <ele>178.19999694824</ele>
        <time>2012-03-27T09:15:15.000Z</time>
      </trkpt>
      <trkpt lat="48.7033" lon="1.76768">
        <ele>178.19999694824</ele>
        <time>2012-03-27T09:15:23.000Z</time>
      </trkpt>
      <trkpt lat="48.70331" lon="1.76779">
        <ele>178.39999389648</ele>
        <time>2012-03-27T09:15:29.000Z</time>
      </trkpt>
      <trkpt lat="48.70331" lon="1.76791">
        <ele>178.60000610352</ele>
        <time>2012-03-27T09:15:35.000Z</time>
      </trkpt>
      <trkpt lat="48.70331" lon="1.76798">
        <ele>178.60000610352</ele>
        <time>2012-03-27T09:15:39.000Z</time>
      </trkpt>
      <trkpt lat="48.70331" lon="1.76809">
        <ele>178.80000305176</ele>
        <time>2012-03-27T09:15:45.000Z</time>
      </trkpt>
      <trkpt lat="48.7033" lon="1.7682">
        <ele>178.80000305176</ele>
        <time>2012-03-27T09:15:50.000Z</time>
      </trkpt>
      <trkpt lat="48.70333" lon="1.76842">
        <ele>179.19999694824</ele>
        <time>2012-03-27T09:16:00.000Z</time>
      </trkpt>
      <trkpt lat="48.70335" lon="1.76858">
        <ele>179.39999389648</ele>
        <time>2012-03-27T09:16:08.000Z</time>
      </trkpt>
      <trkpt lat="48.70337" lon="1.76869">
        <ele>179.60000610352</ele>
        <time>2012-03-27T09:16:15.000Z</time>
      </trkpt>
      <trkpt lat="48.70336" lon="1.76879">
        <ele>179.60000610352</ele>
        <time>2012-03-27T09:16:21.000Z</time>
      </trkpt>
      <trkpt lat="48.70335" lon="1.76888">
        <ele>179.80000305176</ele>
        <time>2012-03-27T09:16:25.000Z</time>
      </trkpt>
      <trkpt lat="48.70336" lon="1.76906">
        <ele>180</ele>
        <time>2012-03-27T09:16:33.000Z</time>
      </trkpt>
      <trkpt lat="48.70335" lon="1.76913">
        <ele>180</ele>
        <time>2012-03-27T09:16:36.000Z</time>
      </trkpt>
      <trkpt lat="48.70337" lon="1.76915">
        <ele>180.19999694824</ele>
        <time>2012-03-27T09:16:38.000Z</time>
      </trkpt>
      <trkpt lat="48.70338" lon="1.76926">
        <ele>180.39999389648</ele>
        <time>2012-03-27T09:16:44.000Z</time>
      </trkpt>
      <trkpt lat="48.70336" lon="1.76935">
        <ele>180.39999389648</ele>
        <time>2012-03-27T09:16:49.000Z</time>
      </trkpt>
      <trkpt lat="48.70336" lon="1.76937">
        <ele>180.60000610352</ele>
        <time>2012-03-27T09:16:50.000Z</time>
      </trkpt>
      <trkpt lat="48.70337" lon="1.7695">
        <ele>180.80000305176</ele>
        <time>2012-03-27T09:16:57.000Z</time>
      </trkpt>
      <trkpt lat="48.70336" lon="1.76954">
        <ele>180.80000305176</ele>
        <time>2012-03-27T09:16:59.000Z</time>
      </trkpt>
      <trkpt lat="48.70337" lon="1.76961">
        <ele>181</ele>
        <time>2012-03-27T09:17:03.000Z</time>
      </trkpt>
      <trkpt lat="48.70338" lon="1.76972">
        <ele>181.19999694824</ele>
        <time>2012-03-27T09:17:09.000Z</time>
      </trkpt>
      <trkpt lat="48.70343" lon="1.76983">
        <ele>181.39999389648</ele>
        <time>2012-03-27T09:17:16.000Z</time>
      </trkpt>
      <trkpt lat="48.70343" lon="1.77002">
        <ele>181.60000610352</ele>
        <time>2012-03-27T09:17:23.000Z</time>
      </trkpt>
      <trkpt lat="48.70342" lon="1.7701">
        <ele>181.60000610352</ele>
        <time>2012-03-27T09:17:27.000Z</time>
      </trkpt>
      <trkpt lat="48.70344" lon="1.77024">
        <ele>181.39999389648</ele>
        <time>2012-03-27T09:17:35.000Z</time>
      </trkpt>
      <trkpt lat="48.70345" lon="1.77037">
        <ele>181.39999389648</ele>
        <time>2012-03-27T09:17:41.000Z</time>
      </trkpt>
      <trkpt lat="48.70345" lon="1.77039">
        <ele>181.39999389648</ele>
        <time>2012-03-27T09:17:42.000Z</time>
      </trkpt>
      <trkpt lat="48.70347" lon="1.77056">
        <ele>181.39999389648</ele>
        <time>2012-03-27T09:17:49.000Z</time>
      </trkpt>
      <trkpt lat="48.70348" lon="1.77061">
        <ele>181.19999694824</ele>
        <time>2012-03-27T09:17:51.000Z</time>
      </trkpt>
      <trkpt lat="48.70348" lon="1.77077">
        <ele>181.19999694824</ele>
        <time>2012-03-27T09:17:57.000Z</time>
      </trkpt>
      <trkpt lat="48.7035" lon="1.77096">
        <ele>181.19999694824</ele>
        <time>2012-03-27T09:18:05.000Z</time>
      </trkpt>
      <trkpt lat="48.7035" lon="1.77101">
        <ele>181.19999694824</ele>
        <time>2012-03-27T09:18:07.000Z</time>
      </trkpt>
      <trkpt lat="48.70351" lon="1.7712">
        <ele>181.19999694824</ele>
        <time>2012-03-27T09:18:16.000Z</time>
      </trkpt>
      <trkpt lat="48.70353" lon="1.77133">
        <ele>181.19999694824</ele>
        <time>2012-03-27T09:18:23.000Z</time>
      </trkpt>
      <trkpt lat="48.70353" lon="1.77136">
        <ele>181.19999694824</ele>
        <time>2012-03-27T09:18:25.000Z</time>
      </trkpt>
      <trkpt lat="48.70355" lon="1.77137">
        <ele>181.19999694824</ele>
        <time>2012-03-27T09:18:29.000Z</time>
      </trkpt>
      <trkpt lat="48.70355" lon="1.77145">
        <ele>181.19999694824</ele>
        <time>2012-03-27T09:18:36.000Z</time>
      </trkpt>
      <trkpt lat="48.70357" lon="1.77153">
        <ele>181</ele>
        <time>2012-03-27T09:18:42.000Z</time>
      </trkpt>
      <trkpt lat="48.7036" lon="1.77161">
        <ele>181</ele>
        <time>2012-03-27T09:18:48.000Z</time>
      </trkpt>
      <trkpt lat="48.70363" lon="1.77177">
        <ele>180.80000305176</ele>
        <time>2012-03-27T09:18:57.000Z</time>
      </trkpt>
      <trkpt lat="48.70363" lon="1.77189">
        <ele>180.80000305176</ele>
        <time>2012-03-27T09:19:03.000Z</time>
      </trkpt>
      <trkpt lat="48.70364" lon="1.772">
        <ele>180.60000610352</ele>
        <time>2012-03-27T09:19:09.000Z</time>
      </trkpt>
      <trkpt lat="48.70365" lon="1.77204">
        <ele>180.60000610352</ele>
        <time>2012-03-27T09:19:12.000Z</time>
      </trkpt>
      <trkpt lat="48.70366" lon="1.7722">
        <ele>180.60000610352</ele>
        <time>2012-03-27T09:19:20.000Z</time>
      </trkpt>
      <trkpt lat="48.70369" lon="1.77233">
        <ele>180.39999389648</ele>
        <time>2012-03-27T09:19:26.000Z</time>
      </trkpt>
      <trkpt lat="48.7037" lon="1.77241">
        <ele>180.39999389648</ele>
        <time>2012-03-27T09:19:30.000Z</time>
      </trkpt>
      <trkpt lat="48.70372" lon="1.77258">
        <ele>180.60000610352</ele>
        <time>2012-03-27T09:19:38.000Z</time>
      </trkpt>
      <trkpt lat="48.70372" lon="1.7726">
        <ele>180.60000610352</ele>
        <time>2012-03-27T09:19:39.000Z</time>
      </trkpt>
      <trkpt lat="48.70374" lon="1.77273">
        <ele>180.80000305176</ele>
        <time>2012-03-27T09:19:45.000Z</time>
      </trkpt>
      <trkpt lat="48.70376" lon="1.77287">
        <ele>181.19999694824</ele>
        <time>2012-03-27T09:19:52.000Z</time>
      </trkpt>
      <trkpt lat="48.70376" lon="1.77296">
        <ele>181.39999389648</ele>
        <time>2012-03-27T09:19:57.000Z</time>
      </trkpt>
      <trkpt lat="48.70382" lon="1.77312">
        <ele>181.80000305176</ele>
        <time>2012-03-27T09:20:05.000Z</time>
      </trkpt>
      <trkpt lat="48.70383" lon="1.77318">
        <ele>182</ele>
        <time>2012-03-27T09:20:08.000Z</time>
      </trkpt>
      <trkpt lat="48.70391" lon="1.77335">
        <ele>182.39999389648</ele>
        <time>2012-03-27T09:20:17.000Z</time>
      </trkpt>
      <trkpt lat="48.70395" lon="1.77355">
        <ele>183</ele>
        <time>2012-03-27T09:20:25.000Z</time>
      </trkpt>
      <trkpt lat="48.704" lon="1.77372">
        <ele>183.39999389648</ele>
        <time>2012-03-27T09:20:31.000Z</time>
      </trkpt>
      <trkpt lat="48.70403" lon="1.77383">
        <ele>183.60000610352</ele>
        <time>2012-03-27T09:20:37.000Z</time>
      </trkpt>
      <trkpt lat="48.70407" lon="1.77396">
        <ele>183.80000305176</ele>
        <time>2012-03-27T09:20:44.000Z</time>
      </trkpt>
      <trkpt lat="48.70412" lon="1.77415">
        <ele>184</ele>
        <time>2012-03-27T09:20:54.000Z</time>
      </trkpt>
      <trkpt lat="48.70418" lon="1.77432">
        <ele>184.39999389648</ele>
        <time>2012-03-27T09:21:03.000Z</time>
      </trkpt>
      <trkpt lat="48.70422" lon="1.77443">
        <ele>184.60000610352</ele>
        <time>2012-03-27T09:21:09.000Z</time>
      </trkpt>
      <trkpt lat="48.70426" lon="1.77459">
        <ele>184.80000305176</ele>
        <time>2012-03-27T09:21:17.000Z</time>
      </trkpt>
      <trkpt lat="48.70432" lon="1.77478">
        <ele>185</ele>
        <time>2012-03-27T09:21:26.000Z</time>
      </trkpt>
      <trkpt lat="48.70437" lon="1.77492">
        <ele>185.19999694824</ele>
        <time>2012-03-27T09:21:33.000Z</time>
      </trkpt>
      <trkpt lat="48.70444" lon="1.77508">
        <ele>185.19999694824</ele>
        <time>2012-03-27T09:21:41.000Z</time>
      </trkpt>
      <trkpt lat="48.70445" lon="1.77513">
        <ele>185.19999694824</ele>
        <time>2012-03-27T09:21:43.000Z</time>
      </trkpt>
      <trkpt lat="48.70447" lon="1.77521">
        <ele>185.39999389648</ele>
        <time>2012-03-27T09:21:47.000Z</time>
      </trkpt>
      <trkpt lat="48.70452" lon="1.77535">
        <ele>185.60000610352</ele>
        <time>2012-03-27T09:21:54.000Z</time>
      </trkpt>
      <trkpt lat="48.70453" lon="1.77541">
        <ele>185.60000610352</ele>
        <time>2012-03-27T09:21:56.000Z</time>
      </trkpt>
      <trkpt lat="48.7046" lon="1.77557">
        <ele>185.80000305176</ele>
        <time>2012-03-27T09:22:02.000Z</time>
      </trkpt>
      <trkpt lat="48.70466" lon="1.77578">
        <ele>186.19999694824</ele>
        <time>2012-03-27T09:22:11.000Z</time>
      </trkpt>
      <trkpt lat="48.70472" lon="1.77596">
        <ele>186.19999694824</ele>
        <time>2012-03-27T09:22:19.000Z</time>
      </trkpt>
      <trkpt lat="48.70476" lon="1.77609">
        <ele>186</ele>
        <time>2012-03-27T09:22:25.000Z</time>
      </trkpt>
      <trkpt lat="48.70482" lon="1.77626">
        <ele>185.80000305176</ele>
        <time>2012-03-27T09:22:33.000Z</time>
      </trkpt>
      <trkpt lat="48.70487" lon="1.77642">
        <ele>185.60000610352</ele>
        <time>2012-03-27T09:22:38.000Z</time>
      </trkpt>
      <trkpt lat="48.70491" lon="1.77654">
        <ele>185.39999389648</ele>
        <time>2012-03-27T09:22:44.000Z</time>
      </trkpt>
      <trkpt lat="48.70495" lon="1.77667">
        <ele>185.19999694824</ele>
        <time>2012-03-27T09:22:50.000Z</time>
      </trkpt>
      <trkpt lat="48.70497" lon="1.77677">
        <ele>185.39999389648</ele>
        <time>2012-03-27T09:22:55.000Z</time>
      </trkpt>
      <trkpt lat="48.70502" lon="1.77693">
        <ele>185.60000610352</ele>
        <time>2012-03-27T09:23:03.000Z</time>
      </trkpt>
      <trkpt lat="48.70508" lon="1.77711">
        <ele>185.80000305176</ele>
        <time>2012-03-27T09:23:12.000Z</time>
      </trkpt>
      <trkpt lat="48.70513" lon="1.77725">
        <ele>186</ele>
        <time>2012-03-27T09:23:19.000Z</time>
      </trkpt>
      <trkpt lat="48.70519" lon="1.77741">
        <ele>186.19999694824</ele>
        <time>2012-03-27T09:23:27.000Z</time>
      </trkpt>
      <trkpt lat="48.70526" lon="1.77755">
        <ele>186.39999389648</ele>
        <time>2012-03-27T09:23:35.000Z</time>
      </trkpt>
      <trkpt lat="48.70535" lon="1.77773">
        <ele>186.39999389648</ele>
        <time>2012-03-27T09:23:44.000Z</time>
      </trkpt>
      <trkpt lat="48.70542" lon="1.77789">
        <ele>186.39999389648</ele>
        <time>2012-03-27T09:23:52.000Z</time>
      </trkpt>
      <trkpt lat="48.70547" lon="1.77806">
        <ele>186.60000610352</ele>
        <time>2012-03-27T09:23:58.000Z</time>
      </trkpt>
      <trkpt lat="48.70553" lon="1.77825">
        <ele>186.60000610352</ele>
        <time>2012-03-27T09:24:06.000Z</time>
      </trkpt>
      <trkpt lat="48.70553" lon="1.77828">
        <ele>186.60000610352</ele>
        <time>2012-03-27T09:24:07.000Z</time>
      </trkpt>
      <trkpt lat="48.70558" lon="1.77845">
        <ele>186.39999389648</ele>
        <time>2012-03-27T09:24:15.000Z</time>
      </trkpt>
      <trkpt lat="48.70563" lon="1.77857">
        <ele>186.19999694824</ele>
        <time>2012-03-27T09:24:21.000Z</time>
      </trkpt>
      <trkpt lat="48.70565" lon="1.77865">
        <ele>186</ele>
        <time>2012-03-27T09:24:25.000Z</time>
      </trkpt>
      <trkpt lat="48.70568" lon="1.77874">
        <ele>185.80000305176</ele>
        <time>2012-03-27T09:24:29.000Z</time>
      </trkpt>
      <trkpt lat="48.70573" lon="1.77889">
        <ele>185.60000610352</ele>
        <time>2012-03-27T09:24:36.000Z</time>
      </trkpt>
      <trkpt lat="48.70574" lon="1.77893">
        <ele>185.60000610352</ele>
        <time>2012-03-27T09:24:38.000Z</time>
      </trkpt>
      <trkpt lat="48.70578" lon="1.77908">
        <ele>185.19999694824</ele>
        <time>2012-03-27T09:24:45.000Z</time>
      </trkpt>
      <trkpt lat="48.7058" lon="1.77915">
        <ele>185.19999694824</ele>
        <time>2012-03-27T09:24:48.000Z</time>
      </trkpt>
      <trkpt lat="48.70588" lon="1.77932">
        <ele>185.39999389648</ele>
        <time>2012-03-27T09:24:56.000Z</time>
      </trkpt>
      <trkpt lat="48.70595" lon="1.77945">
        <ele>185.60000610352</ele>
        <time>2012-03-27T09:25:01.000Z</time>
      </trkpt>
      <trkpt lat="48.70596" lon="1.77954">
        <ele>185.80000305176</ele>
        <time>2012-03-27T09:25:06.000Z</time>
      </trkpt>
      <trkpt lat="48.70596" lon="1.77957">
        <ele>185.80000305176</ele>
        <time>2012-03-27T09:25:08.000Z</time>
      </trkpt>
      <trkpt lat="48.706" lon="1.77974">
        <ele>186.19999694824</ele>
        <time>2012-03-27T09:25:16.000Z</time>
      </trkpt>
      <trkpt lat="48.70605" lon="1.77991">
        <ele>186.39999389648</ele>
        <time>2012-03-27T09:25:23.000Z</time>
      </trkpt>
      <trkpt lat="48.70609" lon="1.78001">
        <ele>186.39999389648</ele>
        <time>2012-03-27T09:25:28.000Z</time>
      </trkpt>
      <trkpt lat="48.70617" lon="1.78015">
        <ele>186.19999694824</ele>
        <time>2012-03-27T09:25:35.000Z</time>
      </trkpt>
      <trkpt lat="48.70617" lon="1.78018">
        <ele>186.19999694824</ele>
        <time>2012-03-27T09:25:37.000Z</time>
      </trkpt>
      <trkpt lat="48.70623" lon="1.78033">
        <ele>185.80000305176</ele>
        <time>2012-03-27T09:25:44.000Z</time>
      </trkpt>
      <trkpt lat="48.70627" lon="1.78048">
        <ele>185.60000610352</ele>
        <time>2012-03-27T09:25:51.000Z</time>
      </trkpt>
      <trkpt lat="48.70628" lon="1.7805">
        <ele>185.60000610352</ele>
        <time>2012-03-27T09:25:52.000Z</time>
      </trkpt>
      <trkpt lat="48.70632" lon="1.78061">
        <ele>185.39999389648</ele>
        <time>2012-03-27T09:25:57.000Z</time>
      </trkpt>
      <trkpt lat="48.70635" lon="1.78078">
        <ele>185.19999694824</ele>
        <time>2012-03-27T09:26:04.000Z</time>
      </trkpt>
      <trkpt lat="48.70639" lon="1.78089">
        <ele>185</ele>
        <time>2012-03-27T09:26:10.000Z</time>
      </trkpt>
      <trkpt lat="48.70639" lon="1.7809">
        <ele>185</ele>
        <time>2012-03-27T09:26:11.000Z</time>
      </trkpt>
      <trkpt lat="48.70643" lon="1.78102">
        <ele>184.80000305176</ele>
        <time>2012-03-27T09:26:16.000Z</time>
      </trkpt>
      <trkpt lat="48.70648" lon="1.78117">
        <ele>184.60000610352</ele>
        <time>2012-03-27T09:26:21.000Z</time>
      </trkpt>
      <trkpt lat="48.70649" lon="1.7812">
        <ele>184.60000610352</ele>
        <time>2012-03-27T09:26:22.000Z</time>
      </trkpt>
      <trkpt lat="48.70651" lon="1.78124">
        <ele>184.60000610352</ele>
        <time>2012-03-27T09:26:24.000Z</time>
      </trkpt>
      <trkpt lat="48.70658" lon="1.7814">
        <ele>184.39999389648</ele>
        <time>2012-03-27T09:26:32.000Z</time>
      </trkpt>
      <trkpt lat="48.70665" lon="1.78157">
        <ele>184</ele>
        <time>2012-03-27T09:26:39.000Z</time>
      </trkpt>
      <trkpt lat="48.70666" lon="1.78165">
        <ele>184</ele>
        <time>2012-03-27T09:26:43.000Z</time>
      </trkpt>
      <trkpt lat="48.70669" lon="1.78172">
        <ele>184</ele>
        <time>2012-03-27T09:26:46.000Z</time>
      </trkpt>
      <trkpt lat="48.70671" lon="1.7818">
        <ele>184.19999694824</ele>
        <time>2012-03-27T09:26:50.000Z</time>
      </trkpt>
      <trkpt lat="48.70676" lon="1.78195">
        <ele>184.19999694824</ele>
        <time>2012-03-27T09:26:57.000Z</time>
      </trkpt>
      <trkpt lat="48.70681" lon="1.78205">
        <ele>184.39999389648</ele>
        <time>2012-03-27T09:27:03.000Z</time>
      </trkpt>
      <trkpt lat="48.70688" lon="1.78221">
        <ele>184.39999389648</ele>
        <time>2012-03-27T09:27:10.000Z</time>
      </trkpt>
      <trkpt lat="48.7069" lon="1.78226">
        <ele>184.39999389648</ele>
        <time>2012-03-27T09:27:12.000Z</time>
      </trkpt>
      <trkpt lat="48.70693" lon="1.78241">
        <ele>184.60000610352</ele>
        <time>2012-03-27T09:27:19.000Z</time>
      </trkpt>
      <trkpt lat="48.70695" lon="1.78254">
        <ele>184.60000610352</ele>
        <time>2012-03-27T09:27:25.000Z</time>
      </trkpt>
      <trkpt lat="48.70699" lon="1.7827">
        <ele>184.19999694824</ele>
        <time>2012-03-27T09:27:32.000Z</time>
      </trkpt>
      <trkpt lat="48.70701" lon="1.78284">
        <ele>184</ele>
        <time>2012-03-27T09:27:39.000Z</time>
      </trkpt>
      <trkpt lat="48.70708" lon="1.78296">
        <ele>183.80000305176</ele>
        <time>2012-03-27T09:27:45.000Z</time>
      </trkpt>
      <trkpt lat="48.70713" lon="1.7831">
        <ele>183.39999389648</ele>
        <time>2012-03-27T09:27:51.000Z</time>
      </trkpt>
      <trkpt lat="48.70718" lon="1.78323">
        <ele>183.19999694824</ele>
        <time>2012-03-27T09:27:56.000Z</time>
      </trkpt>
      <trkpt lat="48.70718" lon="1.78325">
        <ele>183.19999694824</ele>
        <time>2012-03-27T09:27:57.000Z</time>
      </trkpt>
      <trkpt lat="48.70721" lon="1.78332">
        <ele>183</ele>
        <time>2012-03-27T09:28:01.000Z</time>
      </trkpt>
      <trkpt lat="48.70724" lon="1.78346">
        <ele>183.39999389648</ele>
        <time>2012-03-27T09:28:08.000Z</time>
      </trkpt>
      <trkpt lat="48.70728" lon="1.78355">
        <ele>183.60000610352</ele>
        <time>2012-03-27T09:28:13.000Z</time>
      </trkpt>
      <trkpt lat="48.70731" lon="1.78366">
        <ele>183.80000305176</ele>
        <time>2012-03-27T09:28:19.000Z</time>
      </trkpt>
      <trkpt lat="48.70733" lon="1.78377">
        <ele>184.19999694824</ele>
        <time>2012-03-27T09:28:24.000Z</time>
      </trkpt>
      <trkpt lat="48.70734" lon="1.78383">
        <ele>184.39999389648</ele>
        <time>2012-03-27T09:28:27.000Z</time>
      </trkpt>
      <trkpt lat="48.70738" lon="1.78395">
        <ele>184.60000610352</ele>
        <time>2012-03-27T09:28:34.000Z</time>
      </trkpt>
      <trkpt lat="48.70743" lon="1.78407">
        <ele>185</ele>
        <time>2012-03-27T09:28:39.000Z</time>
      </trkpt>
      <trkpt lat="48.70745" lon="1.78415">
        <ele>185.19999694824</ele>
        <time>2012-03-27T09:28:43.000Z</time>
      </trkpt>
      <trkpt lat="48.70749" lon="1.78428">
        <ele>185</ele>
        <time>2012-03-27T09:28:49.000Z</time>
      </trkpt>
      <trkpt lat="48.70753" lon="1.78436">
        <ele>184.80000305176</ele>
        <time>2012-03-27T09:28:53.000Z</time>
      </trkpt>
      <trkpt lat="48.70754" lon="1.7844">
        <ele>184.80000305176</ele>
        <time>2012-03-27T09:28:55.000Z</time>
      </trkpt>
      <trkpt lat="48.70759" lon="1.78455">
        <ele>184.39999389648</ele>
        <time>2012-03-27T09:29:02.000Z</time>
      </trkpt>
      <trkpt lat="48.70763" lon="1.78469">
        <ele>184.19999694824</ele>
        <time>2012-03-27T09:29:09.000Z</time>
      </trkpt>
      <trkpt lat="48.70766" lon="1.78477">
        <ele>184</ele>
        <time>2012-03-27T09:29:13.000Z</time>
      </trkpt>
      <trkpt lat="48.70769" lon="1.78485">
        <ele>183.80000305176</ele>
        <time>2012-03-27T09:29:17.000Z</time>
      </trkpt>
      <trkpt lat="48.70772" lon="1.78497">
        <ele>183.60000610352</ele>
        <time>2012-03-27T09:29:23.000Z</time>
      </trkpt>
      <trkpt lat="48.70774" lon="1.78505">
        <ele>183.39999389648</ele>
        <time>2012-03-27T09:29:27.000Z</time>
      </trkpt>
      <trkpt lat="48.70775" lon="1.78513">
        <ele>183.19999694824</ele>
        <time>2012-03-27T09:29:31.000Z</time>
      </trkpt>
      <trkpt lat="48.70779" lon="1.78526">
        <ele>182.80000305176</ele>
        <time>2012-03-27T09:29:38.000Z</time>
      </trkpt>
      <trkpt lat="48.70781" lon="1.78532">
        <ele>182.39999389648</ele>
        <time>2012-03-27T09:29:41.000Z</time>
      </trkpt>
      <trkpt lat="48.70782" lon="1.78537">
        <ele>182.19999694824</ele>
        <time>2012-03-27T09:29:44.000Z</time>
      </trkpt>
      <trkpt lat="48.70788" lon="1.78551">
        <ele>181.60000610352</ele>
        <time>2012-03-27T09:29:52.000Z</time>
      </trkpt>
      <trkpt lat="48.70792" lon="1.78563">
        <ele>181</ele>
        <time>2012-03-27T09:29:58.000Z</time>
      </trkpt>
      <trkpt lat="48.70794" lon="1.78569">
        <ele>180.60000610352</ele>
        <time>2012-03-27T09:30:01.000Z</time>
      </trkpt>
      <trkpt lat="48.70798" lon="1.78589">
        <ele>180.19999694824</ele>
        <time>2012-03-27T09:30:11.000Z</time>
      </trkpt>
      <trkpt lat="48.70799" lon="1.78598">
        <ele>180.60000610352</ele>
        <time>2012-03-27T09:30:16.000Z</time>
      </trkpt>
      <trkpt lat="48.70796" lon="1.78612">
        <ele>181.60000610352</ele>
        <time>2012-03-27T09:30:23.000Z</time>
      </trkpt>
      <trkpt lat="48.70795" lon="1.78626">
        <ele>182.39999389648</ele>
        <time>2012-03-27T09:30:30.000Z</time>
      </trkpt>
      <trkpt lat="48.70794" lon="1.78636">
        <ele>183.19999694824</ele>
        <time>2012-03-27T09:30:37.000Z</time>
      </trkpt>
      <trkpt lat="48.70794" lon="1.78646">
        <ele>183.80000305176</ele>
        <time>2012-03-27T09:30:43.000Z</time>
      </trkpt>
      <trkpt lat="48.7079" lon="1.78657">
        <ele>184.60000610352</ele>
        <time>2012-03-27T09:30:49.000Z</time>
      </trkpt>
      <trkpt lat="48.70784" lon="1.78669">
        <ele>185.80000305176</ele>
        <time>2012-03-27T09:30:56.000Z</time>
      </trkpt>
      <trkpt lat="48.70781" lon="1.78675">
        <ele>186.19999694824</ele>
        <time>2012-03-27T09:30:59.000Z</time>
      </trkpt>
      <trkpt lat="48.70775" lon="1.78687">
        <ele>186.80000305176</ele>
        <time>2012-03-27T09:31:06.000Z</time>
      </trkpt>
      <trkpt lat="48.70774" lon="1.78689">
        <ele>187</ele>
        <time>2012-03-27T09:31:07.000Z</time>
      </trkpt>
      <trkpt lat="48.70765" lon="1.78706">
        <ele>187.80000305176</ele>
        <time>2012-03-27T09:31:16.000Z</time>
      </trkpt>
      <trkpt lat="48.70761" lon="1.78716">
        <ele>188.19999694824</ele>
        <time>2012-03-27T09:31:22.000Z</time>
      </trkpt>
      <trkpt lat="48.70756" lon="1.78726">
        <ele>188.60000610352</ele>
        <time>2012-03-27T09:31:28.000Z</time>
      </trkpt>
      <trkpt lat="48.70752" lon="1.78736">
        <ele>188.80000305176</ele>
        <time>2012-03-27T09:31:32.000Z</time>
      </trkpt>
      <trkpt lat="48.70748" lon="1.78747">
        <ele>189</ele>
        <time>2012-03-27T09:31:38.000Z</time>
      </trkpt>
      <trkpt lat="48.70741" lon="1.7876">
        <ele>188.80000305176</ele>
        <time>2012-03-27T09:31:46.000Z</time>
      </trkpt>
      <trkpt lat="48.70736" lon="1.78773">
        <ele>188.60000610352</ele>
        <time>2012-03-27T09:31:51.000Z</time>
      </trkpt>
      <trkpt lat="48.70728" lon="1.78791">
        <ele>188.39999389648</ele>
        <time>2012-03-27T09:31:55.000Z</time>
      </trkpt>
      <trkpt lat="48.7072" lon="1.78808">
        <ele>188</ele>
        <time>2012-03-27T09:31:59.000Z</time>
      </trkpt>
      <trkpt lat="48.70709" lon="1.78832">
        <ele>187.60000610352</ele>
        <time>2012-03-27T09:32:04.000Z</time>
      </trkpt>
      <trkpt lat="48.70697" lon="1.7886">
        <ele>187.60000610352</ele>
        <time>2012-03-27T09:32:10.000Z</time>
      </trkpt>
      <trkpt lat="48.70685" lon="1.78877">
        <ele>187.60000610352</ele>
        <time>2012-03-27T09:32:14.000Z</time>
      </trkpt>
      <trkpt lat="48.70667" lon="1.78892">
        <ele>187.80000305176</ele>
        <time>2012-03-27T09:32:20.000Z</time>
      </trkpt>
      <trkpt lat="48.7065" lon="1.78907">
        <ele>187.80000305176</ele>
        <time>2012-03-27T09:32:25.000Z</time>
      </trkpt>
      <trkpt lat="48.70634" lon="1.78919">
        <ele>188</ele>
        <time>2012-03-27T09:32:30.000Z</time>
      </trkpt>
      <trkpt lat="48.7062" lon="1.78932">
        <ele>188</ele>
        <time>2012-03-27T09:32:35.000Z</time>
      </trkpt>
      <trkpt lat="48.70604" lon="1.78948">
        <ele>188</ele>
        <time>2012-03-27T09:32:41.000Z</time>
      </trkpt>
      <trkpt lat="48.7059" lon="1.78961">
        <ele>188</ele>
        <time>2012-03-27T09:32:46.000Z</time>
      </trkpt>
      <trkpt lat="48.70573" lon="1.78978">
        <ele>188.19999694824</ele>
        <time>2012-03-27T09:32:51.000Z</time>
      </trkpt>
      <trkpt lat="48.70562" lon="1.7899">
        <ele>188.39999389648</ele>
        <time>2012-03-27T09:32:55.000Z</time>
      </trkpt>
      <trkpt lat="48.70553" lon="1.78998">
        <ele>188.80000305176</ele>
        <time>2012-03-27T09:32:59.000Z</time>
      </trkpt>
      <trkpt lat="48.70541" lon="1.7901">
        <ele>188.80000305176</ele>
        <time>2012-03-27T09:33:04.000Z</time>
      </trkpt>
      <trkpt lat="48.70536" lon="1.79015">
        <ele>188.80000305176</ele>
        <time>2012-03-27T09:33:06.000Z</time>
      </trkpt>
      <trkpt lat="48.7053" lon="1.79019">
        <ele>188.80000305176</ele>
        <time>2012-03-27T09:33:08.000Z</time>
      </trkpt>
      <trkpt lat="48.70518" lon="1.79029">
        <ele>188.80000305176</ele>
        <time>2012-03-27T09:33:14.000Z</time>
      </trkpt>
      <trkpt lat="48.70506" lon="1.7904">
        <ele>188.60000610352</ele>
        <time>2012-03-27T09:33:19.000Z</time>
      </trkpt>
      <trkpt lat="48.70491" lon="1.79054">
        <ele>188.19999694824</ele>
        <time>2012-03-27T09:33:23.000Z</time>
      </trkpt>
      <trkpt lat="48.70475" lon="1.79068">
        <ele>188.19999694824</ele>
        <time>2012-03-27T09:33:28.000Z</time>
      </trkpt>
      <trkpt lat="48.7046" lon="1.7908">
        <ele>188.39999389648</ele>
        <time>2012-03-27T09:33:33.000Z</time>
      </trkpt>
      <trkpt lat="48.70435" lon="1.79103">
        <ele>189.39999389648</ele>
        <time>2012-03-27T09:33:40.000Z</time>
      </trkpt>
      <trkpt lat="48.7042" lon="1.79118">
        <ele>190</ele>
        <time>2012-03-27T09:33:45.000Z</time>
      </trkpt>
      <trkpt lat="48.70406" lon="1.79131">
        <ele>189.80000305176</ele>
        <time>2012-03-27T09:33:50.000Z</time>
      </trkpt>
      <trkpt lat="48.7039" lon="1.79144">
        <ele>189.60000610352</ele>
        <time>2012-03-27T09:33:55.000Z</time>
      </trkpt>
      <trkpt lat="48.70377" lon="1.79158">
        <ele>189.60000610352</ele>
        <time>2012-03-27T09:33:59.000Z</time>
      </trkpt>
      <trkpt lat="48.70367" lon="1.79168">
        <ele>189.39999389648</ele>
        <time>2012-03-27T09:34:03.000Z</time>
      </trkpt>
      <trkpt lat="48.70357" lon="1.7918">
        <ele>189.39999389648</ele>
        <time>2012-03-27T09:34:07.000Z</time>
      </trkpt>
      <trkpt lat="48.7034" lon="1.79196">
        <ele>189.39999389648</ele>
        <time>2012-03-27T09:34:13.000Z</time>
      </trkpt>
      <trkpt lat="48.70328" lon="1.79207">
        <ele>189.60000610352</ele>
        <time>2012-03-27T09:34:18.000Z</time>
      </trkpt>
      <trkpt lat="48.70314" lon="1.79218">
        <ele>189.80000305176</ele>
        <time>2012-03-27T09:34:23.000Z</time>
      </trkpt>
      <trkpt lat="48.70302" lon="1.79229">
        <ele>190</ele>
        <time>2012-03-27T09:34:27.000Z</time>
      </trkpt>
      <trkpt lat="48.70284" lon="1.79247">
        <ele>190</ele>
        <time>2012-03-27T09:34:32.000Z</time>
      </trkpt>
      <trkpt lat="48.70269" lon="1.79261">
        <ele>190</ele>
        <time>2012-03-27T09:34:37.000Z</time>
      </trkpt>
      <trkpt lat="48.70251" lon="1.79277">
        <ele>190</ele>
        <time>2012-03-27T09:34:43.000Z</time>
      </trkpt>
      <trkpt lat="48.70233" lon="1.79292">
        <ele>190</ele>
        <time>2012-03-27T09:34:49.000Z</time>
      </trkpt>
      <trkpt lat="48.70218" lon="1.79306">
        <ele>190.19999694824</ele>
        <time>2012-03-27T09:34:54.000Z</time>
      </trkpt>
      <trkpt lat="48.70203" lon="1.7932">
        <ele>190</ele>
        <time>2012-03-27T09:34:59.000Z</time>
      </trkpt>
      <trkpt lat="48.70188" lon="1.79334">
        <ele>190</ele>
        <time>2012-03-27T09:35:04.000Z</time>
      </trkpt>
      <trkpt lat="48.70167" lon="1.79353">
        <ele>189.80000305176</ele>
        <time>2012-03-27T09:35:10.000Z</time>
      </trkpt>
      <trkpt lat="48.70149" lon="1.79369">
        <ele>189.39999389648</ele>
        <time>2012-03-27T09:35:16.000Z</time>
      </trkpt>
      <trkpt lat="48.70133" lon="1.79384">
        <ele>189.19999694824</ele>
        <time>2012-03-27T09:35:22.000Z</time>
      </trkpt>
      <trkpt lat="48.7012" lon="1.79394">
        <ele>189.19999694824</ele>
        <time>2012-03-27T09:35:27.000Z</time>
      </trkpt>
      <trkpt lat="48.70101" lon="1.79411">
        <ele>189</ele>
        <time>2012-03-27T09:35:33.000Z</time>
      </trkpt>
      <trkpt lat="48.70087" lon="1.79424">
        <ele>189</ele>
        <time>2012-03-27T09:35:38.000Z</time>
      </trkpt>
      <trkpt lat="48.70075" lon="1.79434">
        <ele>188.80000305176</ele>
        <time>2012-03-27T09:35:43.000Z</time>
      </trkpt>
      <trkpt lat="48.7006" lon="1.79449">
        <ele>188.39999389648</ele>
        <time>2012-03-27T09:35:48.000Z</time>
      </trkpt>
      <trkpt lat="48.70047" lon="1.79461">
        <ele>188.19999694824</ele>
        <time>2012-03-27T09:35:53.000Z</time>
      </trkpt>
      <trkpt lat="48.7003" lon="1.79476">
        <ele>188.19999694824</ele>
        <time>2012-03-27T09:35:59.000Z</time>
      </trkpt>
      <trkpt lat="48.70008" lon="1.79497">
        <ele>188</ele>
        <time>2012-03-27T09:36:06.000Z</time>
      </trkpt>
      <trkpt lat="48.69994" lon="1.7951">
        <ele>187.80000305176</ele>
        <time>2012-03-27T09:36:11.000Z</time>
      </trkpt>
      <trkpt lat="48.6998" lon="1.7952">
        <ele>187</ele>
        <time>2012-03-27T09:36:15.000Z</time>
      </trkpt>
      <trkpt lat="48.69966" lon="1.79533">
        <ele>186.39999389648</ele>
        <time>2012-03-27T09:36:20.000Z</time>
      </trkpt>
      <trkpt lat="48.69951" lon="1.79546">
        <ele>186</ele>
        <time>2012-03-27T09:36:25.000Z</time>
      </trkpt>
      <trkpt lat="48.69933" lon="1.7956">
        <ele>185.19999694824</ele>
        <time>2012-03-27T09:36:31.000Z</time>
      </trkpt>
      <trkpt lat="48.69917" lon="1.79573">
        <ele>184.80000305176</ele>
        <time>2012-03-27T09:36:37.000Z</time>
      </trkpt>
      <trkpt lat="48.69896" lon="1.79591">
        <ele>184.80000305176</ele>
        <time>2012-03-27T09:36:44.000Z</time>
      </trkpt>
      <trkpt lat="48.69879" lon="1.79608">
        <ele>184.80000305176</ele>
        <time>2012-03-27T09:36:50.000Z</time>
      </trkpt>
      <trkpt lat="48.6986" lon="1.79625">
        <ele>184.80000305176</ele>
        <time>2012-03-27T09:36:57.000Z</time>
      </trkpt>
      <trkpt lat="48.69841" lon="1.79643">
        <ele>184.60000610352</ele>
        <time>2012-03-27T09:37:04.000Z</time>
      </trkpt>
      <trkpt lat="48.69821" lon="1.79661">
        <ele>184.60000610352</ele>
        <time>2012-03-27T09:37:11.000Z</time>
      </trkpt>
      <trkpt lat="48.69799" lon="1.79684">
        <ele>184.39999389648</ele>
        <time>2012-03-27T09:37:19.000Z</time>
      </trkpt>
      <trkpt lat="48.69779" lon="1.79704">
        <ele>184.19999694824</ele>
        <time>2012-03-27T09:37:27.000Z</time>
      </trkpt>
      <trkpt lat="48.69762" lon="1.79721">
        <ele>184</ele>
        <time>2012-03-27T09:37:33.000Z</time>
      </trkpt>
      <trkpt lat="48.6974" lon="1.79739">
        <ele>183.60000610352</ele>
        <time>2012-03-27T09:37:40.000Z</time>
      </trkpt>
      <trkpt lat="48.69722" lon="1.7975">
        <ele>183.39999389648</ele>
        <time>2012-03-27T09:37:46.000Z</time>
      </trkpt>
      <trkpt lat="48.69703" lon="1.79758">
        <ele>183.19999694824</ele>
        <time>2012-03-27T09:37:52.000Z</time>
      </trkpt>
      <trkpt lat="48.69687" lon="1.79765">
        <ele>183.19999694824</ele>
        <time>2012-03-27T09:37:57.000Z</time>
      </trkpt>
      <trkpt lat="48.6967" lon="1.79772">
        <ele>183.19999694824</ele>
        <time>2012-03-27T09:38:02.000Z</time>
      </trkpt>
      <trkpt lat="48.6965" lon="1.7978">
        <ele>183.80000305176</ele>
        <time>2012-03-27T09:38:08.000Z</time>
      </trkpt>
      <trkpt lat="48.69639" lon="1.79786">
        <ele>184</ele>
        <time>2012-03-27T09:38:14.000Z</time>
      </trkpt>
      <trkpt lat="48.69636" lon="1.79787">
        <ele>184.19999694824</ele>
        <time>2012-03-27T09:38:16.000Z</time>
      </trkpt>
      <trkpt lat="48.69626" lon="1.79792">
        <ele>184.60000610352</ele>
        <time>2012-03-27T09:38:23.000Z</time>
      </trkpt>
      <trkpt lat="48.69618" lon="1.79799">
        <ele>184.80000305176</ele>
        <time>2012-03-27T09:38:30.000Z</time>
      </trkpt>
      <trkpt lat="48.69605" lon="1.79804">
        <ele>185.19999694824</ele>
        <time>2012-03-27T09:38:38.000Z</time>
      </trkpt>
      <trkpt lat="48.6959" lon="1.79812">
        <ele>185.39999389648</ele>
        <time>2012-03-27T09:38:48.000Z</time>
      </trkpt>
      <trkpt lat="48.69584" lon="1.79814">
        <ele>185.60000610352</ele>
        <time>2012-03-27T09:38:53.000Z</time>
      </trkpt>
      <trkpt lat="48.69575" lon="1.79817">
        <ele>186</ele>
        <time>2012-03-27T09:39:00.000Z</time>
      </trkpt>
      <trkpt lat="48.69572" lon="1.79818">
        <ele>186.19999694824</ele>
        <time>2012-03-27T09:39:02.000Z</time>
      </trkpt>
      <trkpt lat="48.69563" lon="1.79825">
        <ele>186.80000305176</ele>
        <time>2012-03-27T09:39:09.000Z</time>
      </trkpt>
      <trkpt lat="48.69561" lon="1.79826">
        <ele>187</ele>
        <time>2012-03-27T09:39:10.000Z</time>
      </trkpt>
      <trkpt lat="48.69552" lon="1.79832">
        <ele>187.39999389648</ele>
        <time>2012-03-27T09:39:18.000Z</time>
      </trkpt>
      <trkpt lat="48.69541" lon="1.79836">
        <ele>188</ele>
        <time>2012-03-27T09:39:24.000Z</time>
      </trkpt>
      <trkpt lat="48.69531" lon="1.79837">
        <ele>188.39999389648</ele>
        <time>2012-03-27T09:39:30.000Z</time>
      </trkpt>
      <trkpt lat="48.69523" lon="1.79841">
        <ele>188.60000610352</ele>
        <time>2012-03-27T09:39:36.000Z</time>
      </trkpt>
      <trkpt lat="48.69512" lon="1.79846">
        <ele>189</ele>
        <time>2012-03-27T09:39:44.000Z</time>
      </trkpt>
      <trkpt lat="48.69502" lon="1.79851">
        <ele>189</ele>
        <time>2012-03-27T09:39:52.000Z</time>
      </trkpt>
      <trkpt lat="48.69493" lon="1.79857">
        <ele>188.80000305176</ele>
        <time>2012-03-27T09:40:00.000Z</time>
      </trkpt>
      <trkpt lat="48.69487" lon="1.7986">
        <ele>188.39999389648</ele>
        <time>2012-03-27T09:40:04.000Z</time>
      </trkpt>
      <trkpt lat="48.69483" lon="1.79866">
        <ele>188.19999694824</ele>
        <time>2012-03-27T09:40:09.000Z</time>
      </trkpt>
      <trkpt lat="48.69477" lon="1.7987">
        <ele>187.80000305176</ele>
        <time>2012-03-27T09:40:14.000Z</time>
      </trkpt>
      <trkpt lat="48.69472" lon="1.79875">
        <ele>187.60000610352</ele>
        <time>2012-03-27T09:40:20.000Z</time>
      </trkpt>
      <trkpt lat="48.6946" lon="1.79877">
        <ele>187.19999694824</ele>
        <time>2012-03-27T09:40:26.000Z</time>
      </trkpt>
      <trkpt lat="48.69454" lon="1.79879">
        <ele>187</ele>
        <time>2012-03-27T09:40:32.000Z</time>
      </trkpt>
      <trkpt lat="48.69448" lon="1.79882">
        <ele>186.80000305176</ele>
        <time>2012-03-27T09:40:37.000Z</time>
      </trkpt>
      <trkpt lat="48.69438" lon="1.79885">
        <ele>186.39999389648</ele>
        <time>2012-03-27T09:40:43.000Z</time>
      </trkpt>
      <trkpt lat="48.69434" lon="1.79888">
        <ele>186.39999389648</ele>
        <time>2012-03-27T09:40:46.000Z</time>
      </trkpt>
      <trkpt lat="48.69427" lon="1.7989">
        <ele>186.19999694824</ele>
        <time>2012-03-27T09:40:51.000Z</time>
      </trkpt>
      <trkpt lat="48.69416" lon="1.79895">
        <ele>185.80000305176</ele>
        <time>2012-03-27T09:40:59.000Z</time>
      </trkpt>
      <trkpt lat="48.69405" lon="1.799">
        <ele>185</ele>
        <time>2012-03-27T09:41:06.000Z</time>
      </trkpt>
      <trkpt lat="48.69398" lon="1.79907">
        <ele>184.60000610352</ele>
        <time>2012-03-27T09:41:12.000Z</time>
      </trkpt>
      <trkpt lat="48.6939" lon="1.79912">
        <ele>184</ele>
        <time>2012-03-27T09:41:19.000Z</time>
      </trkpt>
      <trkpt lat="48.69388" lon="1.79913">
        <ele>183.80000305176</ele>
        <time>2012-03-27T09:41:20.000Z</time>
      </trkpt>
      <trkpt lat="48.6938" lon="1.79917">
        <ele>183.19999694824</ele>
        <time>2012-03-27T09:41:27.000Z</time>
      </trkpt>
      <trkpt lat="48.69375" lon="1.79916">
        <ele>183</ele>
        <time>2012-03-27T09:41:30.000Z</time>
      </trkpt>
      <trkpt lat="48.69366" lon="1.79919">
        <ele>182.39999389648</ele>
        <time>2012-03-27T09:41:36.000Z</time>
      </trkpt>
      <trkpt lat="48.69357" lon="1.79918">
        <ele>182</ele>
        <time>2012-03-27T09:41:45.000Z</time>
      </trkpt>
      <trkpt lat="48.69346" lon="1.79923">
        <ele>181.39999389648</ele>
        <time>2012-03-27T09:41:53.000Z</time>
      </trkpt>
      <trkpt lat="48.69334" lon="1.79929">
        <ele>180.60000610352</ele>
        <time>2012-03-27T09:42:00.000Z</time>
      </trkpt>
      <trkpt lat="48.69326" lon="1.79931">
        <ele>180.80000305176</ele>
        <time>2012-03-27T09:42:05.000Z</time>
      </trkpt>
      <trkpt lat="48.69315" lon="1.79936">
        <ele>181</ele>
        <time>2012-03-27T09:42:12.000Z</time>
      </trkpt>
      <trkpt lat="48.69303" lon="1.79943">
        <ele>181.19999694824</ele>
        <time>2012-03-27T09:42:20.000Z</time>
      </trkpt>
      <trkpt lat="48.69291" lon="1.79948">
        <ele>181.39999389648</ele>
        <time>2012-03-27T09:42:28.000Z</time>
      </trkpt>
      <trkpt lat="48.69286" lon="1.7995">
        <ele>181.60000610352</ele>
        <time>2012-03-27T09:42:33.000Z</time>
      </trkpt>
      <trkpt lat="48.69281" lon="1.79957">
        <ele>181.39999389648</ele>
        <time>2012-03-27T09:42:38.000Z</time>
      </trkpt>
      <trkpt lat="48.69278" lon="1.7996">
        <ele>181.39999389648</ele>
        <time>2012-03-27T09:42:40.000Z</time>
      </trkpt>
      <trkpt lat="48.69272" lon="1.79963">
        <ele>181.60000610352</ele>
        <time>2012-03-27T09:42:44.000Z</time>
      </trkpt>
      <trkpt lat="48.69261" lon="1.79969">
        <ele>181.80000305176</ele>
        <time>2012-03-27T09:42:53.000Z</time>
      </trkpt>
      <trkpt lat="48.69254" lon="1.79972">
        <ele>181.80000305176</ele>
        <time>2012-03-27T09:42:57.000Z</time>
      </trkpt>
      <trkpt lat="48.69247" lon="1.79975">
        <ele>182.19999694824</ele>
        <time>2012-03-27T09:43:03.000Z</time>
      </trkpt>
      <trkpt lat="48.6924" lon="1.79978">
        <ele>182.60000610352</ele>
        <time>2012-03-27T09:43:08.000Z</time>
      </trkpt>
      <trkpt lat="48.69231" lon="1.79982">
        <ele>183.19999694824</ele>
        <time>2012-03-27T09:43:13.000Z</time>
      </trkpt>
      <trkpt lat="48.69225" lon="1.79984">
        <ele>183.60000610352</ele>
        <time>2012-03-27T09:43:17.000Z</time>
      </trkpt>
      <trkpt lat="48.69215" lon="1.79987">
        <ele>184.39999389648</ele>
        <time>2012-03-27T09:43:23.000Z</time>
      </trkpt>
      <trkpt lat="48.69207" lon="1.79993">
        <ele>184.80000305176</ele>
        <time>2012-03-27T09:43:30.000Z</time>
      </trkpt>
      <trkpt lat="48.69201" lon="1.79996">
        <ele>185.19999694824</ele>
        <time>2012-03-27T09:43:35.000Z</time>
      </trkpt>
      <trkpt lat="48.6919" lon="1.80001">
        <ele>186</ele>
        <time>2012-03-27T09:43:42.000Z</time>
      </trkpt>
      <trkpt lat="48.69182" lon="1.80006">
        <ele>186.39999389648</ele>
        <time>2012-03-27T09:43:48.000Z</time>
      </trkpt>
      <trkpt lat="48.69174" lon="1.8001">
        <ele>187</ele>
        <time>2012-03-27T09:43:54.000Z</time>
      </trkpt>
      <trkpt lat="48.69163" lon="1.80016">
        <ele>187.39999389648</ele>
        <time>2012-03-27T09:44:02.000Z</time>
      </trkpt>
      <trkpt lat="48.69151" lon="1.80023">
        <ele>187.39999389648</ele>
        <time>2012-03-27T09:44:11.000Z</time>
      </trkpt>
      <trkpt lat="48.69145" lon="1.80023">
        <ele>187.39999389648</ele>
        <time>2012-03-27T09:44:15.000Z</time>
      </trkpt>
      <trkpt lat="48.69139" lon="1.80025">
        <ele>187.39999389648</ele>
        <time>2012-03-27T09:44:21.000Z</time>
      </trkpt>
      <trkpt lat="48.69131" lon="1.80028">
        <ele>187.39999389648</ele>
        <time>2012-03-27T09:44:27.000Z</time>
      </trkpt>
      <trkpt lat="48.69119" lon="1.80035">
        <ele>187.39999389648</ele>
        <time>2012-03-27T09:44:34.000Z</time>
      </trkpt>
      <trkpt lat="48.69108" lon="1.8004">
        <ele>187.19999694824</ele>
        <time>2012-03-27T09:44:41.000Z</time>
      </trkpt>
      <trkpt lat="48.69096" lon="1.80045">
        <ele>187.19999694824</ele>
        <time>2012-03-27T09:44:49.000Z</time>
      </trkpt>
      <trkpt lat="48.69084" lon="1.80049">
        <ele>187.19999694824</ele>
        <time>2012-03-27T09:44:56.000Z</time>
      </trkpt>
      <trkpt lat="48.69079" lon="1.80052">
        <ele>187.19999694824</ele>
        <time>2012-03-27T09:45:02.000Z</time>
      </trkpt>
      <trkpt lat="48.69066" lon="1.80059">
        <ele>187</ele>
        <time>2012-03-27T09:45:11.000Z</time>
      </trkpt>
      <trkpt lat="48.69054" lon="1.80064">
        <ele>186.80000305176</ele>
        <time>2012-03-27T09:45:19.000Z</time>
      </trkpt>
      <trkpt lat="48.69045" lon="1.80069">
        <ele>186.60000610352</ele>
        <time>2012-03-27T09:45:25.000Z</time>
      </trkpt>
      <trkpt lat="48.69034" lon="1.80074">
        <ele>186.39999389648</ele>
        <time>2012-03-27T09:45:34.000Z</time>
      </trkpt>
      <trkpt lat="48.69024" lon="1.80079">
        <ele>186.19999694824</ele>
        <time>2012-03-27T09:45:41.000Z</time>
      </trkpt>
      <trkpt lat="48.69016" lon="1.80081">
        <ele>186.19999694824</ele>
        <time>2012-03-27T09:45:47.000Z</time>
      </trkpt>
      <trkpt lat="48.6901" lon="1.80083">
        <ele>186</ele>
        <time>2012-03-27T09:45:52.000Z</time>
      </trkpt>
      <trkpt lat="48.69005" lon="1.8009">
        <ele>186</ele>
        <time>2012-03-27T09:45:56.000Z</time>
      </trkpt>
      <trkpt lat="48.69002" lon="1.80108">
        <ele>186</ele>
        <time>2012-03-27T09:46:03.000Z</time>
      </trkpt>
      <trkpt lat="48.69001" lon="1.80125">
        <ele>186</ele>
        <time>2012-03-27T09:46:10.000Z</time>
      </trkpt>
      <trkpt lat="48.68999" lon="1.80134">
        <ele>186</ele>
        <time>2012-03-27T09:46:14.000Z</time>
      </trkpt>
      <trkpt lat="48.68998" lon="1.80151">
        <ele>186</ele>
        <time>2012-03-27T09:46:20.000Z</time>
      </trkpt>
      <trkpt lat="48.68997" lon="1.80163">
        <ele>186</ele>
        <time>2012-03-27T09:46:25.000Z</time>
      </trkpt>
      <trkpt lat="48.68997" lon="1.80183">
        <ele>186</ele>
        <time>2012-03-27T09:46:32.000Z</time>
      </trkpt>
      <trkpt lat="48.68996" lon="1.80199">
        <ele>186.19999694824</ele>
        <time>2012-03-27T09:46:39.000Z</time>
      </trkpt>
      <trkpt lat="48.68996" lon="1.80211">
        <ele>186.19999694824</ele>
        <time>2012-03-27T09:46:44.000Z</time>
      </trkpt>
      <trkpt lat="48.68997" lon="1.80227">
        <ele>186.19999694824</ele>
        <time>2012-03-27T09:46:51.000Z</time>
      </trkpt>
      <trkpt lat="48.68997" lon="1.8023">
        <ele>186.19999694824</ele>
        <time>2012-03-27T09:46:52.000Z</time>
      </trkpt>
      <trkpt lat="48.68996" lon="1.80246">
        <ele>186.19999694824</ele>
        <time>2012-03-27T09:46:59.000Z</time>
      </trkpt>
      <trkpt lat="48.68993" lon="1.80262">
        <ele>186.19999694824</ele>
        <time>2012-03-27T09:47:06.000Z</time>
      </trkpt>
      <trkpt lat="48.68993" lon="1.80264">
        <ele>186.19999694824</ele>
        <time>2012-03-27T09:47:07.000Z</time>
      </trkpt>
      <trkpt lat="48.68993" lon="1.80273">
        <ele>186.19999694824</ele>
        <time>2012-03-27T09:47:11.000Z</time>
      </trkpt>
      <trkpt lat="48.68995" lon="1.80296">
        <ele>186.19999694824</ele>
        <time>2012-03-27T09:47:21.000Z</time>
      </trkpt>
      <trkpt lat="48.68993" lon="1.80313">
        <ele>186.19999694824</ele>
        <time>2012-03-27T09:47:29.000Z</time>
      </trkpt>
      <trkpt lat="48.68988" lon="1.8033">
        <ele>186.39999389648</ele>
        <time>2012-03-27T09:47:37.000Z</time>
      </trkpt>
      <trkpt lat="48.68984" lon="1.80343">
        <ele>186.60000610352</ele>
        <time>2012-03-27T09:47:44.000Z</time>
      </trkpt>
      <trkpt lat="48.68984" lon="1.80343">
        <ele>186.60000610352</ele>
        <time>2012-03-27T09:47:46.000Z</time>
      </trkpt>
      <trkpt lat="48.68984" lon="1.80353">
        <ele>186.60000610352</ele>
        <time>2012-03-27T09:47:59.000Z</time>
      </trkpt>
      <trkpt lat="48.68981" lon="1.80375">
        <ele>186.60000610352</ele>
        <time>2012-03-27T09:48:07.000Z</time>
      </trkpt>
      <trkpt lat="48.6898" lon="1.8039">
        <ele>186.80000305176</ele>
        <time>2012-03-27T09:48:13.000Z</time>
      </trkpt>
      <trkpt lat="48.68978" lon="1.80411">
        <ele>186.80000305176</ele>
        <time>2012-03-27T09:48:20.000Z</time>
      </trkpt>
      <trkpt lat="48.68977" lon="1.80434">
        <ele>186.60000610352</ele>
        <time>2012-03-27T09:48:25.000Z</time>
      </trkpt>
      <trkpt lat="48.68976" lon="1.80447">
        <ele>186.60000610352</ele>
        <time>2012-03-27T09:48:30.000Z</time>
      </trkpt>
      <trkpt lat="48.68975" lon="1.80465">
        <ele>186.39999389648</ele>
        <time>2012-03-27T09:48:38.000Z</time>
      </trkpt>
      <trkpt lat="48.68974" lon="1.80469">
        <ele>186.19999694824</ele>
        <time>2012-03-27T09:48:40.000Z</time>
      </trkpt>
      <trkpt lat="48.68971" lon="1.8048">
        <ele>186.19999694824</ele>
        <time>2012-03-27T09:48:46.000Z</time>
      </trkpt>
      <trkpt lat="48.6897" lon="1.80486">
        <ele>186.19999694824</ele>
        <time>2012-03-27T09:48:50.000Z</time>
      </trkpt>
      <trkpt lat="48.6897" lon="1.80503">
        <ele>186</ele>
        <time>2012-03-27T09:48:57.000Z</time>
      </trkpt>
      <trkpt lat="48.68968" lon="1.80521">
        <ele>186</ele>
        <time>2012-03-27T09:49:05.000Z</time>
      </trkpt>
      <trkpt lat="48.68965" lon="1.80535">
        <ele>186.19999694824</ele>
        <time>2012-03-27T09:49:11.000Z</time>
      </trkpt>
      <trkpt lat="48.68964" lon="1.80551">
        <ele>186.19999694824</ele>
        <time>2012-03-27T09:49:18.000Z</time>
      </trkpt>
      <trkpt lat="48.68963" lon="1.80563">
        <ele>186.19999694824</ele>
        <time>2012-03-27T09:49:23.000Z</time>
      </trkpt>
      <trkpt lat="48.68965" lon="1.80579">
        <ele>186.19999694824</ele>
        <time>2012-03-27T09:49:30.000Z</time>
      </trkpt>
      <trkpt lat="48.68961" lon="1.80597">
        <ele>186.39999389648</ele>
        <time>2012-03-27T09:49:38.000Z</time>
      </trkpt>
      <trkpt lat="48.68959" lon="1.80601">
        <ele>186.60000610352</ele>
        <time>2012-03-27T09:49:40.000Z</time>
      </trkpt>
      <trkpt lat="48.6896" lon="1.80619">
        <ele>186.60000610352</ele>
        <time>2012-03-27T09:49:48.000Z</time>
      </trkpt>
      <trkpt lat="48.68959" lon="1.80635">
        <ele>186.80000305176</ele>
        <time>2012-03-27T09:49:55.000Z</time>
      </trkpt>
      <trkpt lat="48.68956" lon="1.80648">
        <ele>187</ele>
        <time>2012-03-27T09:50:01.000Z</time>
      </trkpt>
      <trkpt lat="48.68956" lon="1.80659">
        <ele>187.19999694824</ele>
        <time>2012-03-27T09:50:06.000Z</time>
      </trkpt>
      <trkpt lat="48.68956" lon="1.80661">
        <ele>187.19999694824</ele>
        <time>2012-03-27T09:50:07.000Z</time>
      </trkpt>
      <trkpt lat="48.68953" lon="1.80679">
        <ele>187</ele>
        <time>2012-03-27T09:50:15.000Z</time>
      </trkpt>
      <trkpt lat="48.68953" lon="1.80691">
        <ele>186.80000305176</ele>
        <time>2012-03-27T09:50:20.000Z</time>
      </trkpt>
      <trkpt lat="48.68952" lon="1.80705">
        <ele>186.60000610352</ele>
        <time>2012-03-27T09:50:26.000Z</time>
      </trkpt>
      <trkpt lat="48.6895" lon="1.80723">
        <ele>186.39999389648</ele>
        <time>2012-03-27T09:50:34.000Z</time>
      </trkpt>
      <trkpt lat="48.68948" lon="1.80736">
        <ele>186.19999694824</ele>
        <time>2012-03-27T09:50:40.000Z</time>
      </trkpt>
      <trkpt lat="48.68945" lon="1.80751">
        <ele>186</ele>
        <time>2012-03-27T09:50:47.000Z</time>
      </trkpt>
      <trkpt lat="48.68944" lon="1.80774">
        <ele>185.80000305176</ele>
        <time>2012-03-27T09:50:56.000Z</time>
      </trkpt>
      <trkpt lat="48.68943" lon="1.8079">
        <ele>185.80000305176</ele>
        <time>2012-03-27T09:51:03.000Z</time>
      </trkpt>
      <trkpt lat="48.68943" lon="1.80803">
        <ele>185.60000610352</ele>
        <time>2012-03-27T09:51:09.000Z</time>
      </trkpt>
      <trkpt lat="48.68941" lon="1.80821">
        <ele>185.60000610352</ele>
        <time>2012-03-27T09:51:17.000Z</time>
      </trkpt>
      <trkpt lat="48.6894" lon="1.80836">
        <ele>185.39999389648</ele>
        <time>2012-03-27T09:51:24.000Z</time>
      </trkpt>
      <trkpt lat="48.68939" lon="1.80852">
        <ele>184.80000305176</ele>
        <time>2012-03-27T09:51:31.000Z</time>
      </trkpt>
      <trkpt lat="48.68939" lon="1.80861">
        <ele>184.39999389648</ele>
        <time>2012-03-27T09:51:35.000Z</time>
      </trkpt>
      <trkpt lat="48.68936" lon="1.80872">
        <ele>184</ele>
        <time>2012-03-27T09:51:42.000Z</time>
      </trkpt>
      <trkpt lat="48.68932" lon="1.8088">
        <ele>183.60000610352</ele>
        <time>2012-03-27T09:51:48.000Z</time>
      </trkpt>
      <trkpt lat="48.68931" lon="1.80894">
        <ele>183.19999694824</ele>
        <time>2012-03-27T09:51:54.000Z</time>
      </trkpt>
      <trkpt lat="48.68927" lon="1.80904">
        <ele>182.60000610352</ele>
        <time>2012-03-27T09:51:59.000Z</time>
      </trkpt>
      <trkpt lat="48.68921" lon="1.80914">
        <ele>182.19999694824</ele>
        <time>2012-03-27T09:52:04.000Z</time>
      </trkpt>
      <trkpt lat="48.68914" lon="1.80922">
        <ele>182</ele>
        <time>2012-03-27T09:52:08.000Z</time>
      </trkpt>
      <trkpt lat="48.68911" lon="1.80938">
        <ele>182.19999694824</ele>
        <time>2012-03-27T09:52:16.000Z</time>
      </trkpt>
      <trkpt lat="48.6891" lon="1.80953">
        <ele>182.39999389648</ele>
        <time>2012-03-27T09:52:24.000Z</time>
      </trkpt>
      <trkpt lat="48.68909" lon="1.80954">
        <ele>182.39999389648</ele>
        <time>2012-03-27T09:52:25.000Z</time>
      </trkpt>
      <trkpt lat="48.68906" lon="1.8097">
        <ele>182.39999389648</ele>
        <time>2012-03-27T09:52:33.000Z</time>
      </trkpt>
      <trkpt lat="48.68904" lon="1.80984">
        <ele>182.60000610352</ele>
        <time>2012-03-27T09:52:39.000Z</time>
      </trkpt>
      <trkpt lat="48.689" lon="1.80999">
        <ele>182.60000610352</ele>
        <time>2012-03-27T09:52:46.000Z</time>
      </trkpt>
      <trkpt lat="48.68896" lon="1.81015">
        <ele>182.60000610352</ele>
        <time>2012-03-27T09:52:53.000Z</time>
      </trkpt>
      <trkpt lat="48.68895" lon="1.8102">
        <ele>182.80000305176</ele>
        <time>2012-03-27T09:52:57.000Z</time>
      </trkpt>
      <trkpt lat="48.68893" lon="1.81026">
        <ele>182.80000305176</ele>
        <time>2012-03-27T09:53:00.000Z</time>
      </trkpt>
      <trkpt lat="48.68889" lon="1.81042">
        <ele>182.80000305176</ele>
        <time>2012-03-27T09:53:08.000Z</time>
      </trkpt>
      <trkpt lat="48.68885" lon="1.81055">
        <ele>183</ele>
        <time>2012-03-27T09:53:14.000Z</time>
      </trkpt>
      <trkpt lat="48.68882" lon="1.81066">
        <ele>183</ele>
        <time>2012-03-27T09:53:19.000Z</time>
      </trkpt>
      <trkpt lat="48.68878" lon="1.81079">
        <ele>183</ele>
        <time>2012-03-27T09:53:25.000Z</time>
      </trkpt>
      <trkpt lat="48.68876" lon="1.81086">
        <ele>183</ele>
        <time>2012-03-27T09:53:28.000Z</time>
      </trkpt>
      <trkpt lat="48.68874" lon="1.81094">
        <ele>183</ele>
        <time>2012-03-27T09:53:32.000Z</time>
      </trkpt>
      <trkpt lat="48.68868" lon="1.81109">
        <ele>182.80000305176</ele>
        <time>2012-03-27T09:53:39.000Z</time>
      </trkpt>
      <trkpt lat="48.68867" lon="1.81123">
        <ele>182.80000305176</ele>
        <time>2012-03-27T09:53:45.000Z</time>
      </trkpt>
      <trkpt lat="48.68864" lon="1.81139">
        <ele>183</ele>
        <time>2012-03-27T09:53:52.000Z</time>
      </trkpt>
      <trkpt lat="48.68863" lon="1.81144">
        <ele>183</ele>
        <time>2012-03-27T09:53:54.000Z</time>
      </trkpt>
      <trkpt lat="48.68862" lon="1.81158">
        <ele>183</ele>
        <time>2012-03-27T09:54:01.000Z</time>
      </trkpt>
      <trkpt lat="48.68858" lon="1.81172">
        <ele>182.80000305176</ele>
        <time>2012-03-27T09:54:09.000Z</time>
      </trkpt>
      <trkpt lat="48.68854" lon="1.81187">
        <ele>182.39999389648</ele>
        <time>2012-03-27T09:54:17.000Z</time>
      </trkpt>
      <trkpt lat="48.68851" lon="1.81202">
        <ele>182</ele>
        <time>2012-03-27T09:54:24.000Z</time>
      </trkpt>
      <trkpt lat="48.68848" lon="1.81214">
        <ele>181.39999389648</ele>
        <time>2012-03-27T09:54:30.000Z</time>
      </trkpt>
      <trkpt lat="48.68843" lon="1.81228">
        <ele>181</ele>
        <time>2012-03-27T09:54:37.000Z</time>
      </trkpt>
      <trkpt lat="48.68843" lon="1.8123">
        <ele>181</ele>
        <time>2012-03-27T09:54:38.000Z</time>
      </trkpt>
      <trkpt lat="48.68841" lon="1.81236">
        <ele>180.60000610352</ele>
        <time>2012-03-27T09:54:41.000Z</time>
      </trkpt>
      <trkpt lat="48.68836" lon="1.81248">
        <ele>180.19999694824</ele>
        <time>2012-03-27T09:54:48.000Z</time>
      </trkpt>
      <trkpt lat="48.6883" lon="1.81254">
        <ele>180</ele>
        <time>2012-03-27T09:54:54.000Z</time>
      </trkpt>
      <trkpt lat="48.6883" lon="1.81256">
        <ele>180</ele>
        <time>2012-03-27T09:54:55.000Z</time>
      </trkpt>
      <trkpt lat="48.68827" lon="1.81261">
        <ele>180.19999694824</ele>
        <time>2012-03-27T09:54:58.000Z</time>
      </trkpt>
      <trkpt lat="48.68829" lon="1.81272">
        <ele>180.19999694824</ele>
        <time>2012-03-27T09:55:04.000Z</time>
      </trkpt>
      <trkpt lat="48.68832" lon="1.81283">
        <ele>180</ele>
        <time>2012-03-27T09:55:10.000Z</time>
      </trkpt>
      <trkpt lat="48.68833" lon="1.81299">
        <ele>180</ele>
        <time>2012-03-27T09:55:18.000Z</time>
      </trkpt>
      <trkpt lat="48.68834" lon="1.81312">
        <ele>180</ele>
        <time>2012-03-27T09:55:25.000Z</time>
      </trkpt>
      <trkpt lat="48.68839" lon="1.81329">
        <ele>180</ele>
        <time>2012-03-27T09:55:34.000Z</time>
      </trkpt>
      <trkpt lat="48.68839" lon="1.81331">
        <ele>180</ele>
        <time>2012-03-27T09:55:35.000Z</time>
      </trkpt>
      <trkpt lat="48.68842" lon="1.81346">
        <ele>180.60000610352</ele>
        <time>2012-03-27T09:55:42.000Z</time>
      </trkpt>
      <trkpt lat="48.68845" lon="1.81359">
        <ele>181</ele>
        <time>2012-03-27T09:55:48.000Z</time>
      </trkpt>
      <trkpt lat="48.68845" lon="1.81365">
        <ele>181.19999694824</ele>
        <time>2012-03-27T09:55:51.000Z</time>
      </trkpt>
      <trkpt lat="48.68844" lon="1.81369">
        <ele>181.39999389648</ele>
        <time>2012-03-27T09:55:53.000Z</time>
      </trkpt>
      <trkpt lat="48.68846" lon="1.81377">
        <ele>181.60000610352</ele>
        <time>2012-03-27T09:55:57.000Z</time>
      </trkpt>
      <trkpt lat="48.68848" lon="1.81384">
        <ele>182</ele>
        <time>2012-03-27T09:56:01.000Z</time>
      </trkpt>
      <trkpt lat="48.68846" lon="1.81398">
        <ele>182.39999389648</ele>
        <time>2012-03-27T09:56:09.000Z</time>
      </trkpt>
      <trkpt lat="48.68846" lon="1.81407">
        <ele>182.60000610352</ele>
        <time>2012-03-27T09:56:13.000Z</time>
      </trkpt>
      <trkpt lat="48.68846" lon="1.8142">
        <ele>183</ele>
        <time>2012-03-27T09:56:19.000Z</time>
      </trkpt>
      <trkpt lat="48.68845" lon="1.81422">
        <ele>183</ele>
        <time>2012-03-27T09:56:20.000Z</time>
      </trkpt>
      <trkpt lat="48.68846" lon="1.81428">
        <ele>183</ele>
        <time>2012-03-27T09:56:23.000Z</time>
      </trkpt>
      <trkpt lat="48.68849" lon="1.81438">
        <ele>183.19999694824</ele>
        <time>2012-03-27T09:56:28.000Z</time>
      </trkpt>
      <trkpt lat="48.68855" lon="1.81443">
        <ele>183.19999694824</ele>
        <time>2012-03-27T09:56:33.000Z</time>
      </trkpt>
      <trkpt lat="48.68859" lon="1.81448">
        <ele>183.39999389648</ele>
        <time>2012-03-27T09:56:36.000Z</time>
      </trkpt>
      <trkpt lat="48.68862" lon="1.81464">
        <ele>183.60000610352</ele>
        <time>2012-03-27T09:56:43.000Z</time>
      </trkpt>
      <trkpt lat="48.68864" lon="1.81475">
        <ele>183.80000305176</ele>
        <time>2012-03-27T09:56:49.000Z</time>
      </trkpt>
      <trkpt lat="48.68864" lon="1.81475">
        <ele>183.80000305176</ele>
        <time>2012-03-27T09:56:50.000Z</time>
      </trkpt>
      <trkpt lat="48.68865" lon="1.81483">
        <ele>184</ele>
        <time>2012-03-27T09:56:58.000Z</time>
      </trkpt>
      <trkpt lat="48.68865" lon="1.81487">
        <ele>184</ele>
        <time>2012-03-27T09:56:59.000Z</time>
      </trkpt>
      <trkpt lat="48.68866" lon="1.815">
        <ele>184.19999694824</ele>
        <time>2012-03-27T09:57:05.000Z</time>
      </trkpt>
      <trkpt lat="48.68865" lon="1.81504">
        <ele>184.19999694824</ele>
        <time>2012-03-27T09:57:07.000Z</time>
      </trkpt>
      <trkpt lat="48.68865" lon="1.81508">
        <ele>184.19999694824</ele>
        <time>2012-03-27T09:57:09.000Z</time>
      </trkpt>
      <trkpt lat="48.68865" lon="1.81515">
        <ele>184</ele>
        <time>2012-03-27T09:57:13.000Z</time>
      </trkpt>
      <trkpt lat="48.68869" lon="1.8153">
        <ele>184.19999694824</ele>
        <time>2012-03-27T09:57:21.000Z</time>
      </trkpt>
      <trkpt lat="48.68869" lon="1.81533">
        <ele>184.19999694824</ele>
        <time>2012-03-27T09:57:22.000Z</time>
      </trkpt>
      <trkpt lat="48.68875" lon="1.81551">
        <ele>184.19999694824</ele>
        <time>2012-03-27T09:57:30.000Z</time>
      </trkpt>
      <trkpt lat="48.68876" lon="1.81557">
        <ele>184.19999694824</ele>
        <time>2012-03-27T09:57:34.000Z</time>
      </trkpt>
      <trkpt lat="48.68877" lon="1.81566">
        <ele>184.19999694824</ele>
        <time>2012-03-27T09:57:38.000Z</time>
      </trkpt>
      <trkpt lat="48.68877" lon="1.81571">
        <ele>184.19999694824</ele>
        <time>2012-03-27T09:57:40.000Z</time>
      </trkpt>
      <trkpt lat="48.68879" lon="1.8158">
        <ele>184.19999694824</ele>
        <time>2012-03-27T09:57:44.000Z</time>
      </trkpt>
      <trkpt lat="48.68884" lon="1.81594">
        <ele>184.19999694824</ele>
        <time>2012-03-27T09:57:51.000Z</time>
      </trkpt>
      <trkpt lat="48.68885" lon="1.81596">
        <ele>184.19999694824</ele>
        <time>2012-03-27T09:57:52.000Z</time>
      </trkpt>
      <trkpt lat="48.68892" lon="1.81615">
        <ele>184.39999389648</ele>
        <time>2012-03-27T09:58:01.000Z</time>
      </trkpt>
      <trkpt lat="48.68896" lon="1.81626">
        <ele>184.39999389648</ele>
        <time>2012-03-27T09:58:07.000Z</time>
      </trkpt>
      <trkpt lat="48.68897" lon="1.8163">
        <ele>184.60000610352</ele>
        <time>2012-03-27T09:58:09.000Z</time>
      </trkpt>
      <trkpt lat="48.68905" lon="1.81649">
        <ele>184.80000305176</ele>
        <time>2012-03-27T09:58:18.000Z</time>
      </trkpt>
      <trkpt lat="48.68907" lon="1.81655">
        <ele>184.80000305176</ele>
        <time>2012-03-27T09:58:21.000Z</time>
      </trkpt>
      <trkpt lat="48.68911" lon="1.81668">
        <ele>185</ele>
        <time>2012-03-27T09:58:27.000Z</time>
      </trkpt>
      <trkpt lat="48.68914" lon="1.81676">
        <ele>185.19999694824</ele>
        <time>2012-03-27T09:58:31.000Z</time>
      </trkpt>
      <trkpt lat="48.68915" lon="1.81683">
        <ele>185.39999389648</ele>
        <time>2012-03-27T09:58:35.000Z</time>
      </trkpt>
      <trkpt lat="48.68919" lon="1.81692">
        <ele>185.60000610352</ele>
        <time>2012-03-27T09:58:40.000Z</time>
      </trkpt>
      <trkpt lat="48.68923" lon="1.81702">
        <ele>186</ele>
        <time>2012-03-27T09:58:46.000Z</time>
      </trkpt>
      <trkpt lat="48.68925" lon="1.81712">
        <ele>186.19999694824</ele>
        <time>2012-03-27T09:58:51.000Z</time>
      </trkpt>
      <trkpt lat="48.68925" lon="1.81714">
        <ele>186.39999389648</ele>
        <time>2012-03-27T09:58:52.000Z</time>
      </trkpt>
      <trkpt lat="48.68925" lon="1.81732">
        <ele>186.80000305176</ele>
        <time>2012-03-27T09:59:01.000Z</time>
      </trkpt>
      <trkpt lat="48.68928" lon="1.81745">
        <ele>187</ele>
        <time>2012-03-27T09:59:08.000Z</time>
      </trkpt>
      <trkpt lat="48.68932" lon="1.8176">
        <ele>187.19999694824</ele>
        <time>2012-03-27T09:59:15.000Z</time>
      </trkpt>
      <trkpt lat="48.68935" lon="1.81769">
        <ele>187.39999389648</ele>
        <time>2012-03-27T09:59:19.000Z</time>
      </trkpt>
      <trkpt lat="48.68937" lon="1.81782">
        <ele>187.60000610352</ele>
        <time>2012-03-27T09:59:26.000Z</time>
      </trkpt>
      <trkpt lat="48.68941" lon="1.81792">
        <ele>187.60000610352</ele>
        <time>2012-03-27T09:59:31.000Z</time>
      </trkpt>
      <trkpt lat="48.68942" lon="1.81793">
        <ele>187.60000610352</ele>
        <time>2012-03-27T09:59:32.000Z</time>
      </trkpt>
      <trkpt lat="48.68946" lon="1.81809">
        <ele>187.80000305176</ele>
        <time>2012-03-27T09:59:41.000Z</time>
      </trkpt>
      <trkpt lat="48.68949" lon="1.81821">
        <ele>188</ele>
        <time>2012-03-27T09:59:47.000Z</time>
      </trkpt>
      <trkpt lat="48.68953" lon="1.81833">
        <ele>188</ele>
        <time>2012-03-27T09:59:54.000Z</time>
      </trkpt>
      <trkpt lat="48.68962" lon="1.81848">
        <ele>187.80000305176</ele>
        <time>2012-03-27T10:00:03.000Z</time>
      </trkpt>
      <trkpt lat="48.68966" lon="1.8186">
        <ele>187.60000610352</ele>
        <time>2012-03-27T10:00:10.000Z</time>
      </trkpt>
      <trkpt lat="48.68973" lon="1.81873">
        <ele>187.39999389648</ele>
        <time>2012-03-27T10:00:17.000Z</time>
      </trkpt>
      <trkpt lat="48.68974" lon="1.81876">
        <ele>187.19999694824</ele>
        <time>2012-03-27T10:00:19.000Z</time>
      </trkpt>
      <trkpt lat="48.68979" lon="1.81887">
        <ele>187</ele>
        <time>2012-03-27T10:00:25.000Z</time>
      </trkpt>
      <trkpt lat="48.68982" lon="1.81899">
        <ele>186.80000305176</ele>
        <time>2012-03-27T10:00:31.000Z</time>
      </trkpt>
      <trkpt lat="48.68985" lon="1.81906">
        <ele>186.60000610352</ele>
        <time>2012-03-27T10:00:35.000Z</time>
      </trkpt>
      <trkpt lat="48.68987" lon="1.8191">
        <ele>186.39999389648</ele>
        <time>2012-03-27T10:00:37.000Z</time>
      </trkpt>
      <trkpt lat="48.68992" lon="1.81924">
        <ele>185.80000305176</ele>
        <time>2012-03-27T10:00:44.000Z</time>
      </trkpt>
      <trkpt lat="48.68997" lon="1.81938">
        <ele>184.80000305176</ele>
        <time>2012-03-27T10:00:51.000Z</time>
      </trkpt>
      <trkpt lat="48.68999" lon="1.81944">
        <ele>184.39999389648</ele>
        <time>2012-03-27T10:00:57.000Z</time>
      </trkpt>
      <trkpt lat="48.69004" lon="1.81953">
        <ele>183.80000305176</ele>
        <time>2012-03-27T10:01:02.000Z</time>
      </trkpt>
      <trkpt lat="48.69005" lon="1.81957">
        <ele>183.39999389648</ele>
        <time>2012-03-27T10:01:04.000Z</time>
      </trkpt>
      <trkpt lat="48.69004" lon="1.81963">
        <ele>183.19999694824</ele>
        <time>2012-03-27T10:01:06.000Z</time>
      </trkpt>
      <trkpt lat="48.69007" lon="1.81975">
        <ele>182.39999389648</ele>
        <time>2012-03-27T10:01:11.000Z</time>
      </trkpt>
      <trkpt lat="48.69018" lon="1.81989">
        <ele>181.19999694824</ele>
        <time>2012-03-27T10:01:20.000Z</time>
      </trkpt>
      <trkpt lat="48.69026" lon="1.81994">
        <ele>180.80000305176</ele>
        <time>2012-03-27T10:01:27.000Z</time>
      </trkpt>
      <trkpt lat="48.69032" lon="1.82004">
        <ele>180.19999694824</ele>
        <time>2012-03-27T10:01:33.000Z</time>
      </trkpt>
      <trkpt lat="48.69039" lon="1.82017">
        <ele>180</ele>
        <time>2012-03-27T10:01:41.000Z</time>
      </trkpt>
      <trkpt lat="48.69048" lon="1.82027">
        <ele>179.80000305176</ele>
        <time>2012-03-27T10:01:49.000Z</time>
      </trkpt>
      <trkpt lat="48.69059" lon="1.8204">
        <ele>179.60000610352</ele>
        <time>2012-03-27T10:01:59.000Z</time>
      </trkpt>
      <trkpt lat="48.69069" lon="1.8205">
        <ele>179.39999389648</ele>
        <time>2012-03-27T10:02:08.000Z</time>
      </trkpt>
      <trkpt lat="48.69077" lon="1.82058">
        <ele>179.19999694824</ele>
        <time>2012-03-27T10:02:15.000Z</time>
      </trkpt>
      <trkpt lat="48.69086" lon="1.82068">
        <ele>179</ele>
        <time>2012-03-27T10:02:23.000Z</time>
      </trkpt>
      <trkpt lat="48.691" lon="1.82082">
        <ele>179.19999694824</ele>
        <time>2012-03-27T10:02:34.000Z</time>
      </trkpt>
      <trkpt lat="48.69109" lon="1.82091">
        <ele>179.39999389648</ele>
        <time>2012-03-27T10:02:42.000Z</time>
      </trkpt>
      <trkpt lat="48.69121" lon="1.82101">
        <ele>179.80000305176</ele>
        <time>2012-03-27T10:02:52.000Z</time>
      </trkpt>
      <trkpt lat="48.69134" lon="1.82112">
        <ele>180</ele>
        <time>2012-03-27T10:03:02.000Z</time>
      </trkpt>
      <trkpt lat="48.69142" lon="1.82122">
        <ele>180.39999389648</ele>
        <time>2012-03-27T10:03:10.000Z</time>
      </trkpt>
      <trkpt lat="48.69142" lon="1.82136">
        <ele>180.60000610352</ele>
        <time>2012-03-27T10:03:18.000Z</time>
      </trkpt>
      <trkpt lat="48.69141" lon="1.82141">
        <ele>180.60000610352</ele>
        <time>2012-03-27T10:03:21.000Z</time>
      </trkpt>
      <trkpt lat="48.69138" lon="1.82153">
        <ele>180.80000305176</ele>
        <time>2012-03-27T10:03:27.000Z</time>
      </trkpt>
      <trkpt lat="48.69135" lon="1.82169">
        <ele>181</ele>
        <time>2012-03-27T10:03:35.000Z</time>
      </trkpt>
      <trkpt lat="48.6913" lon="1.82189">
        <ele>180.80000305176</ele>
        <time>2012-03-27T10:03:45.000Z</time>
      </trkpt>
      <trkpt lat="48.69128" lon="1.82198">
        <ele>180.60000610352</ele>
        <time>2012-03-27T10:03:51.000Z</time>
      </trkpt>
      <trkpt lat="48.69122" lon="1.82214">
        <ele>180.39999389648</ele>
        <time>2012-03-27T10:03:59.000Z</time>
      </trkpt>
      <trkpt lat="48.69115" lon="1.82232">
        <ele>180.19999694824</ele>
        <time>2012-03-27T10:04:08.000Z</time>
      </trkpt>
      <trkpt lat="48.69112" lon="1.82251">
        <ele>180</ele>
        <time>2012-03-27T10:04:17.000Z</time>
      </trkpt>
      <trkpt lat="48.69108" lon="1.82269">
        <ele>179.80000305176</ele>
        <time>2012-03-27T10:04:26.000Z</time>
      </trkpt>
      <trkpt lat="48.69102" lon="1.82284">
        <ele>179.60000610352</ele>
        <time>2012-03-27T10:04:35.000Z</time>
      </trkpt>
      <trkpt lat="48.69102" lon="1.82285">
        <ele>179.60000610352</ele>
        <time>2012-03-27T10:04:37.000Z</time>
      </trkpt>
      <trkpt lat="48.69101" lon="1.82294">
        <ele>179.39999389648</ele>
        <time>2012-03-27T10:04:44.000Z</time>
      </trkpt>
      <trkpt lat="48.69104" lon="1.82304">
        <ele>179.39999389648</ele>
        <time>2012-03-27T10:04:47.000Z</time>
      </trkpt>
      <trkpt lat="48.69114" lon="1.82324">
        <ele>179.19999694824</ele>
        <time>2012-03-27T10:04:58.000Z</time>
      </trkpt>
      <trkpt lat="48.69122" lon="1.82338">
        <ele>179</ele>
        <time>2012-03-27T10:05:06.000Z</time>
      </trkpt>
      <trkpt lat="48.69127" lon="1.8235">
        <ele>179</ele>
        <time>2012-03-27T10:05:12.000Z</time>
      </trkpt>
      <trkpt lat="48.69131" lon="1.8236">
        <ele>179</ele>
        <time>2012-03-27T10:05:18.000Z</time>
      </trkpt>
      <trkpt lat="48.69137" lon="1.82371">
        <ele>179</ele>
        <time>2012-03-27T10:05:25.000Z</time>
      </trkpt>
      <trkpt lat="48.69144" lon="1.82387">
        <ele>179</ele>
        <time>2012-03-27T10:05:34.000Z</time>
      </trkpt>
      <trkpt lat="48.69152" lon="1.82402">
        <ele>179</ele>
        <time>2012-03-27T10:05:43.000Z</time>
      </trkpt>
      <trkpt lat="48.69161" lon="1.82419">
        <ele>179</ele>
        <time>2012-03-27T10:05:53.000Z</time>
      </trkpt>
      <trkpt lat="48.69165" lon="1.82429">
        <ele>179</ele>
        <time>2012-03-27T10:05:58.000Z</time>
      </trkpt>
      <trkpt lat="48.69177" lon="1.82452">
        <ele>179.19999694824</ele>
        <time>2012-03-27T10:06:10.000Z</time>
      </trkpt>
      <trkpt lat="48.69186" lon="1.82469">
        <ele>179.60000610352</ele>
        <time>2012-03-27T10:06:20.000Z</time>
      </trkpt>
      <trkpt lat="48.69192" lon="1.82482">
        <ele>179.80000305176</ele>
        <time>2012-03-27T10:06:28.000Z</time>
      </trkpt>
      <trkpt lat="48.69203" lon="1.82503">
        <ele>180.39999389648</ele>
        <time>2012-03-27T10:06:40.000Z</time>
      </trkpt>
      <trkpt lat="48.69209" lon="1.82515">
        <ele>180.60000610352</ele>
        <time>2012-03-27T10:06:48.000Z</time>
      </trkpt>
      <trkpt lat="48.69213" lon="1.82525">
        <ele>180.60000610352</ele>
        <time>2012-03-27T10:06:54.000Z</time>
      </trkpt>
      <trkpt lat="48.69214" lon="1.82538">
        <ele>180.80000305176</ele>
        <time>2012-03-27T10:07:01.000Z</time>
      </trkpt>
      <trkpt lat="48.69219" lon="1.82553">
        <ele>180.80000305176</ele>
        <time>2012-03-27T10:07:09.000Z</time>
      </trkpt>
      <trkpt lat="48.69223" lon="1.82566">
        <ele>181</ele>
        <time>2012-03-27T10:07:16.000Z</time>
      </trkpt>
      <trkpt lat="48.69228" lon="1.82586">
        <ele>181.19999694824</ele>
        <time>2012-03-27T10:07:26.000Z</time>
      </trkpt>
      <trkpt lat="48.69234" lon="1.82603">
        <ele>181.19999694824</ele>
        <time>2012-03-27T10:07:35.000Z</time>
      </trkpt>
      <trkpt lat="48.69239" lon="1.82619">
        <ele>181.19999694824</ele>
        <time>2012-03-27T10:07:43.000Z</time>
      </trkpt>
      <trkpt lat="48.69244" lon="1.82632">
        <ele>181.19999694824</ele>
        <time>2012-03-27T10:07:50.000Z</time>
      </trkpt>
      <trkpt lat="48.69249" lon="1.82643">
        <ele>181.19999694824</ele>
        <time>2012-03-27T10:07:56.000Z</time>
      </trkpt>
      <trkpt lat="48.69255" lon="1.82655">
        <ele>181</ele>
        <time>2012-03-27T10:08:04.000Z</time>
      </trkpt>
      <trkpt lat="48.69256" lon="1.82656">
        <ele>181</ele>
        <time>2012-03-27T10:08:08.000Z</time>
      </trkpt>
      <trkpt lat="48.69263" lon="1.82664">
        <ele>180.80000305176</ele>
        <time>2012-03-27T10:08:31.000Z</time>
      </trkpt>
      <trkpt lat="48.69271" lon="1.82678">
        <ele>180.60000610352</ele>
        <time>2012-03-27T10:08:38.000Z</time>
      </trkpt>
      <trkpt lat="48.69277" lon="1.82691">
        <ele>180.39999389648</ele>
        <time>2012-03-27T10:08:46.000Z</time>
      </trkpt>
      <trkpt lat="48.69281" lon="1.82704">
        <ele>180.19999694824</ele>
        <time>2012-03-27T10:08:53.000Z</time>
      </trkpt>
      <trkpt lat="48.69287" lon="1.8272">
        <ele>180</ele>
        <time>2012-03-27T10:09:02.000Z</time>
      </trkpt>
      <trkpt lat="48.69293" lon="1.82734">
        <ele>179.60000610352</ele>
        <time>2012-03-27T10:09:10.000Z</time>
      </trkpt>
      <trkpt lat="48.69296" lon="1.82747">
        <ele>179.39999389648</ele>
        <time>2012-03-27T10:09:17.000Z</time>
      </trkpt>
      <trkpt lat="48.69298" lon="1.82752">
        <ele>179.39999389648</ele>
        <time>2012-03-27T10:09:23.000Z</time>
      </trkpt>
      <trkpt lat="48.69299" lon="1.8276">
        <ele>179.39999389648</ele>
        <time>2012-03-27T10:09:29.000Z</time>
      </trkpt>
      <trkpt lat="48.693" lon="1.82778">
        <ele>179.60000610352</ele>
        <time>2012-03-27T10:09:36.000Z</time>
      </trkpt>
      <trkpt lat="48.69301" lon="1.82791">
        <ele>179.60000610352</ele>
        <time>2012-03-27T10:09:42.000Z</time>
      </trkpt>
      <trkpt lat="48.69305" lon="1.82802">
        <ele>179.80000305176</ele>
        <time>2012-03-27T10:09:48.000Z</time>
      </trkpt>
      <trkpt lat="48.69307" lon="1.82822">
        <ele>180</ele>
        <time>2012-03-27T10:09:57.000Z</time>
      </trkpt>
      <trkpt lat="48.69309" lon="1.82835">
        <ele>180</ele>
        <time>2012-03-27T10:10:03.000Z</time>
      </trkpt>
      <trkpt lat="48.69312" lon="1.82848">
        <ele>180</ele>
        <time>2012-03-27T10:10:10.000Z</time>
      </trkpt>
      <trkpt lat="48.69319" lon="1.82861">
        <ele>179.80000305176</ele>
        <time>2012-03-27T10:10:18.000Z</time>
      </trkpt>
      <trkpt lat="48.69329" lon="1.82877">
        <ele>180</ele>
        <time>2012-03-27T10:10:28.000Z</time>
      </trkpt>
      <trkpt lat="48.69334" lon="1.82885">
        <ele>180</ele>
        <time>2012-03-27T10:10:33.000Z</time>
      </trkpt>
      <trkpt lat="48.69343" lon="1.82899">
        <ele>180.19999694824</ele>
        <time>2012-03-27T10:10:42.000Z</time>
      </trkpt>
      <trkpt lat="48.69348" lon="1.82909">
        <ele>180.19999694824</ele>
        <time>2012-03-27T10:10:48.000Z</time>
      </trkpt>
      <trkpt lat="48.69359" lon="1.82927">
        <ele>180.19999694824</ele>
        <time>2012-03-27T10:10:59.000Z</time>
      </trkpt>
      <trkpt lat="48.69366" lon="1.82936">
        <ele>180.19999694824</ele>
        <time>2012-03-27T10:11:06.000Z</time>
      </trkpt>
      <trkpt lat="48.69374" lon="1.82953">
        <ele>180.19999694824</ele>
        <time>2012-03-27T10:11:16.000Z</time>
      </trkpt>
      <trkpt lat="48.69384" lon="1.82974">
        <ele>180.39999389648</ele>
        <time>2012-03-27T10:11:28.000Z</time>
      </trkpt>
      <trkpt lat="48.6939" lon="1.82987">
        <ele>180.39999389648</ele>
        <time>2012-03-27T10:11:35.000Z</time>
      </trkpt>
      <trkpt lat="48.69394" lon="1.83">
        <ele>180.39999389648</ele>
        <time>2012-03-27T10:11:42.000Z</time>
      </trkpt>
      <trkpt lat="48.69401" lon="1.83018">
        <ele>180.60000610352</ele>
        <time>2012-03-27T10:11:52.000Z</time>
      </trkpt>
      <trkpt lat="48.69408" lon="1.83039">
        <ele>180.80000305176</ele>
        <time>2012-03-27T10:12:03.000Z</time>
      </trkpt>
      <trkpt lat="48.69414" lon="1.83056">
        <ele>181</ele>
        <time>2012-03-27T10:12:12.000Z</time>
      </trkpt>
      <trkpt lat="48.69421" lon="1.83078">
        <ele>181</ele>
        <time>2012-03-27T10:12:23.000Z</time>
      </trkpt>
      <trkpt lat="48.69427" lon="1.83091">
        <ele>180.80000305176</ele>
        <time>2012-03-27T10:12:31.000Z</time>
      </trkpt>
      <trkpt lat="48.69433" lon="1.83105">
        <ele>180.80000305176</ele>
        <time>2012-03-27T10:12:39.000Z</time>
      </trkpt>
      <trkpt lat="48.69442" lon="1.83123">
        <ele>180.60000610352</ele>
        <time>2012-03-27T10:12:50.000Z</time>
      </trkpt>
      <trkpt lat="48.6945" lon="1.83138">
        <ele>180.60000610352</ele>
        <time>2012-03-27T10:12:59.000Z</time>
      </trkpt>
      <trkpt lat="48.69455" lon="1.83149">
        <ele>180.60000610352</ele>
        <time>2012-03-27T10:13:06.000Z</time>
      </trkpt>
      <trkpt lat="48.69457" lon="1.83159">
        <ele>180.60000610352</ele>
        <time>2012-03-27T10:13:11.000Z</time>
      </trkpt>
      <trkpt lat="48.6946" lon="1.8317">
        <ele>180.39999389648</ele>
        <time>2012-03-27T10:13:17.000Z</time>
      </trkpt>
      <trkpt lat="48.69462" lon="1.83185">
        <ele>180.19999694824</ele>
        <time>2012-03-27T10:13:24.000Z</time>
      </trkpt>
      <trkpt lat="48.69464" lon="1.83201">
        <ele>180</ele>
        <time>2012-03-27T10:13:32.000Z</time>
      </trkpt>
      <trkpt lat="48.69467" lon="1.83217">
        <ele>180</ele>
        <time>2012-03-27T10:13:40.000Z</time>
      </trkpt>
      <trkpt lat="48.69472" lon="1.83235">
        <ele>179.80000305176</ele>
        <time>2012-03-27T10:13:49.000Z</time>
      </trkpt>
      <trkpt lat="48.69477" lon="1.83252">
        <ele>179.60000610352</ele>
        <time>2012-03-27T10:13:57.000Z</time>
      </trkpt>
      <trkpt lat="48.6948" lon="1.83265">
        <ele>179.39999389648</ele>
        <time>2012-03-27T10:14:03.000Z</time>
      </trkpt>
      <trkpt lat="48.69484" lon="1.83285">
        <ele>179</ele>
        <time>2012-03-27T10:14:12.000Z</time>
      </trkpt>
      <trkpt lat="48.69487" lon="1.83295">
        <ele>178.80000305176</ele>
        <time>2012-03-27T10:14:17.000Z</time>
      </trkpt>
      <trkpt lat="48.69492" lon="1.83312">
        <ele>178.39999389648</ele>
        <time>2012-03-27T10:14:25.000Z</time>
      </trkpt>
      <trkpt lat="48.69496" lon="1.83326">
        <ele>178.19999694824</ele>
        <time>2012-03-27T10:14:33.000Z</time>
      </trkpt>
      <trkpt lat="48.69499" lon="1.83337">
        <ele>178</ele>
        <time>2012-03-27T10:14:38.000Z</time>
      </trkpt>
      <trkpt lat="48.69499" lon="1.83347">
        <ele>178</ele>
        <time>2012-03-27T10:14:44.000Z</time>
      </trkpt>
      <trkpt lat="48.69499" lon="1.83347">
        <ele>178</ele>
        <time>2012-03-27T10:14:45.000Z</time>
      </trkpt>
      <trkpt lat="48.69502" lon="1.83356">
        <ele>178</ele>
        <time>2012-03-27T10:15:14.000Z</time>
      </trkpt>
      <trkpt lat="48.69506" lon="1.83372">
        <ele>178</ele>
        <time>2012-03-27T10:15:21.000Z</time>
      </trkpt>
      <trkpt lat="48.69511" lon="1.83384">
        <ele>178</ele>
        <time>2012-03-27T10:15:28.000Z</time>
      </trkpt>
      <trkpt lat="48.69516" lon="1.83401">
        <ele>178.19999694824</ele>
        <time>2012-03-27T10:15:36.000Z</time>
      </trkpt>
      <trkpt lat="48.6952" lon="1.83417">
        <ele>178.19999694824</ele>
        <time>2012-03-27T10:15:44.000Z</time>
      </trkpt>
      <trkpt lat="48.69525" lon="1.83431">
        <ele>178.19999694824</ele>
        <time>2012-03-27T10:15:52.000Z</time>
      </trkpt>
      <trkpt lat="48.69528" lon="1.83443">
        <ele>178.19999694824</ele>
        <time>2012-03-27T10:15:58.000Z</time>
      </trkpt>
      <trkpt lat="48.69532" lon="1.83463">
        <ele>178.19999694824</ele>
        <time>2012-03-27T10:16:08.000Z</time>
      </trkpt>
      <trkpt lat="48.69536" lon="1.8348">
        <ele>178.19999694824</ele>
        <time>2012-03-27T10:16:16.000Z</time>
      </trkpt>
      <trkpt lat="48.6954" lon="1.83495">
        <ele>178</ele>
        <time>2012-03-27T10:16:24.000Z</time>
      </trkpt>
      <trkpt lat="48.69547" lon="1.83522">
        <ele>177.80000305176</ele>
        <time>2012-03-27T10:16:37.000Z</time>
      </trkpt>
      <trkpt lat="48.69549" lon="1.83529">
        <ele>177.80000305176</ele>
        <time>2012-03-27T10:16:41.000Z</time>
      </trkpt>
      <trkpt lat="48.6955" lon="1.83539">
        <ele>177.80000305176</ele>
        <time>2012-03-27T10:16:48.000Z</time>
      </trkpt>
      <trkpt lat="48.69551" lon="1.8355">
        <ele>177.80000305176</ele>
        <time>2012-03-27T10:16:54.000Z</time>
      </trkpt>
      <trkpt lat="48.69552" lon="1.83551">
        <ele>177.80000305176</ele>
        <time>2012-03-27T10:16:55.000Z</time>
      </trkpt>
      <trkpt lat="48.69558" lon="1.83562">
        <ele>177.80000305176</ele>
        <time>2012-03-27T10:17:02.000Z</time>
      </trkpt>
      <trkpt lat="48.69559" lon="1.83566">
        <ele>177.80000305176</ele>
        <time>2012-03-27T10:17:04.000Z</time>
      </trkpt>
      <trkpt lat="48.69563" lon="1.83578">
        <ele>177.80000305176</ele>
        <time>2012-03-27T10:17:10.000Z</time>
      </trkpt>
      <trkpt lat="48.69567" lon="1.83603">
        <ele>177.60000610352</ele>
        <time>2012-03-27T10:17:21.000Z</time>
      </trkpt>
      <trkpt lat="48.69571" lon="1.8362">
        <ele>177.39999389648</ele>
        <time>2012-03-27T10:17:29.000Z</time>
      </trkpt>
      <trkpt lat="48.69573" lon="1.83632">
        <ele>177.19999694824</ele>
        <time>2012-03-27T10:17:35.000Z</time>
      </trkpt>
      <trkpt lat="48.69574" lon="1.83646">
        <ele>177.19999694824</ele>
        <time>2012-03-27T10:17:42.000Z</time>
      </trkpt>
      <trkpt lat="48.6958" lon="1.8366">
        <ele>177</ele>
        <time>2012-03-27T10:17:50.000Z</time>
      </trkpt>
      <trkpt lat="48.69585" lon="1.83679">
        <ele>177</ele>
        <time>2012-03-27T10:17:59.000Z</time>
      </trkpt>
      <trkpt lat="48.69589" lon="1.8369">
        <ele>177</ele>
        <time>2012-03-27T10:18:05.000Z</time>
      </trkpt>
      <trkpt lat="48.69594" lon="1.83704">
        <ele>177</ele>
        <time>2012-03-27T10:18:12.000Z</time>
      </trkpt>
      <trkpt lat="48.69603" lon="1.83731">
        <ele>177</ele>
        <time>2012-03-27T10:18:25.000Z</time>
      </trkpt>
      <trkpt lat="48.69609" lon="1.83747">
        <ele>177</ele>
        <time>2012-03-27T10:18:33.000Z</time>
      </trkpt>
      <trkpt lat="48.69614" lon="1.83759">
        <ele>177</ele>
        <time>2012-03-27T10:18:40.000Z</time>
      </trkpt>
      <trkpt lat="48.69619" lon="1.83769">
        <ele>176.80000305176</ele>
        <time>2012-03-27T10:18:46.000Z</time>
      </trkpt>
      <trkpt lat="48.69626" lon="1.83783">
        <ele>176.80000305176</ele>
        <time>2012-03-27T10:18:54.000Z</time>
      </trkpt>
      <trkpt lat="48.69627" lon="1.83787">
        <ele>176.80000305176</ele>
        <time>2012-03-27T10:18:56.000Z</time>
      </trkpt>
      <trkpt lat="48.69631" lon="1.83795">
        <ele>176.80000305176</ele>
        <time>2012-03-27T10:19:00.000Z</time>
      </trkpt>
      <trkpt lat="48.69637" lon="1.83808">
        <ele>176.80000305176</ele>
        <time>2012-03-27T10:19:07.000Z</time>
      </trkpt>
      <trkpt lat="48.69644" lon="1.83822">
        <ele>176.80000305176</ele>
        <time>2012-03-27T10:19:15.000Z</time>
      </trkpt>
      <trkpt lat="48.69651" lon="1.83836">
        <ele>176.80000305176</ele>
        <time>2012-03-27T10:19:23.000Z</time>
      </trkpt>
      <trkpt lat="48.69657" lon="1.83848">
        <ele>176.80000305176</ele>
        <time>2012-03-27T10:19:30.000Z</time>
      </trkpt>
      <trkpt lat="48.69663" lon="1.83862">
        <ele>176.60000610352</ele>
        <time>2012-03-27T10:19:38.000Z</time>
      </trkpt>
      <trkpt lat="48.69668" lon="1.83872">
        <ele>176.60000610352</ele>
        <time>2012-03-27T10:19:44.000Z</time>
      </trkpt>
      <trkpt lat="48.69669" lon="1.83876">
        <ele>176.39999389648</ele>
        <time>2012-03-27T10:19:46.000Z</time>
      </trkpt>
      <trkpt lat="48.69671" lon="1.83877">
        <ele>176.39999389648</ele>
        <time>2012-03-27T10:19:49.000Z</time>
      </trkpt>
      <trkpt lat="48.69676" lon="1.83886">
        <ele>176.39999389648</ele>
        <time>2012-03-27T10:19:56.000Z</time>
      </trkpt>
      <trkpt lat="48.69683" lon="1.83898">
        <ele>176.19999694824</ele>
        <time>2012-03-27T10:20:04.000Z</time>
      </trkpt>
      <trkpt lat="48.6969" lon="1.83916">
        <ele>176</ele>
        <time>2012-03-27T10:20:13.000Z</time>
      </trkpt>
      <trkpt lat="48.69696" lon="1.83932">
        <ele>175.80000305176</ele>
        <time>2012-03-27T10:20:21.000Z</time>
      </trkpt>
      <trkpt lat="48.69699" lon="1.8394">
        <ele>175.80000305176</ele>
        <time>2012-03-27T10:20:26.000Z</time>
      </trkpt>
      <trkpt lat="48.69704" lon="1.83952">
        <ele>175.60000610352</ele>
        <time>2012-03-27T10:20:32.000Z</time>
      </trkpt>
      <trkpt lat="48.69711" lon="1.83973">
        <ele>175.39999389648</ele>
        <time>2012-03-27T10:20:43.000Z</time>
      </trkpt>
      <trkpt lat="48.69715" lon="1.83983">
        <ele>175.19999694824</ele>
        <time>2012-03-27T10:20:48.000Z</time>
      </trkpt>
      <trkpt lat="48.69722" lon="1.84">
        <ele>175</ele>
        <time>2012-03-27T10:20:57.000Z</time>
      </trkpt>
      <trkpt lat="48.69727" lon="1.84016">
        <ele>175</ele>
        <time>2012-03-27T10:21:05.000Z</time>
      </trkpt>
      <trkpt lat="48.69732" lon="1.84027">
        <ele>175</ele>
        <time>2012-03-27T10:21:11.000Z</time>
      </trkpt>
      <trkpt lat="48.69734" lon="1.84035">
        <ele>175</ele>
        <time>2012-03-27T10:21:16.000Z</time>
      </trkpt>
      <trkpt lat="48.69735" lon="1.84046">
        <ele>175</ele>
        <time>2012-03-27T10:21:22.000Z</time>
      </trkpt>
      <trkpt lat="48.69737" lon="1.84073">
        <ele>175</ele>
        <time>2012-03-27T10:21:35.000Z</time>
      </trkpt>
      <trkpt lat="48.69737" lon="1.84087">
        <ele>175</ele>
        <time>2012-03-27T10:21:41.000Z</time>
      </trkpt>
      <trkpt lat="48.69736" lon="1.84105">
        <ele>175</ele>
        <time>2012-03-27T10:21:50.000Z</time>
      </trkpt>
      <trkpt lat="48.6974" lon="1.84119">
        <ele>175</ele>
        <time>2012-03-27T10:21:58.000Z</time>
      </trkpt>
      <trkpt lat="48.69746" lon="1.84135">
        <ele>175</ele>
        <time>2012-03-27T10:22:06.000Z</time>
      </trkpt>
      <trkpt lat="48.6975" lon="1.84148">
        <ele>175</ele>
        <time>2012-03-27T10:22:13.000Z</time>
      </trkpt>
      <trkpt lat="48.69754" lon="1.84166">
        <ele>175</ele>
        <time>2012-03-27T10:22:22.000Z</time>
      </trkpt>
      <trkpt lat="48.69757" lon="1.8418">
        <ele>174.80000305176</ele>
        <time>2012-03-27T10:22:29.000Z</time>
      </trkpt>
      <trkpt lat="48.69758" lon="1.84192">
        <ele>174.60000610352</ele>
        <time>2012-03-27T10:22:35.000Z</time>
      </trkpt>
      <trkpt lat="48.6976" lon="1.84207">
        <ele>174.39999389648</ele>
        <time>2012-03-27T10:22:43.000Z</time>
      </trkpt>
      <trkpt lat="48.69761" lon="1.84208">
        <ele>174.39999389648</ele>
        <time>2012-03-27T10:22:46.000Z</time>
      </trkpt>
      <trkpt lat="48.69761" lon="1.84213">
        <ele>174.39999389648</ele>
        <time>2012-03-27T10:22:51.000Z</time>
      </trkpt>
      <trkpt lat="48.69766" lon="1.84243">
        <ele>174</ele>
        <time>2012-03-27T10:22:57.000Z</time>
      </trkpt>
      <trkpt lat="48.69769" lon="1.84259">
        <ele>174</ele>
        <time>2012-03-27T10:23:05.000Z</time>
      </trkpt>
      <trkpt lat="48.69772" lon="1.84276">
        <ele>174</ele>
        <time>2012-03-27T10:23:13.000Z</time>
      </trkpt>
      <trkpt lat="48.69775" lon="1.84294">
        <ele>174</ele>
        <time>2012-03-27T10:23:20.000Z</time>
      </trkpt>
      <trkpt lat="48.69778" lon="1.84312">
        <ele>174</ele>
        <time>2012-03-27T10:23:26.000Z</time>
      </trkpt>
      <trkpt lat="48.69781" lon="1.84329">
        <ele>174</ele>
        <time>2012-03-27T10:23:33.000Z</time>
      </trkpt>
      <trkpt lat="48.69785" lon="1.84349">
        <ele>174</ele>
        <time>2012-03-27T10:23:42.000Z</time>
      </trkpt>
      <trkpt lat="48.69788" lon="1.84366">
        <ele>174</ele>
        <time>2012-03-27T10:23:50.000Z</time>
      </trkpt>
      <trkpt lat="48.6979" lon="1.84386">
        <ele>174</ele>
        <time>2012-03-27T10:23:59.000Z</time>
      </trkpt>
      <trkpt lat="48.69793" lon="1.844">
        <ele>174</ele>
        <time>2012-03-27T10:24:06.000Z</time>
      </trkpt>
      <trkpt lat="48.69795" lon="1.84413">
        <ele>174</ele>
        <time>2012-03-27T10:24:12.000Z</time>
      </trkpt>
      <trkpt lat="48.69796" lon="1.84429">
        <ele>173.60000610352</ele>
        <time>2012-03-27T10:24:18.000Z</time>
      </trkpt>
      <trkpt lat="48.69797" lon="1.84441">
        <ele>173.39999389648</ele>
        <time>2012-03-27T10:24:23.000Z</time>
      </trkpt>
      <trkpt lat="48.698" lon="1.8447">
        <ele>173</ele>
        <time>2012-03-27T10:24:36.000Z</time>
      </trkpt>
      <trkpt lat="48.69802" lon="1.8449">
        <ele>172.60000610352</ele>
        <time>2012-03-27T10:24:45.000Z</time>
      </trkpt>
      <trkpt lat="48.69806" lon="1.84513">
        <ele>172.39999389648</ele>
        <time>2012-03-27T10:24:55.000Z</time>
      </trkpt>
      <trkpt lat="48.6981" lon="1.84544">
        <ele>172.60000610352</ele>
        <time>2012-03-27T10:25:08.000Z</time>
      </trkpt>
      <trkpt lat="48.69811" lon="1.84556">
        <ele>172.80000305176</ele>
        <time>2012-03-27T10:25:14.000Z</time>
      </trkpt>
      <trkpt lat="48.69814" lon="1.84569">
        <ele>172.80000305176</ele>
        <time>2012-03-27T10:25:19.000Z</time>
      </trkpt>
      <trkpt lat="48.69818" lon="1.84583">
        <ele>173</ele>
        <time>2012-03-27T10:25:26.000Z</time>
      </trkpt>
      <trkpt lat="48.69826" lon="1.84593">
        <ele>173.19999694824</ele>
        <time>2012-03-27T10:25:33.000Z</time>
      </trkpt>
      <trkpt lat="48.69836" lon="1.84599">
        <ele>173.39999389648</ele>
        <time>2012-03-27T10:25:39.000Z</time>
      </trkpt>
      <trkpt lat="48.69848" lon="1.84606">
        <ele>173.39999389648</ele>
        <time>2012-03-27T10:25:47.000Z</time>
      </trkpt>
      <trkpt lat="48.69861" lon="1.84613">
        <ele>173.60000610352</ele>
        <time>2012-03-27T10:25:56.000Z</time>
      </trkpt>
      <trkpt lat="48.69868" lon="1.84621">
        <ele>173.80000305176</ele>
        <time>2012-03-27T10:26:02.000Z</time>
      </trkpt>
      <trkpt lat="48.69882" lon="1.84629">
        <ele>173.80000305176</ele>
        <time>2012-03-27T10:26:12.000Z</time>
      </trkpt>
      <trkpt lat="48.69895" lon="1.84636">
        <ele>173.80000305176</ele>
        <time>2012-03-27T10:26:21.000Z</time>
      </trkpt>
      <trkpt lat="48.69908" lon="1.84646">
        <ele>173.80000305176</ele>
        <time>2012-03-27T10:26:31.000Z</time>
      </trkpt>
      <trkpt lat="48.69924" lon="1.84657">
        <ele>173.80000305176</ele>
        <time>2012-03-27T10:26:41.000Z</time>
      </trkpt>
      <trkpt lat="48.69939" lon="1.84667">
        <ele>173.39999389648</ele>
        <time>2012-03-27T10:26:52.000Z</time>
      </trkpt>
      <trkpt lat="48.69957" lon="1.84679">
        <ele>173.39999389648</ele>
        <time>2012-03-27T10:27:04.000Z</time>
      </trkpt>
      <trkpt lat="48.69971" lon="1.8469">
        <ele>173.19999694824</ele>
        <time>2012-03-27T10:27:14.000Z</time>
      </trkpt>
      <trkpt lat="48.69989" lon="1.84705">
        <ele>173.19999694824</ele>
        <time>2012-03-27T10:27:27.000Z</time>
      </trkpt>
      <trkpt lat="48.70006" lon="1.84719">
        <ele>173.39999389648</ele>
        <time>2012-03-27T10:27:39.000Z</time>
      </trkpt>
      <trkpt lat="48.70025" lon="1.84734">
        <ele>174</ele>
        <time>2012-03-27T10:27:52.000Z</time>
      </trkpt>
      <trkpt lat="48.70034" lon="1.84741">
        <ele>174.19999694824</ele>
        <time>2012-03-27T10:27:58.000Z</time>
      </trkpt>
      <trkpt lat="48.70051" lon="1.84755">
        <ele>174.60000610352</ele>
        <time>2012-03-27T10:28:10.000Z</time>
      </trkpt>
      <trkpt lat="48.70066" lon="1.84767">
        <ele>174.80000305176</ele>
        <time>2012-03-27T10:28:20.000Z</time>
      </trkpt>
      <trkpt lat="48.70079" lon="1.84767">
        <ele>175</ele>
        <time>2012-03-27T10:28:28.000Z</time>
      </trkpt>
      <trkpt lat="48.70095" lon="1.84757">
        <ele>175.19999694824</ele>
        <time>2012-03-27T10:28:38.000Z</time>
      </trkpt>
      <trkpt lat="48.70096" lon="1.84756">
        <ele>175.19999694824</ele>
        <time>2012-03-27T10:28:39.000Z</time>
      </trkpt>
      <trkpt lat="48.701" lon="1.84756">
        <ele>175.19999694824</ele>
        <time>2012-03-27T10:28:42.000Z</time>
      </trkpt>
      <trkpt lat="48.70112" lon="1.84752">
        <ele>175.39999389648</ele>
        <time>2012-03-27T10:28:49.000Z</time>
      </trkpt>
      <trkpt lat="48.70124" lon="1.84744">
        <ele>175.39999389648</ele>
        <time>2012-03-27T10:28:56.000Z</time>
      </trkpt>
      <trkpt lat="48.70133" lon="1.84739">
        <ele>175.39999389648</ele>
        <time>2012-03-27T10:29:02.000Z</time>
      </trkpt>
      <trkpt lat="48.70146" lon="1.8473">
        <ele>175.60000610352</ele>
        <time>2012-03-27T10:29:10.000Z</time>
      </trkpt>
      <trkpt lat="48.70154" lon="1.84725">
        <ele>175.60000610352</ele>
        <time>2012-03-27T10:29:15.000Z</time>
      </trkpt>
      <trkpt lat="48.70165" lon="1.84717">
        <ele>175.60000610352</ele>
        <time>2012-03-27T10:29:22.000Z</time>
      </trkpt>
      <trkpt lat="48.70176" lon="1.84708">
        <ele>175.39999389648</ele>
        <time>2012-03-27T10:29:29.000Z</time>
      </trkpt>
      <trkpt lat="48.70185" lon="1.84699">
        <ele>175.19999694824</ele>
        <time>2012-03-27T10:29:35.000Z</time>
      </trkpt>
      <trkpt lat="48.702" lon="1.84681">
        <ele>174.80000305176</ele>
        <time>2012-03-27T10:29:46.000Z</time>
      </trkpt>
      <trkpt lat="48.7021" lon="1.84668">
        <ele>174.39999389648</ele>
        <time>2012-03-27T10:29:53.000Z</time>
      </trkpt>
      <trkpt lat="48.70219" lon="1.84654">
        <ele>174.60000610352</ele>
        <time>2012-03-27T10:30:00.000Z</time>
      </trkpt>
      <trkpt lat="48.70227" lon="1.8464">
        <ele>174.60000610352</ele>
        <time>2012-03-27T10:30:07.000Z</time>
      </trkpt>
      <trkpt lat="48.70234" lon="1.84627">
        <ele>174.80000305176</ele>
        <time>2012-03-27T10:30:13.000Z</time>
      </trkpt>
      <trkpt lat="48.70238" lon="1.84618">
        <ele>175</ele>
        <time>2012-03-27T10:30:18.000Z</time>
      </trkpt>
      <trkpt lat="48.70243" lon="1.8461">
        <ele>175.19999694824</ele>
        <time>2012-03-27T10:30:23.000Z</time>
      </trkpt>
      <trkpt lat="48.70251" lon="1.84592">
        <ele>175.80000305176</ele>
        <time>2012-03-27T10:30:31.000Z</time>
      </trkpt>
      <trkpt lat="48.70258" lon="1.84579">
        <ele>176</ele>
        <time>2012-03-27T10:30:37.000Z</time>
      </trkpt>
      <trkpt lat="48.70261" lon="1.84573">
        <ele>175.80000305176</ele>
        <time>2012-03-27T10:30:40.000Z</time>
      </trkpt>
      <trkpt lat="48.70269" lon="1.84557">
        <ele>175.80000305176</ele>
        <time>2012-03-27T10:30:48.000Z</time>
      </trkpt>
      <trkpt lat="48.70276" lon="1.84542">
        <ele>175.60000610352</ele>
        <time>2012-03-27T10:30:56.000Z</time>
      </trkpt>
      <trkpt lat="48.70282" lon="1.84531">
        <ele>175.60000610352</ele>
        <time>2012-03-27T10:31:02.000Z</time>
      </trkpt>
      <trkpt lat="48.70289" lon="1.84515">
        <ele>175.60000610352</ele>
        <time>2012-03-27T10:31:10.000Z</time>
      </trkpt>
      <trkpt lat="48.70295" lon="1.84503">
        <ele>175.60000610352</ele>
        <time>2012-03-27T10:31:16.000Z</time>
      </trkpt>
      <trkpt lat="48.70301" lon="1.84489">
        <ele>175.60000610352</ele>
        <time>2012-03-27T10:31:23.000Z</time>
      </trkpt>
      <trkpt lat="48.70307" lon="1.84478">
        <ele>175.80000305176</ele>
        <time>2012-03-27T10:31:29.000Z</time>
      </trkpt>
      <trkpt lat="48.7031" lon="1.84472">
        <ele>175.80000305176</ele>
        <time>2012-03-27T10:31:34.000Z</time>
      </trkpt>
      <trkpt lat="48.70315" lon="1.8446">
        <ele>175.80000305176</ele>
        <time>2012-03-27T10:31:40.000Z</time>
      </trkpt>
      <trkpt lat="48.70322" lon="1.84443">
        <ele>176</ele>
        <time>2012-03-27T10:31:48.000Z</time>
      </trkpt>
      <trkpt lat="48.70329" lon="1.84427">
        <ele>176</ele>
        <time>2012-03-27T10:31:56.000Z</time>
      </trkpt>
      <trkpt lat="48.70338" lon="1.84407">
        <ele>176</ele>
        <time>2012-03-27T10:32:06.000Z</time>
      </trkpt>
      <trkpt lat="48.70345" lon="1.84393">
        <ele>176</ele>
        <time>2012-03-27T10:32:13.000Z</time>
      </trkpt>
      <trkpt lat="48.70354" lon="1.84375">
        <ele>176.19999694824</ele>
        <time>2012-03-27T10:32:22.000Z</time>
      </trkpt>
      <trkpt lat="48.70362" lon="1.84358">
        <ele>176.19999694824</ele>
        <time>2012-03-27T10:32:30.000Z</time>
      </trkpt>
      <trkpt lat="48.70373" lon="1.84334">
        <ele>176</ele>
        <time>2012-03-27T10:32:42.000Z</time>
      </trkpt>
      <trkpt lat="48.70381" lon="1.84318">
        <ele>175.80000305176</ele>
        <time>2012-03-27T10:32:50.000Z</time>
      </trkpt>
      <trkpt lat="48.70388" lon="1.84302">
        <ele>175.60000610352</ele>
        <time>2012-03-27T10:32:58.000Z</time>
      </trkpt>
      <trkpt lat="48.70402" lon="1.84274">
        <ele>175.19999694824</ele>
        <time>2012-03-27T10:33:12.000Z</time>
      </trkpt>
      <trkpt lat="48.7041" lon="1.84259">
        <ele>175.19999694824</ele>
        <time>2012-03-27T10:33:20.000Z</time>
      </trkpt>
      <trkpt lat="48.70417" lon="1.84245">
        <ele>175</ele>
        <time>2012-03-27T10:33:27.000Z</time>
      </trkpt>
      <trkpt lat="48.70424" lon="1.84234">
        <ele>175</ele>
        <time>2012-03-27T10:33:33.000Z</time>
      </trkpt>
      <trkpt lat="48.70432" lon="1.8422">
        <ele>175.19999694824</ele>
        <time>2012-03-27T10:33:40.000Z</time>
      </trkpt>
      <trkpt lat="48.70444" lon="1.84198">
        <ele>175.39999389648</ele>
        <time>2012-03-27T10:33:52.000Z</time>
      </trkpt>
      <trkpt lat="48.70457" lon="1.84175">
        <ele>175.39999389648</ele>
        <time>2012-03-27T10:34:04.000Z</time>
      </trkpt>
      <trkpt lat="48.7047" lon="1.84154">
        <ele>175.80000305176</ele>
        <time>2012-03-27T10:34:16.000Z</time>
      </trkpt>
      <trkpt lat="48.70481" lon="1.84135">
        <ele>176.19999694824</ele>
        <time>2012-03-27T10:34:27.000Z</time>
      </trkpt>
      <trkpt lat="48.70495" lon="1.84115">
        <ele>176.60000610352</ele>
        <time>2012-03-27T10:34:39.000Z</time>
      </trkpt>
      <trkpt lat="48.70506" lon="1.841">
        <ele>176.80000305176</ele>
        <time>2012-03-27T10:34:49.000Z</time>
      </trkpt>
      <trkpt lat="48.70517" lon="1.84084">
        <ele>177</ele>
        <time>2012-03-27T10:34:59.000Z</time>
      </trkpt>
      <trkpt lat="48.70524" lon="1.84073">
        <ele>176.80000305176</ele>
        <time>2012-03-27T10:35:06.000Z</time>
      </trkpt>
      <trkpt lat="48.70534" lon="1.84066">
        <ele>176.80000305176</ele>
        <time>2012-03-27T10:35:13.000Z</time>
      </trkpt>
      <trkpt lat="48.70547" lon="1.84055">
        <ele>176.60000610352</ele>
        <time>2012-03-27T10:35:21.000Z</time>
      </trkpt>
      <trkpt lat="48.70559" lon="1.84045">
        <ele>176.60000610352</ele>
        <time>2012-03-27T10:35:29.000Z</time>
      </trkpt>
      <trkpt lat="48.70571" lon="1.84034">
        <ele>176.39999389648</ele>
        <time>2012-03-27T10:35:38.000Z</time>
      </trkpt>
      <trkpt lat="48.70589" lon="1.8402">
        <ele>176.19999694824</ele>
        <time>2012-03-27T10:35:51.000Z</time>
      </trkpt>
      <trkpt lat="48.70603" lon="1.84006">
        <ele>176</ele>
        <time>2012-03-27T10:36:02.000Z</time>
      </trkpt>
      <trkpt lat="48.70613" lon="1.83999">
        <ele>176</ele>
        <time>2012-03-27T10:36:09.000Z</time>
      </trkpt>
      <trkpt lat="48.7062" lon="1.83999">
        <ele>176</ele>
        <time>2012-03-27T10:36:15.000Z</time>
      </trkpt>
      <trkpt lat="48.7062" lon="1.83999">
        <ele>176</ele>
        <time>2012-03-27T10:36:16.000Z</time>
      </trkpt>
      <trkpt lat="48.70626" lon="1.83996">
        <ele>176</ele>
        <time>2012-03-27T10:37:32.000Z</time>
      </trkpt>
      <trkpt lat="48.70633" lon="1.8399">
        <ele>176.19999694824</ele>
        <time>2012-03-27T10:37:35.000Z</time>
      </trkpt>
      <trkpt lat="48.70652" lon="1.83962">
        <ele>176.60000610352</ele>
        <time>2012-03-27T10:37:44.000Z</time>
      </trkpt>
      <trkpt lat="48.70663" lon="1.8394">
        <ele>176.80000305176</ele>
        <time>2012-03-27T10:37:50.000Z</time>
      </trkpt>
      <trkpt lat="48.70683" lon="1.83911">
        <ele>177.39999389648</ele>
        <time>2012-03-27T10:37:59.000Z</time>
      </trkpt>
      <trkpt lat="48.70701" lon="1.8388">
        <ele>178</ele>
        <time>2012-03-27T10:38:07.000Z</time>
      </trkpt>
      <trkpt lat="48.7072" lon="1.83849">
        <ele>178</ele>
        <time>2012-03-27T10:38:15.000Z</time>
      </trkpt>
      <trkpt lat="48.70746" lon="1.83813">
        <ele>178.39999389648</ele>
        <time>2012-03-27T10:38:25.000Z</time>
      </trkpt>
      <trkpt lat="48.70765" lon="1.83788">
        <ele>179</ele>
        <time>2012-03-27T10:38:32.000Z</time>
      </trkpt>
      <trkpt lat="48.70782" lon="1.83766">
        <ele>179.39999389648</ele>
        <time>2012-03-27T10:38:38.000Z</time>
      </trkpt>
      <trkpt lat="48.70803" lon="1.83741">
        <ele>179.39999389648</ele>
        <time>2012-03-27T10:38:45.000Z</time>
      </trkpt>
      <trkpt lat="48.70823" lon="1.83717">
        <ele>179</ele>
        <time>2012-03-27T10:38:52.000Z</time>
      </trkpt>
      <trkpt lat="48.70844" lon="1.83693">
        <ele>179</ele>
        <time>2012-03-27T10:38:59.000Z</time>
      </trkpt>
      <trkpt lat="48.70859" lon="1.83678">
        <ele>179</ele>
        <time>2012-03-27T10:39:04.000Z</time>
      </trkpt>
      <trkpt lat="48.70878" lon="1.83657">
        <ele>179</ele>
        <time>2012-03-27T10:39:11.000Z</time>
      </trkpt>
      <trkpt lat="48.70905" lon="1.83634">
        <ele>179</ele>
        <time>2012-03-27T10:39:20.000Z</time>
      </trkpt>
      <trkpt lat="48.7093" lon="1.83616">
        <ele>178.80000305176</ele>
        <time>2012-03-27T10:39:28.000Z</time>
      </trkpt>
      <trkpt lat="48.70957" lon="1.836">
        <ele>178.60000610352</ele>
        <time>2012-03-27T10:39:36.000Z</time>
      </trkpt>
      <trkpt lat="48.70985" lon="1.83583">
        <ele>178.19999694824</ele>
        <time>2012-03-27T10:39:44.000Z</time>
      </trkpt>
      <trkpt lat="48.71002" lon="1.83571">
        <ele>178</ele>
        <time>2012-03-27T10:39:50.000Z</time>
      </trkpt>
      <trkpt lat="48.71018" lon="1.83561">
        <ele>178.60000610352</ele>
        <time>2012-03-27T10:39:56.000Z</time>
      </trkpt>
      <trkpt lat="48.71042" lon="1.83545">
        <ele>179.19999694824</ele>
        <time>2012-03-27T10:40:03.000Z</time>
      </trkpt>
      <trkpt lat="48.71065" lon="1.83525">
        <ele>179.80000305176</ele>
        <time>2012-03-27T10:40:11.000Z</time>
      </trkpt>
      <trkpt lat="48.71084" lon="1.8351">
        <ele>180.19999694824</ele>
        <time>2012-03-27T10:40:18.000Z</time>
      </trkpt>
      <trkpt lat="48.71093" lon="1.83502">
        <ele>180.80000305176</ele>
        <time>2012-03-27T10:40:24.000Z</time>
      </trkpt>
      <trkpt lat="48.71106" lon="1.83492">
        <ele>181.39999389648</ele>
        <time>2012-03-27T10:40:32.000Z</time>
      </trkpt>
      <trkpt lat="48.71113" lon="1.83485">
        <ele>181.60000610352</ele>
        <time>2012-03-27T10:40:39.000Z</time>
      </trkpt>
      <trkpt lat="48.71113" lon="1.83484">
        <ele>181.80000305176</ele>
        <time>2012-03-27T10:40:40.000Z</time>
      </trkpt>
      <trkpt lat="48.71134" lon="1.8347">
        <ele>182.39999389648</ele>
        <time>2012-03-27T10:42:05.000Z</time>
      </trkpt>
      <trkpt lat="48.71144" lon="1.83469">
        <ele>183</ele>
        <time>2012-03-27T10:42:12.000Z</time>
      </trkpt>
      <trkpt lat="48.71148" lon="1.83471">
        <ele>183.19999694824</ele>
        <time>2012-03-27T10:42:19.000Z</time>
      </trkpt>
      <trkpt lat="48.71148" lon="1.83471">
        <ele>183.19999694824</ele>
        <time>2012-03-27T10:42:20.000Z</time>
      </trkpt>
      <trkpt lat="48.7115" lon="1.83473">
        <ele>183.39999389648</ele>
        <time>2012-03-27T10:43:34.000Z</time>
      </trkpt>
      <trkpt lat="48.71141" lon="1.83472">
        <ele>183</ele>
        <time>2012-03-27T10:43:39.000Z</time>
      </trkpt>
      <trkpt lat="48.7114" lon="1.8347">
        <ele>182.80000305176</ele>
        <time>2012-03-27T10:43:43.000Z</time>
      </trkpt>
      <trkpt lat="48.71147" lon="1.8347">
        <ele>183.19999694824</ele>
        <time>2012-03-27T10:44:08.000Z</time>
      </trkpt>
      <trkpt lat="48.71154" lon="1.83468">
        <ele>183.39999389648</ele>
        <time>2012-03-27T10:44:12.000Z</time>
      </trkpt>
      <trkpt lat="48.71161" lon="1.83467">
        <ele>183.60000610352</ele>
        <time>2012-03-27T10:44:17.000Z</time>
      </trkpt>
      <trkpt lat="48.71172" lon="1.8346">
        <ele>183.80000305176</ele>
        <time>2012-03-27T10:44:25.000Z</time>
      </trkpt>
      <trkpt lat="48.71181" lon="1.83452">
        <ele>183.39999389648</ele>
        <time>2012-03-27T10:44:32.000Z</time>
      </trkpt>
      <trkpt lat="48.71191" lon="1.83446">
        <ele>183.39999389648</ele>
        <time>2012-03-27T10:44:39.000Z</time>
      </trkpt>
      <trkpt lat="48.71202" lon="1.8344">
        <ele>183.19999694824</ele>
        <time>2012-03-27T10:44:46.000Z</time>
      </trkpt>
      <trkpt lat="48.71212" lon="1.83433">
        <ele>183</ele>
        <time>2012-03-27T10:44:53.000Z</time>
      </trkpt>
      <trkpt lat="48.71221" lon="1.83426">
        <ele>182.80000305176</ele>
        <time>2012-03-27T10:45:00.000Z</time>
      </trkpt>
      <trkpt lat="48.71231" lon="1.8342">
        <ele>182.80000305176</ele>
        <time>2012-03-27T10:45:07.000Z</time>
      </trkpt>
      <trkpt lat="48.71233" lon="1.83419">
        <ele>182.80000305176</ele>
        <time>2012-03-27T10:45:08.000Z</time>
      </trkpt>
      <trkpt lat="48.71242" lon="1.83412">
        <ele>182.60000610352</ele>
        <time>2012-03-27T10:45:14.000Z</time>
      </trkpt>
      <trkpt lat="48.71257" lon="1.83401">
        <ele>182.19999694824</ele>
        <time>2012-03-27T10:45:20.000Z</time>
      </trkpt>
      <trkpt lat="48.71274" lon="1.83391">
        <ele>182.19999694824</ele>
        <time>2012-03-27T10:45:26.000Z</time>
      </trkpt>
      <trkpt lat="48.71295" lon="1.83379">
        <ele>182.39999389648</ele>
        <time>2012-03-27T10:45:33.000Z</time>
      </trkpt>
      <trkpt lat="48.71313" lon="1.83369">
        <ele>182.60000610352</ele>
        <time>2012-03-27T10:45:39.000Z</time>
      </trkpt>
      <trkpt lat="48.71327" lon="1.8336">
        <ele>182.80000305176</ele>
        <time>2012-03-27T10:45:44.000Z</time>
      </trkpt>
      <trkpt lat="48.71344" lon="1.83348">
        <ele>182.60000610352</ele>
        <time>2012-03-27T10:45:50.000Z</time>
      </trkpt>
      <trkpt lat="48.71357" lon="1.83335">
        <ele>182.39999389648</ele>
        <time>2012-03-27T10:45:55.000Z</time>
      </trkpt>
      <trkpt lat="48.71374" lon="1.83319">
        <ele>181.80000305176</ele>
        <time>2012-03-27T10:46:01.000Z</time>
      </trkpt>
      <trkpt lat="48.71387" lon="1.83307">
        <ele>181.60000610352</ele>
        <time>2012-03-27T10:46:06.000Z</time>
      </trkpt>
      <trkpt lat="48.71403" lon="1.83292">
        <ele>181.19999694824</ele>
        <time>2012-03-27T10:46:12.000Z</time>
      </trkpt>
      <trkpt lat="48.7142" lon="1.83279">
        <ele>181</ele>
        <time>2012-03-27T10:46:18.000Z</time>
      </trkpt>
      <trkpt lat="48.71441" lon="1.83262">
        <ele>180.80000305176</ele>
        <time>2012-03-27T10:46:25.000Z</time>
      </trkpt>
      <trkpt lat="48.71459" lon="1.83247">
        <ele>180.80000305176</ele>
        <time>2012-03-27T10:46:31.000Z</time>
      </trkpt>
      <trkpt lat="48.71479" lon="1.83227">
        <ele>180.19999694824</ele>
        <time>2012-03-27T10:46:38.000Z</time>
      </trkpt>
      <trkpt lat="48.71493" lon="1.83211">
        <ele>179.60000610352</ele>
        <time>2012-03-27T10:46:43.000Z</time>
      </trkpt>
      <trkpt lat="48.71513" lon="1.83185">
        <ele>178</ele>
        <time>2012-03-27T10:46:51.000Z</time>
      </trkpt>
      <trkpt lat="48.71531" lon="1.83161">
        <ele>177.19999694824</ele>
        <time>2012-03-27T10:46:58.000Z</time>
      </trkpt>
      <trkpt lat="48.71545" lon="1.83142">
        <ele>177.19999694824</ele>
        <time>2012-03-27T10:47:04.000Z</time>
      </trkpt>
      <trkpt lat="48.71558" lon="1.83124">
        <ele>177</ele>
        <time>2012-03-27T10:47:09.000Z</time>
      </trkpt>
      <trkpt lat="48.71566" lon="1.83107">
        <ele>177</ele>
        <time>2012-03-27T10:47:13.000Z</time>
      </trkpt>
      <trkpt lat="48.71582" lon="1.83079">
        <ele>176.80000305176</ele>
        <time>2012-03-27T10:47:20.000Z</time>
      </trkpt>
      <trkpt lat="48.71593" lon="1.83059">
        <ele>176</ele>
        <time>2012-03-27T10:47:25.000Z</time>
      </trkpt>
      <trkpt lat="48.71603" lon="1.83035">
        <ele>175.19999694824</ele>
        <time>2012-03-27T10:47:31.000Z</time>
      </trkpt>
      <trkpt lat="48.71612" lon="1.83014">
        <ele>174.80000305176</ele>
        <time>2012-03-27T10:47:36.000Z</time>
      </trkpt>
      <trkpt lat="48.71618" lon="1.83001">
        <ele>174.60000610352</ele>
        <time>2012-03-27T10:47:41.000Z</time>
      </trkpt>
      <trkpt lat="48.71624" lon="1.82988">
        <ele>174.80000305176</ele>
        <time>2012-03-27T10:47:47.000Z</time>
      </trkpt>
      <trkpt lat="48.71629" lon="1.82973">
        <ele>175</ele>
        <time>2012-03-27T10:47:54.000Z</time>
      </trkpt>
      <trkpt lat="48.71635" lon="1.82952">
        <ele>175.39999389648</ele>
        <time>2012-03-27T10:48:04.000Z</time>
      </trkpt>
      <trkpt lat="48.71641" lon="1.82933">
        <ele>176</ele>
        <time>2012-03-27T10:48:13.000Z</time>
      </trkpt>
      <trkpt lat="48.71646" lon="1.82921">
        <ele>176.39999389648</ele>
        <time>2012-03-27T10:48:19.000Z</time>
      </trkpt>
      <trkpt lat="48.71651" lon="1.82908">
        <ele>176.60000610352</ele>
        <time>2012-03-27T10:48:25.000Z</time>
      </trkpt>
      <trkpt lat="48.71657" lon="1.82894">
        <ele>176.39999389648</ele>
        <time>2012-03-27T10:48:32.000Z</time>
      </trkpt>
      <trkpt lat="48.71661" lon="1.8288">
        <ele>176.39999389648</ele>
        <time>2012-03-27T10:48:38.000Z</time>
      </trkpt>
      <trkpt lat="48.71665" lon="1.82867">
        <ele>176.39999389648</ele>
        <time>2012-03-27T10:48:43.000Z</time>
      </trkpt>
      <trkpt lat="48.71665" lon="1.82863">
        <ele>176.39999389648</ele>
        <time>2012-03-27T10:48:46.000Z</time>
      </trkpt>
      <trkpt lat="48.71669" lon="1.82851">
        <ele>176.19999694824</ele>
        <time>2012-03-27T10:48:53.000Z</time>
      </trkpt>
      <trkpt lat="48.71673" lon="1.82845">
        <ele>176.19999694824</ele>
        <time>2012-03-27T10:48:57.000Z</time>
      </trkpt>
      <trkpt lat="48.71679" lon="1.82826">
        <ele>176</ele>
        <time>2012-03-27T10:49:06.000Z</time>
      </trkpt>
      <trkpt lat="48.71682" lon="1.82818">
        <ele>175.80000305176</ele>
        <time>2012-03-27T10:49:12.000Z</time>
      </trkpt>
      <trkpt lat="48.71682" lon="1.82818">
        <ele>175.80000305176</ele>
        <time>2012-03-27T10:49:13.000Z</time>
      </trkpt>
      <trkpt lat="48.71684" lon="1.82811">
        <ele>175.60000610352</ele>
        <time>2012-03-27T10:49:21.000Z</time>
      </trkpt>
      <trkpt lat="48.71691" lon="1.82794">
        <ele>175.39999389648</ele>
        <time>2012-03-27T10:49:28.000Z</time>
      </trkpt>
      <trkpt lat="48.71696" lon="1.82779">
        <ele>175</ele>
        <time>2012-03-27T10:49:36.000Z</time>
      </trkpt>
      <trkpt lat="48.71702" lon="1.82762">
        <ele>174.60000610352</ele>
        <time>2012-03-27T10:49:45.000Z</time>
      </trkpt>
      <trkpt lat="48.71702" lon="1.82761">
        <ele>174.60000610352</ele>
        <time>2012-03-27T10:49:48.000Z</time>
      </trkpt>
      <trkpt lat="48.71703" lon="1.8275">
        <ele>174.39999389648</ele>
        <time>2012-03-27T10:50:03.000Z</time>
      </trkpt>
      <trkpt lat="48.71707" lon="1.82738">
        <ele>175</ele>
        <time>2012-03-27T10:50:10.000Z</time>
      </trkpt>
      <trkpt lat="48.71711" lon="1.82729">
        <ele>175.19999694824</ele>
        <time>2012-03-27T10:50:17.000Z</time>
      </trkpt>
      <trkpt lat="48.71716" lon="1.82718">
        <ele>175.80000305176</ele>
        <time>2012-03-27T10:50:24.000Z</time>
      </trkpt>
      <trkpt lat="48.7172" lon="1.82708">
        <ele>176.19999694824</ele>
        <time>2012-03-27T10:50:29.000Z</time>
      </trkpt>
      <trkpt lat="48.71725" lon="1.82692">
        <ele>177</ele>
        <time>2012-03-27T10:50:37.000Z</time>
      </trkpt>
      <trkpt lat="48.7173" lon="1.82671">
        <ele>178</ele>
        <time>2012-03-27T10:50:46.000Z</time>
      </trkpt>
      <trkpt lat="48.71735" lon="1.82654">
        <ele>178.60000610352</ele>
        <time>2012-03-27T10:50:53.000Z</time>
      </trkpt>
      <trkpt lat="48.71739" lon="1.82641">
        <ele>179</ele>
        <time>2012-03-27T10:50:58.000Z</time>
      </trkpt>
      <trkpt lat="48.71745" lon="1.82627">
        <ele>179.39999389648</ele>
        <time>2012-03-27T10:51:04.000Z</time>
      </trkpt>
      <trkpt lat="48.71749" lon="1.8261">
        <ele>179.60000610352</ele>
        <time>2012-03-27T10:51:12.000Z</time>
      </trkpt>
      <trkpt lat="48.71755" lon="1.82597">
        <ele>179.39999389648</ele>
        <time>2012-03-27T10:51:19.000Z</time>
      </trkpt>
      <trkpt lat="48.71764" lon="1.82576">
        <ele>179</ele>
        <time>2012-03-27T10:51:29.000Z</time>
      </trkpt>
      <trkpt lat="48.7177" lon="1.82559">
        <ele>178.60000610352</ele>
        <time>2012-03-27T10:51:37.000Z</time>
      </trkpt>
      <trkpt lat="48.71774" lon="1.82546">
        <ele>178.39999389648</ele>
        <time>2012-03-27T10:51:43.000Z</time>
      </trkpt>
      <trkpt lat="48.71781" lon="1.82532">
        <ele>178</ele>
        <time>2012-03-27T10:51:51.000Z</time>
      </trkpt>
      <trkpt lat="48.71788" lon="1.82516">
        <ele>178</ele>
        <time>2012-03-27T10:51:59.000Z</time>
      </trkpt>
      <trkpt lat="48.71792" lon="1.82508">
        <ele>177.80000305176</ele>
        <time>2012-03-27T10:52:03.000Z</time>
      </trkpt>
      <trkpt lat="48.71797" lon="1.82491">
        <ele>177.60000610352</ele>
        <time>2012-03-27T10:52:10.000Z</time>
      </trkpt>
      <trkpt lat="48.71803" lon="1.82474">
        <ele>177.19999694824</ele>
        <time>2012-03-27T10:52:18.000Z</time>
      </trkpt>
      <trkpt lat="48.71811" lon="1.82452">
        <ele>176.60000610352</ele>
        <time>2012-03-27T10:52:28.000Z</time>
      </trkpt>
      <trkpt lat="48.71819" lon="1.82434">
        <ele>176.19999694824</ele>
        <time>2012-03-27T10:52:37.000Z</time>
      </trkpt>
      <trkpt lat="48.71829" lon="1.82413">
        <ele>176</ele>
        <time>2012-03-27T10:52:48.000Z</time>
      </trkpt>
      <trkpt lat="48.71834" lon="1.82396">
        <ele>175.60000610352</ele>
        <time>2012-03-27T10:52:55.000Z</time>
      </trkpt>
      <trkpt lat="48.71843" lon="1.82377">
        <ele>175</ele>
        <time>2012-03-27T10:53:04.000Z</time>
      </trkpt>
      <trkpt lat="48.71846" lon="1.82365">
        <ele>174.80000305176</ele>
        <time>2012-03-27T10:53:10.000Z</time>
      </trkpt>
      <trkpt lat="48.71851" lon="1.82353">
        <ele>174.80000305176</ele>
        <time>2012-03-27T10:53:16.000Z</time>
      </trkpt>
      <trkpt lat="48.71857" lon="1.82337">
        <ele>174.60000610352</ele>
        <time>2012-03-27T10:53:23.000Z</time>
      </trkpt>
      <trkpt lat="48.71864" lon="1.82321">
        <ele>174.60000610352</ele>
        <time>2012-03-27T10:53:30.000Z</time>
      </trkpt>
      <trkpt lat="48.71872" lon="1.82304">
        <ele>174.60000610352</ele>
        <time>2012-03-27T10:53:37.000Z</time>
      </trkpt>
      <trkpt lat="48.71879" lon="1.82291">
        <ele>174.60000610352</ele>
        <time>2012-03-27T10:53:44.000Z</time>
      </trkpt>
      <trkpt lat="48.71885" lon="1.82275">
        <ele>174.39999389648</ele>
        <time>2012-03-27T10:53:51.000Z</time>
      </trkpt>
      <trkpt lat="48.71892" lon="1.82259">
        <ele>174.19999694824</ele>
        <time>2012-03-27T10:53:58.000Z</time>
      </trkpt>
      <trkpt lat="48.71898" lon="1.82242">
        <ele>174</ele>
        <time>2012-03-27T10:54:06.000Z</time>
      </trkpt>
      <trkpt lat="48.71904" lon="1.82223">
        <ele>173.80000305176</ele>
        <time>2012-03-27T10:54:15.000Z</time>
      </trkpt>
      <trkpt lat="48.71909" lon="1.82212">
        <ele>173.60000610352</ele>
        <time>2012-03-27T10:54:21.000Z</time>
      </trkpt>
      <trkpt lat="48.71916" lon="1.82197">
        <ele>173.39999389648</ele>
        <time>2012-03-27T10:54:29.000Z</time>
      </trkpt>
      <trkpt lat="48.71922" lon="1.82185">
        <ele>173.19999694824</ele>
        <time>2012-03-27T10:54:36.000Z</time>
      </trkpt>
      <trkpt lat="48.7193" lon="1.82168">
        <ele>173</ele>
        <time>2012-03-27T10:54:44.000Z</time>
      </trkpt>
      <trkpt lat="48.71936" lon="1.82155">
        <ele>173.19999694824</ele>
        <time>2012-03-27T10:54:51.000Z</time>
      </trkpt>
      <trkpt lat="48.71939" lon="1.82141">
        <ele>173.39999389648</ele>
        <time>2012-03-27T10:54:57.000Z</time>
      </trkpt>
      <trkpt lat="48.71944" lon="1.82128">
        <ele>173.80000305176</ele>
        <time>2012-03-27T10:55:03.000Z</time>
      </trkpt>
      <trkpt lat="48.71945" lon="1.82127">
        <ele>173.80000305176</ele>
        <time>2012-03-27T10:55:04.000Z</time>
      </trkpt>
      <trkpt lat="48.7195" lon="1.82106">
        <ele>174.19999694824</ele>
        <time>2012-03-27T10:55:13.000Z</time>
      </trkpt>
      <trkpt lat="48.71953" lon="1.8209">
        <ele>174.80000305176</ele>
        <time>2012-03-27T10:55:20.000Z</time>
      </trkpt>
      <trkpt lat="48.7196" lon="1.82074">
        <ele>175.60000610352</ele>
        <time>2012-03-27T10:55:28.000Z</time>
      </trkpt>
      <trkpt lat="48.71969" lon="1.82057">
        <ele>176.60000610352</ele>
        <time>2012-03-27T10:55:37.000Z</time>
      </trkpt>
      <trkpt lat="48.71973" lon="1.82042">
        <ele>177.39999389648</ele>
        <time>2012-03-27T10:55:45.000Z</time>
      </trkpt>
      <trkpt lat="48.71977" lon="1.82031">
        <ele>178</ele>
        <time>2012-03-27T10:55:52.000Z</time>
      </trkpt>
      <trkpt lat="48.71978" lon="1.82025">
        <ele>178.39999389648</ele>
        <time>2012-03-27T10:55:55.000Z</time>
      </trkpt>
      <trkpt lat="48.7198" lon="1.82022">
        <ele>178.39999389648</ele>
        <time>2012-03-27T10:55:59.000Z</time>
      </trkpt>
      <trkpt lat="48.71986" lon="1.82021">
        <ele>178.39999389648</ele>
        <time>2012-03-27T10:56:10.000Z</time>
      </trkpt>
      <trkpt lat="48.71994" lon="1.82019">
        <ele>178.39999389648</ele>
        <time>2012-03-27T10:56:14.000Z</time>
      </trkpt>
      <trkpt lat="48.71997" lon="1.82008">
        <ele>178.80000305176</ele>
        <time>2012-03-27T10:56:20.000Z</time>
      </trkpt>
      <trkpt lat="48.71998" lon="1.82006">
        <ele>178.80000305176</ele>
        <time>2012-03-27T10:56:21.000Z</time>
      </trkpt>
      <trkpt lat="48.72002" lon="1.82001">
        <ele>178.80000305176</ele>
        <time>2012-03-27T10:56:27.000Z</time>
      </trkpt>
      <trkpt lat="48.72005" lon="1.81993">
        <ele>179</ele>
        <time>2012-03-27T10:56:32.000Z</time>
      </trkpt>
      <trkpt lat="48.72009" lon="1.81977">
        <ele>179.19999694824</ele>
        <time>2012-03-27T10:56:39.000Z</time>
      </trkpt>
      <trkpt lat="48.72012" lon="1.81971">
        <ele>179.19999694824</ele>
        <time>2012-03-27T10:56:42.000Z</time>
      </trkpt>
      <trkpt lat="48.72016" lon="1.81957">
        <ele>179.39999389648</ele>
        <time>2012-03-27T10:56:49.000Z</time>
      </trkpt>
      <trkpt lat="48.72018" lon="1.8195">
        <ele>179.39999389648</ele>
        <time>2012-03-27T10:56:53.000Z</time>
      </trkpt>
      <trkpt lat="48.72023" lon="1.81935">
        <ele>179.60000610352</ele>
        <time>2012-03-27T10:57:00.000Z</time>
      </trkpt>
      <trkpt lat="48.72027" lon="1.81925">
        <ele>179.80000305176</ele>
        <time>2012-03-27T10:57:06.000Z</time>
      </trkpt>
      <trkpt lat="48.72033" lon="1.81912">
        <ele>180</ele>
        <time>2012-03-27T10:57:13.000Z</time>
      </trkpt>
      <trkpt lat="48.72039" lon="1.81898">
        <ele>180</ele>
        <time>2012-03-27T10:57:20.000Z</time>
      </trkpt>
      <trkpt lat="48.72045" lon="1.81881">
        <ele>180.19999694824</ele>
        <time>2012-03-27T10:57:28.000Z</time>
      </trkpt>
      <trkpt lat="48.72048" lon="1.81866">
        <ele>180.39999389648</ele>
        <time>2012-03-27T10:57:34.000Z</time>
      </trkpt>
      <trkpt lat="48.72051" lon="1.8186">
        <ele>180.60000610352</ele>
        <time>2012-03-27T10:57:37.000Z</time>
      </trkpt>
      <trkpt lat="48.72055" lon="1.81847">
        <ele>180.80000305176</ele>
        <time>2012-03-27T10:57:43.000Z</time>
      </trkpt>
      <trkpt lat="48.72062" lon="1.81833">
        <ele>180.80000305176</ele>
        <time>2012-03-27T10:57:50.000Z</time>
      </trkpt>
      <trkpt lat="48.72065" lon="1.8182">
        <ele>180.80000305176</ele>
        <time>2012-03-27T10:57:56.000Z</time>
      </trkpt>
      <trkpt lat="48.72066" lon="1.81818">
        <ele>180.80000305176</ele>
        <time>2012-03-27T10:57:57.000Z</time>
      </trkpt>
      <trkpt lat="48.72066" lon="1.81811">
        <ele>180.80000305176</ele>
        <time>2012-03-27T10:58:03.000Z</time>
      </trkpt>
      <trkpt lat="48.72075" lon="1.81793">
        <ele>180.80000305176</ele>
        <time>2012-03-27T10:58:09.000Z</time>
      </trkpt>
      <trkpt lat="48.72079" lon="1.81781">
        <ele>180.80000305176</ele>
        <time>2012-03-27T10:58:14.000Z</time>
      </trkpt>
      <trkpt lat="48.72082" lon="1.81774">
        <ele>180.80000305176</ele>
        <time>2012-03-27T10:58:17.000Z</time>
      </trkpt>
      <trkpt lat="48.72085" lon="1.81762">
        <ele>180.80000305176</ele>
        <time>2012-03-27T10:58:22.000Z</time>
      </trkpt>
      <trkpt lat="48.7209" lon="1.81749">
        <ele>180.60000610352</ele>
        <time>2012-03-27T10:58:28.000Z</time>
      </trkpt>
      <trkpt lat="48.72092" lon="1.8174">
        <ele>180.39999389648</ele>
        <time>2012-03-27T10:58:32.000Z</time>
      </trkpt>
      <trkpt lat="48.72099" lon="1.8172">
        <ele>180</ele>
        <time>2012-03-27T10:58:41.000Z</time>
      </trkpt>
      <trkpt lat="48.72106" lon="1.81706">
        <ele>179.80000305176</ele>
        <time>2012-03-27T10:58:48.000Z</time>
      </trkpt>
      <trkpt lat="48.72112" lon="1.81695">
        <ele>179.60000610352</ele>
        <time>2012-03-27T10:58:54.000Z</time>
      </trkpt>
      <trkpt lat="48.72117" lon="1.81683">
        <ele>179.60000610352</ele>
        <time>2012-03-27T10:59:00.000Z</time>
      </trkpt>
      <trkpt lat="48.72122" lon="1.81675">
        <ele>179.60000610352</ele>
        <time>2012-03-27T10:59:04.000Z</time>
      </trkpt>
      <trkpt lat="48.72129" lon="1.81664">
        <ele>179.39999389648</ele>
        <time>2012-03-27T10:59:10.000Z</time>
      </trkpt>
      <trkpt lat="48.72133" lon="1.81654">
        <ele>179.19999694824</ele>
        <time>2012-03-27T10:59:14.000Z</time>
      </trkpt>
      <trkpt lat="48.72139" lon="1.8164">
        <ele>178.80000305176</ele>
        <time>2012-03-27T10:59:21.000Z</time>
      </trkpt>
      <trkpt lat="48.72142" lon="1.81627">
        <ele>178.60000610352</ele>
        <time>2012-03-27T10:59:26.000Z</time>
      </trkpt>
      <trkpt lat="48.72152" lon="1.81608">
        <ele>178.19999694824</ele>
        <time>2012-03-27T10:59:35.000Z</time>
      </trkpt>
      <trkpt lat="48.72158" lon="1.81593">
        <ele>178</ele>
        <time>2012-03-27T10:59:41.000Z</time>
      </trkpt>
      <trkpt lat="48.72163" lon="1.8158">
        <ele>178</ele>
        <time>2012-03-27T10:59:47.000Z</time>
      </trkpt>
      <trkpt lat="48.72168" lon="1.81565">
        <ele>178</ele>
        <time>2012-03-27T10:59:54.000Z</time>
      </trkpt>
      <trkpt lat="48.72172" lon="1.81552">
        <ele>177.60000610352</ele>
        <time>2012-03-27T11:00:00.000Z</time>
      </trkpt>
      <trkpt lat="48.72174" lon="1.8154">
        <ele>177.39999389648</ele>
        <time>2012-03-27T11:00:05.000Z</time>
      </trkpt>
      <trkpt lat="48.72178" lon="1.81528">
        <ele>177</ele>
        <time>2012-03-27T11:00:10.000Z</time>
      </trkpt>
      <trkpt lat="48.72181" lon="1.81521">
        <ele>176.80000305176</ele>
        <time>2012-03-27T11:00:13.000Z</time>
      </trkpt>
      <trkpt lat="48.72184" lon="1.8151">
        <ele>176.60000610352</ele>
        <time>2012-03-27T11:00:17.000Z</time>
      </trkpt>
      <trkpt lat="48.72192" lon="1.81485">
        <ele>176</ele>
        <time>2012-03-27T11:00:28.000Z</time>
      </trkpt>
      <trkpt lat="48.72198" lon="1.81468">
        <ele>175.60000610352</ele>
        <time>2012-03-27T11:00:36.000Z</time>
      </trkpt>
      <trkpt lat="48.72203" lon="1.81449">
        <ele>175.39999389648</ele>
        <time>2012-03-27T11:00:44.000Z</time>
      </trkpt>
      <trkpt lat="48.72207" lon="1.81434">
        <ele>175.39999389648</ele>
        <time>2012-03-27T11:00:51.000Z</time>
      </trkpt>
      <trkpt lat="48.72213" lon="1.8142">
        <ele>175.19999694824</ele>
        <time>2012-03-27T11:00:58.000Z</time>
      </trkpt>
      <trkpt lat="48.72221" lon="1.81407">
        <ele>174.80000305176</ele>
        <time>2012-03-27T11:01:05.000Z</time>
      </trkpt>
      <trkpt lat="48.72228" lon="1.81391">
        <ele>174.39999389648</ele>
        <time>2012-03-27T11:01:12.000Z</time>
      </trkpt>
      <trkpt lat="48.72234" lon="1.8137">
        <ele>174.19999694824</ele>
        <time>2012-03-27T11:01:21.000Z</time>
      </trkpt>
      <trkpt lat="48.7224" lon="1.81355">
        <ele>174</ele>
        <time>2012-03-27T11:01:28.000Z</time>
      </trkpt>
      <trkpt lat="48.72246" lon="1.81335">
        <ele>174</ele>
        <time>2012-03-27T11:01:37.000Z</time>
      </trkpt>
      <trkpt lat="48.72248" lon="1.81328">
        <ele>174.19999694824</ele>
        <time>2012-03-27T11:01:40.000Z</time>
      </trkpt>
      <trkpt lat="48.72252" lon="1.81315">
        <ele>174</ele>
        <time>2012-03-27T11:01:46.000Z</time>
      </trkpt>
      <trkpt lat="48.7226" lon="1.81296">
        <ele>173.80000305176</ele>
        <time>2012-03-27T11:01:55.000Z</time>
      </trkpt>
      <trkpt lat="48.72264" lon="1.81281">
        <ele>173.80000305176</ele>
        <time>2012-03-27T11:02:02.000Z</time>
      </trkpt>
      <trkpt lat="48.72266" lon="1.8126">
        <ele>174</ele>
        <time>2012-03-27T11:02:10.000Z</time>
      </trkpt>
      <trkpt lat="48.72269" lon="1.81244">
        <ele>174.19999694824</ele>
        <time>2012-03-27T11:02:16.000Z</time>
      </trkpt>
      <trkpt lat="48.72276" lon="1.81228">
        <ele>174</ele>
        <time>2012-03-27T11:02:23.000Z</time>
      </trkpt>
      <trkpt lat="48.72279" lon="1.81214">
        <ele>174</ele>
        <time>2012-03-27T11:02:28.000Z</time>
      </trkpt>
      <trkpt lat="48.72278" lon="1.81207">
        <ele>174</ele>
        <time>2012-03-27T11:02:31.000Z</time>
      </trkpt>
      <trkpt lat="48.72282" lon="1.81191">
        <ele>174</ele>
        <time>2012-03-27T11:02:38.000Z</time>
      </trkpt>
      <trkpt lat="48.72285" lon="1.81185">
        <ele>174</ele>
        <time>2012-03-27T11:02:41.000Z</time>
      </trkpt>
      <trkpt lat="48.72291" lon="1.81166">
        <ele>174</ele>
        <time>2012-03-27T11:02:49.000Z</time>
      </trkpt>
      <trkpt lat="48.72296" lon="1.81146">
        <ele>174</ele>
        <time>2012-03-27T11:02:57.000Z</time>
      </trkpt>
      <trkpt lat="48.72302" lon="1.81125">
        <ele>174</ele>
        <time>2012-03-27T11:03:06.000Z</time>
      </trkpt>
      <trkpt lat="48.72307" lon="1.8111">
        <ele>174</ele>
        <time>2012-03-27T11:03:13.000Z</time>
      </trkpt>
      <trkpt lat="48.72312" lon="1.81096">
        <ele>174.19999694824</ele>
        <time>2012-03-27T11:03:19.000Z</time>
      </trkpt>
      <trkpt lat="48.72315" lon="1.81086">
        <ele>174.19999694824</ele>
        <time>2012-03-27T11:03:25.000Z</time>
      </trkpt>
      <trkpt lat="48.72322" lon="1.81071">
        <ele>174.80000305176</ele>
        <time>2012-03-27T11:03:33.000Z</time>
      </trkpt>
      <trkpt lat="48.72329" lon="1.81059">
        <ele>175.19999694824</ele>
        <time>2012-03-27T11:03:39.000Z</time>
      </trkpt>
      <trkpt lat="48.72334" lon="1.81045">
        <ele>175.80000305176</ele>
        <time>2012-03-27T11:03:46.000Z</time>
      </trkpt>
      <trkpt lat="48.72335" lon="1.81043">
        <ele>175.80000305176</ele>
        <time>2012-03-27T11:03:47.000Z</time>
      </trkpt>
      <trkpt lat="48.72339" lon="1.81031">
        <ele>176</ele>
        <time>2012-03-27T11:03:53.000Z</time>
      </trkpt>
      <trkpt lat="48.72341" lon="1.81015">
        <ele>176.80000305176</ele>
        <time>2012-03-27T11:03:59.000Z</time>
      </trkpt>
      <trkpt lat="48.72344" lon="1.80998">
        <ele>177.19999694824</ele>
        <time>2012-03-27T11:04:05.000Z</time>
      </trkpt>
      <trkpt lat="48.72348" lon="1.80988">
        <ele>177.19999694824</ele>
        <time>2012-03-27T11:04:10.000Z</time>
      </trkpt>
      <trkpt lat="48.72352" lon="1.80976">
        <ele>177.19999694824</ele>
        <time>2012-03-27T11:04:16.000Z</time>
      </trkpt>
      <trkpt lat="48.72357" lon="1.80964">
        <ele>177.19999694824</ele>
        <time>2012-03-27T11:04:22.000Z</time>
      </trkpt>
      <trkpt lat="48.72359" lon="1.80959">
        <ele>177.19999694824</ele>
        <time>2012-03-27T11:04:25.000Z</time>
      </trkpt>
      <trkpt lat="48.72368" lon="1.80938">
        <ele>177.19999694824</ele>
        <time>2012-03-27T11:04:35.000Z</time>
      </trkpt>
      <trkpt lat="48.72373" lon="1.80925">
        <ele>177.39999389648</ele>
        <time>2012-03-27T11:04:41.000Z</time>
      </trkpt>
      <trkpt lat="48.72377" lon="1.80908">
        <ele>177.60000610352</ele>
        <time>2012-03-27T11:04:48.000Z</time>
      </trkpt>
      <trkpt lat="48.72381" lon="1.80899">
        <ele>177.80000305176</ele>
        <time>2012-03-27T11:04:53.000Z</time>
      </trkpt>
      <trkpt lat="48.72387" lon="1.80889">
        <ele>178</ele>
        <time>2012-03-27T11:04:59.000Z</time>
      </trkpt>
      <trkpt lat="48.72389" lon="1.80883">
        <ele>178</ele>
        <time>2012-03-27T11:05:02.000Z</time>
      </trkpt>
      <trkpt lat="48.72395" lon="1.80875">
        <ele>178.19999694824</ele>
        <time>2012-03-27T11:05:07.000Z</time>
      </trkpt>
      <trkpt lat="48.72402" lon="1.80859">
        <ele>178.39999389648</ele>
        <time>2012-03-27T11:05:15.000Z</time>
      </trkpt>
      <trkpt lat="48.72406" lon="1.80846">
        <ele>178.80000305176</ele>
        <time>2012-03-27T11:05:19.000Z</time>
      </trkpt>
      <trkpt lat="48.72413" lon="1.80826">
        <ele>179.19999694824</ele>
        <time>2012-03-27T11:05:25.000Z</time>
      </trkpt>
      <trkpt lat="48.72417" lon="1.80816">
        <ele>179.19999694824</ele>
        <time>2012-03-27T11:05:29.000Z</time>
      </trkpt>
      <trkpt lat="48.72419" lon="1.8081">
        <ele>179.19999694824</ele>
        <time>2012-03-27T11:05:32.000Z</time>
      </trkpt>
      <trkpt lat="48.7242" lon="1.80801">
        <ele>179.19999694824</ele>
        <time>2012-03-27T11:05:36.000Z</time>
      </trkpt>
      <trkpt lat="48.72424" lon="1.80788">
        <ele>179</ele>
        <time>2012-03-27T11:05:42.000Z</time>
      </trkpt>
      <trkpt lat="48.72431" lon="1.80774">
        <ele>178.60000610352</ele>
        <time>2012-03-27T11:05:49.000Z</time>
      </trkpt>
      <trkpt lat="48.72439" lon="1.80763">
        <ele>178</ele>
        <time>2012-03-27T11:05:56.000Z</time>
      </trkpt>
      <trkpt lat="48.72445" lon="1.80756">
        <ele>177.60000610352</ele>
        <time>2012-03-27T11:06:02.000Z</time>
      </trkpt>
      <trkpt lat="48.72448" lon="1.80752">
        <ele>177.39999389648</ele>
        <time>2012-03-27T11:06:07.000Z</time>
      </trkpt>
      <trkpt lat="48.72449" lon="1.80751">
        <ele>177.19999694824</ele>
        <time>2012-03-27T11:06:08.000Z</time>
      </trkpt>
      <trkpt lat="48.72451" lon="1.80736">
        <ele>177</ele>
        <time>2012-03-27T11:06:12.000Z</time>
      </trkpt>
      <trkpt lat="48.72447" lon="1.80714">
        <ele>177</ele>
        <time>2012-03-27T11:06:19.000Z</time>
      </trkpt>
      <trkpt lat="48.72443" lon="1.807">
        <ele>177.19999694824</ele>
        <time>2012-03-27T11:06:25.000Z</time>
      </trkpt>
      <trkpt lat="48.72435" lon="1.80691">
        <ele>177.60000610352</ele>
        <time>2012-03-27T11:06:32.000Z</time>
      </trkpt>
      <trkpt lat="48.72428" lon="1.8068">
        <ele>177.80000305176</ele>
        <time>2012-03-27T11:06:39.000Z</time>
      </trkpt>
      <trkpt lat="48.72423" lon="1.8067">
        <ele>177.80000305176</ele>
        <time>2012-03-27T11:06:45.000Z</time>
      </trkpt>
      <trkpt lat="48.72415" lon="1.80659">
        <ele>177.80000305176</ele>
        <time>2012-03-27T11:06:51.000Z</time>
      </trkpt>
      <trkpt lat="48.72408" lon="1.80651">
        <ele>177.60000610352</ele>
        <time>2012-03-27T11:06:56.000Z</time>
      </trkpt>
      <trkpt lat="48.72405" lon="1.80645">
        <ele>177.60000610352</ele>
        <time>2012-03-27T11:07:00.000Z</time>
      </trkpt>
      <trkpt lat="48.72402" lon="1.80643">
        <ele>177.60000610352</ele>
        <time>2012-03-27T11:07:02.000Z</time>
      </trkpt>
      <trkpt lat="48.72398" lon="1.80638">
        <ele>177.60000610352</ele>
        <time>2012-03-27T11:07:05.000Z</time>
      </trkpt>
      <trkpt lat="48.7239" lon="1.80631">
        <ele>177.80000305176</ele>
        <time>2012-03-27T11:07:12.000Z</time>
      </trkpt>
      <trkpt lat="48.72382" lon="1.80622">
        <ele>178</ele>
        <time>2012-03-27T11:07:18.000Z</time>
      </trkpt>
      <trkpt lat="48.72375" lon="1.80616">
        <ele>178</ele>
        <time>2012-03-27T11:07:23.000Z</time>
      </trkpt>
      <trkpt lat="48.72368" lon="1.80606">
        <ele>178.19999694824</ele>
        <time>2012-03-27T11:07:30.000Z</time>
      </trkpt>
      <trkpt lat="48.7236" lon="1.80596">
        <ele>178.60000610352</ele>
        <time>2012-03-27T11:07:36.000Z</time>
      </trkpt>
      <trkpt lat="48.72352" lon="1.80584">
        <ele>178.80000305176</ele>
        <time>2012-03-27T11:07:42.000Z</time>
      </trkpt>
      <trkpt lat="48.72346" lon="1.80573">
        <ele>179</ele>
        <time>2012-03-27T11:07:49.000Z</time>
      </trkpt>
      <trkpt lat="48.72339" lon="1.80565">
        <ele>179.19999694824</ele>
        <time>2012-03-27T11:07:54.000Z</time>
      </trkpt>
      <trkpt lat="48.72328" lon="1.80552">
        <ele>179.39999389648</ele>
        <time>2012-03-27T11:08:03.000Z</time>
      </trkpt>
      <trkpt lat="48.72321" lon="1.80544">
        <ele>179.39999389648</ele>
        <time>2012-03-27T11:08:09.000Z</time>
      </trkpt>
      <trkpt lat="48.72319" lon="1.80541">
        <ele>179.39999389648</ele>
        <time>2012-03-27T11:08:11.000Z</time>
      </trkpt>
      <trkpt lat="48.72311" lon="1.80539">
        <ele>179.60000610352</ele>
        <time>2012-03-27T11:08:17.000Z</time>
      </trkpt>
      <trkpt lat="48.72301" lon="1.80536">
        <ele>180</ele>
        <time>2012-03-27T11:08:22.000Z</time>
      </trkpt>
      <trkpt lat="48.72295" lon="1.80532">
        <ele>180.19999694824</ele>
        <time>2012-03-27T11:08:26.000Z</time>
      </trkpt>
      <trkpt lat="48.7229" lon="1.80522">
        <ele>180.39999389648</ele>
        <time>2012-03-27T11:08:30.000Z</time>
      </trkpt>
      <trkpt lat="48.72277" lon="1.80508">
        <ele>181.19999694824</ele>
        <time>2012-03-27T11:08:35.000Z</time>
      </trkpt>
      <trkpt lat="48.7226" lon="1.80485">
        <ele>182.19999694824</ele>
        <time>2012-03-27T11:08:41.000Z</time>
      </trkpt>
      <trkpt lat="48.72243" lon="1.80464">
        <ele>182.60000610352</ele>
        <time>2012-03-27T11:08:47.000Z</time>
      </trkpt>
      <trkpt lat="48.72228" lon="1.80448">
        <ele>182.39999389648</ele>
        <time>2012-03-27T11:08:52.000Z</time>
      </trkpt>
      <trkpt lat="48.72214" lon="1.80433">
        <ele>182.39999389648</ele>
        <time>2012-03-27T11:08:57.000Z</time>
      </trkpt>
      <trkpt lat="48.72201" lon="1.80416">
        <ele>182.60000610352</ele>
        <time>2012-03-27T11:09:02.000Z</time>
      </trkpt>
      <trkpt lat="48.72193" lon="1.80409">
        <ele>182.39999389648</ele>
        <time>2012-03-27T11:09:06.000Z</time>
      </trkpt>
      <trkpt lat="48.72181" lon="1.80396">
        <ele>182.19999694824</ele>
        <time>2012-03-27T11:09:12.000Z</time>
      </trkpt>
      <trkpt lat="48.7217" lon="1.80381">
        <ele>181.60000610352</ele>
        <time>2012-03-27T11:09:17.000Z</time>
      </trkpt>
      <trkpt lat="48.72152" lon="1.8036">
        <ele>181.19999694824</ele>
        <time>2012-03-27T11:09:24.000Z</time>
      </trkpt>
      <trkpt lat="48.72141" lon="1.80345">
        <ele>181</ele>
        <time>2012-03-27T11:09:29.000Z</time>
      </trkpt>
      <trkpt lat="48.72131" lon="1.80336">
        <ele>181.19999694824</ele>
        <time>2012-03-27T11:09:35.000Z</time>
      </trkpt>
      <trkpt lat="48.72122" lon="1.80328">
        <ele>181.60000610352</ele>
        <time>2012-03-27T11:09:39.000Z</time>
      </trkpt>
      <trkpt lat="48.72107" lon="1.80316">
        <ele>182</ele>
        <time>2012-03-27T11:09:45.000Z</time>
      </trkpt>
      <trkpt lat="48.72097" lon="1.80307">
        <ele>182.39999389648</ele>
        <time>2012-03-27T11:09:51.000Z</time>
      </trkpt>
      <trkpt lat="48.72091" lon="1.80298">
        <ele>182.60000610352</ele>
        <time>2012-03-27T11:09:56.000Z</time>
      </trkpt>
      <trkpt lat="48.72086" lon="1.8029">
        <ele>182.80000305176</ele>
        <time>2012-03-27T11:10:01.000Z</time>
      </trkpt>
      <trkpt lat="48.72079" lon="1.80281">
        <ele>183</ele>
        <time>2012-03-27T11:10:05.000Z</time>
      </trkpt>
      <trkpt lat="48.72067" lon="1.80266">
        <ele>182.80000305176</ele>
        <time>2012-03-27T11:10:12.000Z</time>
      </trkpt>
      <trkpt lat="48.72064" lon="1.80263">
        <ele>182.80000305176</ele>
        <time>2012-03-27T11:10:14.000Z</time>
      </trkpt>
      <trkpt lat="48.72058" lon="1.80257">
        <ele>183</ele>
        <time>2012-03-27T11:10:19.000Z</time>
      </trkpt>
      <trkpt lat="48.72047" lon="1.80241">
        <ele>182.60000610352</ele>
        <time>2012-03-27T11:10:27.000Z</time>
      </trkpt>
      <trkpt lat="48.72038" lon="1.80224">
        <ele>182.19999694824</ele>
        <time>2012-03-27T11:10:34.000Z</time>
      </trkpt>
      <trkpt lat="48.72033" lon="1.80211">
        <ele>181.80000305176</ele>
        <time>2012-03-27T11:10:39.000Z</time>
      </trkpt>
      <trkpt lat="48.72024" lon="1.80197">
        <ele>181.60000610352</ele>
        <time>2012-03-27T11:10:45.000Z</time>
      </trkpt>
      <trkpt lat="48.72015" lon="1.80192">
        <ele>181.80000305176</ele>
        <time>2012-03-27T11:10:50.000Z</time>
      </trkpt>
      <trkpt lat="48.72013" lon="1.80191">
        <ele>181.80000305176</ele>
        <time>2012-03-27T11:10:51.000Z</time>
      </trkpt>
      <trkpt lat="48.72003" lon="1.80182">
        <ele>182</ele>
        <time>2012-03-27T11:10:55.000Z</time>
      </trkpt>
      <trkpt lat="48.71993" lon="1.80166">
        <ele>182</ele>
        <time>2012-03-27T11:11:00.000Z</time>
      </trkpt>
      <trkpt lat="48.71982" lon="1.80156">
        <ele>182</ele>
        <time>2012-03-27T11:11:05.000Z</time>
      </trkpt>
      <trkpt lat="48.71972" lon="1.80145">
        <ele>182</ele>
        <time>2012-03-27T11:11:11.000Z</time>
      </trkpt>
      <trkpt lat="48.71961" lon="1.80133">
        <ele>182</ele>
        <time>2012-03-27T11:11:16.000Z</time>
      </trkpt>
      <trkpt lat="48.71952" lon="1.80123">
        <ele>182.19999694824</ele>
        <time>2012-03-27T11:11:21.000Z</time>
      </trkpt>
      <trkpt lat="48.7194" lon="1.80112">
        <ele>182.39999389648</ele>
        <time>2012-03-27T11:11:26.000Z</time>
      </trkpt>
      <trkpt lat="48.71927" lon="1.80095">
        <ele>182.60000610352</ele>
        <time>2012-03-27T11:11:31.000Z</time>
      </trkpt>
      <trkpt lat="48.71916" lon="1.80081">
        <ele>183</ele>
        <time>2012-03-27T11:11:35.000Z</time>
      </trkpt>
      <trkpt lat="48.71913" lon="1.80079">
        <ele>182.80000305176</ele>
        <time>2012-03-27T11:11:36.000Z</time>
      </trkpt>
      <trkpt lat="48.71898" lon="1.80073">
        <ele>182.39999389648</ele>
        <time>2012-03-27T11:11:41.000Z</time>
      </trkpt>
      <trkpt lat="48.71881" lon="1.80054">
        <ele>181.80000305176</ele>
        <time>2012-03-27T11:11:48.000Z</time>
      </trkpt>
      <trkpt lat="48.71874" lon="1.80035">
        <ele>181.80000305176</ele>
        <time>2012-03-27T11:11:53.000Z</time>
      </trkpt>
      <trkpt lat="48.71862" lon="1.80019">
        <ele>181.60000610352</ele>
        <time>2012-03-27T11:11:58.000Z</time>
      </trkpt>
      <trkpt lat="48.7185" lon="1.80006">
        <ele>181.80000305176</ele>
        <time>2012-03-27T11:12:03.000Z</time>
      </trkpt>
      <trkpt lat="48.71841" lon="1.80003">
        <ele>181.80000305176</ele>
        <time>2012-03-27T11:12:07.000Z</time>
      </trkpt>
      <trkpt lat="48.71832" lon="1.79997">
        <ele>182</ele>
        <time>2012-03-27T11:12:13.000Z</time>
      </trkpt>
      <trkpt lat="48.71829" lon="1.79996">
        <ele>181.80000305176</ele>
        <time>2012-03-27T11:12:15.000Z</time>
      </trkpt>
      <trkpt lat="48.71822" lon="1.79991">
        <ele>181.60000610352</ele>
        <time>2012-03-27T11:12:21.000Z</time>
      </trkpt>
      <trkpt lat="48.71818" lon="1.79991">
        <ele>181.39999389648</ele>
        <time>2012-03-27T11:12:25.000Z</time>
      </trkpt>
      <trkpt lat="48.71812" lon="1.79988">
        <ele>181.39999389648</ele>
        <time>2012-03-27T11:12:30.000Z</time>
      </trkpt>
      <trkpt lat="48.71809" lon="1.79985">
        <ele>181.19999694824</ele>
        <time>2012-03-27T11:12:33.000Z</time>
      </trkpt>
      <trkpt lat="48.71801" lon="1.79975">
        <ele>180.80000305176</ele>
        <time>2012-03-27T11:12:40.000Z</time>
      </trkpt>
      <trkpt lat="48.71796" lon="1.7997">
        <ele>180.60000610352</ele>
        <time>2012-03-27T11:12:44.000Z</time>
      </trkpt>
      <trkpt lat="48.71792" lon="1.79961">
        <ele>180.19999694824</ele>
        <time>2012-03-27T11:12:50.000Z</time>
      </trkpt>
      <trkpt lat="48.71783" lon="1.79945">
        <ele>179.80000305176</ele>
        <time>2012-03-27T11:12:58.000Z</time>
      </trkpt>
      <trkpt lat="48.71776" lon="1.79932">
        <ele>179.19999694824</ele>
        <time>2012-03-27T11:13:04.000Z</time>
      </trkpt>
      <trkpt lat="48.7177" lon="1.7992">
        <ele>178.80000305176</ele>
        <time>2012-03-27T11:13:11.000Z</time>
      </trkpt>
      <trkpt lat="48.71765" lon="1.79906">
        <ele>178</ele>
        <time>2012-03-27T11:13:18.000Z</time>
      </trkpt>
      <trkpt lat="48.71758" lon="1.79892">
        <ele>177</ele>
        <time>2012-03-27T11:13:26.000Z</time>
      </trkpt>
      <trkpt lat="48.7175" lon="1.79882">
        <ele>176.39999389648</ele>
        <time>2012-03-27T11:13:33.000Z</time>
      </trkpt>
      <trkpt lat="48.71743" lon="1.79874">
        <ele>175.60000610352</ele>
        <time>2012-03-27T11:13:39.000Z</time>
      </trkpt>
      <trkpt lat="48.71735" lon="1.79861">
        <ele>174.80000305176</ele>
        <time>2012-03-27T11:13:46.000Z</time>
      </trkpt>
      <trkpt lat="48.71732" lon="1.79845">
        <ele>174</ele>
        <time>2012-03-27T11:13:52.000Z</time>
      </trkpt>
      <trkpt lat="48.71735" lon="1.79834">
        <ele>173.60000610352</ele>
        <time>2012-03-27T11:13:56.000Z</time>
      </trkpt>
      <trkpt lat="48.71739" lon="1.79816">
        <ele>173.60000610352</ele>
        <time>2012-03-27T11:14:03.000Z</time>
      </trkpt>
      <trkpt lat="48.71742" lon="1.79807">
        <ele>173.60000610352</ele>
        <time>2012-03-27T11:14:07.000Z</time>
      </trkpt>
      <trkpt lat="48.71743" lon="1.79795">
        <ele>173.39999389648</ele>
        <time>2012-03-27T11:14:11.000Z</time>
      </trkpt>
      <trkpt lat="48.71742" lon="1.79787">
        <ele>173.19999694824</ele>
        <time>2012-03-27T11:14:14.000Z</time>
      </trkpt>
      <trkpt lat="48.71741" lon="1.79783">
        <ele>173.19999694824</ele>
        <time>2012-03-27T11:14:15.000Z</time>
      </trkpt>
      <trkpt lat="48.71732" lon="1.79767">
        <ele>173</ele>
        <time>2012-03-27T11:14:23.000Z</time>
      </trkpt>
      <trkpt lat="48.71727" lon="1.79759">
        <ele>172.80000305176</ele>
        <time>2012-03-27T11:14:27.000Z</time>
      </trkpt>
      <trkpt lat="48.71721" lon="1.79749">
        <ele>172.60000610352</ele>
        <time>2012-03-27T11:14:33.000Z</time>
      </trkpt>
      <trkpt lat="48.71719" lon="1.79747">
        <ele>172.60000610352</ele>
        <time>2012-03-27T11:14:34.000Z</time>
      </trkpt>
      <trkpt lat="48.71712" lon="1.79734">
        <ele>172.60000610352</ele>
        <time>2012-03-27T11:14:40.000Z</time>
      </trkpt>
      <trkpt lat="48.71707" lon="1.79725">
        <ele>172.60000610352</ele>
        <time>2012-03-27T11:14:44.000Z</time>
      </trkpt>
      <trkpt lat="48.71702" lon="1.79717">
        <ele>172.60000610352</ele>
        <time>2012-03-27T11:14:49.000Z</time>
      </trkpt>
      <trkpt lat="48.71695" lon="1.79709">
        <ele>172.60000610352</ele>
        <time>2012-03-27T11:14:54.000Z</time>
      </trkpt>
      <trkpt lat="48.71685" lon="1.79699">
        <ele>172.60000610352</ele>
        <time>2012-03-27T11:15:02.000Z</time>
      </trkpt>
      <trkpt lat="48.71676" lon="1.79691">
        <ele>172.80000305176</ele>
        <time>2012-03-27T11:15:09.000Z</time>
      </trkpt>
      <trkpt lat="48.71667" lon="1.79681">
        <ele>172.80000305176</ele>
        <time>2012-03-27T11:15:16.000Z</time>
      </trkpt>
      <trkpt lat="48.71656" lon="1.79667">
        <ele>173.19999694824</ele>
        <time>2012-03-27T11:15:24.000Z</time>
      </trkpt>
      <trkpt lat="48.71647" lon="1.79654">
        <ele>173.19999694824</ele>
        <time>2012-03-27T11:15:30.000Z</time>
      </trkpt>
      <trkpt lat="48.71646" lon="1.79652">
        <ele>173.19999694824</ele>
        <time>2012-03-27T11:15:31.000Z</time>
      </trkpt>
      <trkpt lat="48.71634" lon="1.79635">
        <ele>173.19999694824</ele>
        <time>2012-03-27T11:15:40.000Z</time>
      </trkpt>
      <trkpt lat="48.71625" lon="1.79623">
        <ele>173.19999694824</ele>
        <time>2012-03-27T11:15:47.000Z</time>
      </trkpt>
      <trkpt lat="48.71616" lon="1.79605">
        <ele>173.39999389648</ele>
        <time>2012-03-27T11:15:55.000Z</time>
      </trkpt>
      <trkpt lat="48.71608" lon="1.79588">
        <ele>173.39999389648</ele>
        <time>2012-03-27T11:16:04.000Z</time>
      </trkpt>
      <trkpt lat="48.716" lon="1.79573">
        <ele>173.60000610352</ele>
        <time>2012-03-27T11:16:12.000Z</time>
      </trkpt>
      <trkpt lat="48.71593" lon="1.7956">
        <ele>173.80000305176</ele>
        <time>2012-03-27T11:16:19.000Z</time>
      </trkpt>
      <trkpt lat="48.71583" lon="1.79545">
        <ele>174</ele>
        <time>2012-03-27T11:16:27.000Z</time>
      </trkpt>
      <trkpt lat="48.71576" lon="1.79536">
        <ele>174.39999389648</ele>
        <time>2012-03-27T11:16:33.000Z</time>
      </trkpt>
      <trkpt lat="48.71565" lon="1.79526">
        <ele>174.80000305176</ele>
        <time>2012-03-27T11:16:41.000Z</time>
      </trkpt>
      <trkpt lat="48.71555" lon="1.79514">
        <ele>175</ele>
        <time>2012-03-27T11:16:49.000Z</time>
      </trkpt>
      <trkpt lat="48.71546" lon="1.79505">
        <ele>175.39999389648</ele>
        <time>2012-03-27T11:16:55.000Z</time>
      </trkpt>
      <trkpt lat="48.71539" lon="1.79494">
        <ele>175.60000610352</ele>
        <time>2012-03-27T11:17:01.000Z</time>
      </trkpt>
      <trkpt lat="48.7153" lon="1.79482">
        <ele>176.19999694824</ele>
        <time>2012-03-27T11:17:08.000Z</time>
      </trkpt>
      <trkpt lat="48.71523" lon="1.79472">
        <ele>176.60000610352</ele>
        <time>2012-03-27T11:17:14.000Z</time>
      </trkpt>
      <trkpt lat="48.71516" lon="1.79455">
        <ele>177</ele>
        <time>2012-03-27T11:17:22.000Z</time>
      </trkpt>
      <trkpt lat="48.71509" lon="1.79443">
        <ele>177.39999389648</ele>
        <time>2012-03-27T11:17:29.000Z</time>
      </trkpt>
      <trkpt lat="48.71503" lon="1.79432">
        <ele>177.80000305176</ele>
        <time>2012-03-27T11:17:35.000Z</time>
      </trkpt>
      <trkpt lat="48.71502" lon="1.7943">
        <ele>177.80000305176</ele>
        <time>2012-03-27T11:17:38.000Z</time>
      </trkpt>
      <trkpt lat="48.71496" lon="1.7942">
        <ele>177.80000305176</ele>
        <time>2012-03-27T11:18:11.000Z</time>
      </trkpt>
      <trkpt lat="48.71494" lon="1.79409">
        <ele>178</ele>
        <time>2012-03-27T11:18:15.000Z</time>
      </trkpt>
      <trkpt lat="48.71487" lon="1.79398">
        <ele>178.19999694824</ele>
        <time>2012-03-27T11:18:21.000Z</time>
      </trkpt>
      <trkpt lat="48.71482" lon="1.79386">
        <ele>178.39999389648</ele>
        <time>2012-03-27T11:18:26.000Z</time>
      </trkpt>
      <trkpt lat="48.71476" lon="1.79379">
        <ele>178.39999389648</ele>
        <time>2012-03-27T11:18:31.000Z</time>
      </trkpt>
      <trkpt lat="48.71474" lon="1.79377">
        <ele>178.39999389648</ele>
        <time>2012-03-27T11:18:33.000Z</time>
      </trkpt>
      <trkpt lat="48.71467" lon="1.79375">
        <ele>178.39999389648</ele>
        <time>2012-03-27T11:18:38.000Z</time>
      </trkpt>
      <trkpt lat="48.71459" lon="1.79371">
        <ele>178.39999389648</ele>
        <time>2012-03-27T11:18:45.000Z</time>
      </trkpt>
      <trkpt lat="48.71447" lon="1.79366">
        <ele>178.39999389648</ele>
        <time>2012-03-27T11:18:53.000Z</time>
      </trkpt>
      <trkpt lat="48.71437" lon="1.79366">
        <ele>178.19999694824</ele>
        <time>2012-03-27T11:18:58.000Z</time>
      </trkpt>
      <trkpt lat="48.71427" lon="1.79363">
        <ele>178</ele>
        <time>2012-03-27T11:19:05.000Z</time>
      </trkpt>
      <trkpt lat="48.71417" lon="1.79357">
        <ele>178.19999694824</ele>
        <time>2012-03-27T11:19:12.000Z</time>
      </trkpt>
      <trkpt lat="48.71408" lon="1.79352">
        <ele>178.39999389648</ele>
        <time>2012-03-27T11:19:17.000Z</time>
      </trkpt>
      <trkpt lat="48.71398" lon="1.79348">
        <ele>178.39999389648</ele>
        <time>2012-03-27T11:19:23.000Z</time>
      </trkpt>
      <trkpt lat="48.71388" lon="1.79347">
        <ele>178.39999389648</ele>
        <time>2012-03-27T11:19:28.000Z</time>
      </trkpt>
      <trkpt lat="48.71377" lon="1.79343">
        <ele>178.60000610352</ele>
        <time>2012-03-27T11:19:35.000Z</time>
      </trkpt>
      <trkpt lat="48.71374" lon="1.79342">
        <ele>178.60000610352</ele>
        <time>2012-03-27T11:19:37.000Z</time>
      </trkpt>
      <trkpt lat="48.71361" lon="1.79338">
        <ele>178.80000305176</ele>
        <time>2012-03-27T11:19:45.000Z</time>
      </trkpt>
      <trkpt lat="48.71347" lon="1.79335">
        <ele>179</ele>
        <time>2012-03-27T11:19:54.000Z</time>
      </trkpt>
      <trkpt lat="48.71335" lon="1.79328">
        <ele>179</ele>
        <time>2012-03-27T11:20:03.000Z</time>
      </trkpt>
      <trkpt lat="48.71324" lon="1.79325">
        <ele>179</ele>
        <time>2012-03-27T11:20:09.000Z</time>
      </trkpt>
      <trkpt lat="48.71315" lon="1.79323">
        <ele>179</ele>
        <time>2012-03-27T11:20:15.000Z</time>
      </trkpt>
      <trkpt lat="48.71302" lon="1.79316">
        <ele>179</ele>
        <time>2012-03-27T11:20:23.000Z</time>
      </trkpt>
      <trkpt lat="48.71291" lon="1.79317">
        <ele>179.19999694824</ele>
        <time>2012-03-27T11:20:30.000Z</time>
      </trkpt>
      <trkpt lat="48.71279" lon="1.79316">
        <ele>179.19999694824</ele>
        <time>2012-03-27T11:20:37.000Z</time>
      </trkpt>
      <trkpt lat="48.71266" lon="1.79316">
        <ele>179.19999694824</ele>
        <time>2012-03-27T11:20:45.000Z</time>
      </trkpt>
      <trkpt lat="48.71256" lon="1.79318">
        <ele>179.19999694824</ele>
        <time>2012-03-27T11:20:51.000Z</time>
      </trkpt>
      <trkpt lat="48.71246" lon="1.79319">
        <ele>179.19999694824</ele>
        <time>2012-03-27T11:20:58.000Z</time>
      </trkpt>
      <trkpt lat="48.71238" lon="1.7932">
        <ele>179.39999389648</ele>
        <time>2012-03-27T11:21:03.000Z</time>
      </trkpt>
      <trkpt lat="48.71227" lon="1.79321">
        <ele>179.80000305176</ele>
        <time>2012-03-27T11:21:10.000Z</time>
      </trkpt>
      <trkpt lat="48.71214" lon="1.79324">
        <ele>180</ele>
        <time>2012-03-27T11:21:18.000Z</time>
      </trkpt>
      <trkpt lat="48.71206" lon="1.79325">
        <ele>180.19999694824</ele>
        <time>2012-03-27T11:21:23.000Z</time>
      </trkpt>
      <trkpt lat="48.71197" lon="1.79325">
        <ele>180.39999389648</ele>
        <time>2012-03-27T11:21:29.000Z</time>
      </trkpt>
      <trkpt lat="48.71186" lon="1.79325">
        <ele>180.60000610352</ele>
        <time>2012-03-27T11:21:36.000Z</time>
      </trkpt>
      <trkpt lat="48.71178" lon="1.79328">
        <ele>180.80000305176</ele>
        <time>2012-03-27T11:21:41.000Z</time>
      </trkpt>
      <trkpt lat="48.71167" lon="1.79329">
        <ele>181</ele>
        <time>2012-03-27T11:21:48.000Z</time>
      </trkpt>
      <trkpt lat="48.71158" lon="1.79333">
        <ele>181.39999389648</ele>
        <time>2012-03-27T11:21:54.000Z</time>
      </trkpt>
      <trkpt lat="48.71145" lon="1.79336">
        <ele>181.60000610352</ele>
        <time>2012-03-27T11:22:01.000Z</time>
      </trkpt>
      <trkpt lat="48.71134" lon="1.79339">
        <ele>181.80000305176</ele>
        <time>2012-03-27T11:22:08.000Z</time>
      </trkpt>
      <trkpt lat="48.7113" lon="1.79341">
        <ele>182</ele>
        <time>2012-03-27T11:22:11.000Z</time>
      </trkpt>
      <trkpt lat="48.71119" lon="1.79344">
        <ele>182.19999694824</ele>
        <time>2012-03-27T11:22:18.000Z</time>
      </trkpt>
      <trkpt lat="48.71112" lon="1.79342">
        <ele>182.60000610352</ele>
        <time>2012-03-27T11:22:23.000Z</time>
      </trkpt>
      <trkpt lat="48.71104" lon="1.7935">
        <ele>182.39999389648</ele>
        <time>2012-03-27T11:22:29.000Z</time>
      </trkpt>
      <trkpt lat="48.71095" lon="1.79359">
        <ele>182.39999389648</ele>
        <time>2012-03-27T11:22:36.000Z</time>
      </trkpt>
      <trkpt lat="48.71083" lon="1.79368">
        <ele>182.39999389648</ele>
        <time>2012-03-27T11:22:45.000Z</time>
      </trkpt>
      <trkpt lat="48.71081" lon="1.79373">
        <ele>182.19999694824</ele>
        <time>2012-03-27T11:22:50.000Z</time>
      </trkpt>
      <trkpt lat="48.71068" lon="1.79383">
        <ele>182.19999694824</ele>
        <time>2012-03-27T11:23:24.000Z</time>
      </trkpt>
      <trkpt lat="48.71055" lon="1.79395">
        <ele>182.19999694824</ele>
        <time>2012-03-27T11:23:33.000Z</time>
      </trkpt>
      <trkpt lat="48.71046" lon="1.79411">
        <ele>182</ele>
        <time>2012-03-27T11:23:39.000Z</time>
      </trkpt>
      <trkpt lat="48.71036" lon="1.79426">
        <ele>181.80000305176</ele>
        <time>2012-03-27T11:23:45.000Z</time>
      </trkpt>
      <trkpt lat="48.71023" lon="1.79439">
        <ele>181.80000305176</ele>
        <time>2012-03-27T11:23:52.000Z</time>
      </trkpt>
      <trkpt lat="48.71014" lon="1.79438">
        <ele>182.19999694824</ele>
        <time>2012-03-27T11:23:58.000Z</time>
      </trkpt>
      <trkpt lat="48.71005" lon="1.79439">
        <ele>182.39999389648</ele>
        <time>2012-03-27T11:24:05.000Z</time>
      </trkpt>
      <trkpt lat="48.70995" lon="1.7944">
        <ele>182.80000305176</ele>
        <time>2012-03-27T11:24:12.000Z</time>
      </trkpt>
      <trkpt lat="48.70988" lon="1.79442">
        <ele>183</ele>
        <time>2012-03-27T11:24:17.000Z</time>
      </trkpt>
      <trkpt lat="48.70978" lon="1.79445">
        <ele>183.19999694824</ele>
        <time>2012-03-27T11:24:24.000Z</time>
      </trkpt>
      <trkpt lat="48.70971" lon="1.79447">
        <ele>183.39999389648</ele>
        <time>2012-03-27T11:24:29.000Z</time>
      </trkpt>
      <trkpt lat="48.70957" lon="1.79448">
        <ele>183.80000305176</ele>
        <time>2012-03-27T11:24:38.000Z</time>
      </trkpt>
      <trkpt lat="48.7095" lon="1.79449">
        <ele>184</ele>
        <time>2012-03-27T11:24:43.000Z</time>
      </trkpt>
      <trkpt lat="48.70942" lon="1.79445">
        <ele>184.60000610352</ele>
        <time>2012-03-27T11:24:51.000Z</time>
      </trkpt>
      <trkpt lat="48.70929" lon="1.79447">
        <ele>185</ele>
        <time>2012-03-27T11:24:58.000Z</time>
      </trkpt>
      <trkpt lat="48.70918" lon="1.79448">
        <ele>185.39999389648</ele>
        <time>2012-03-27T11:25:04.000Z</time>
      </trkpt>
      <trkpt lat="48.7091" lon="1.7945">
        <ele>185.39999389648</ele>
        <time>2012-03-27T11:25:08.000Z</time>
      </trkpt>
      <trkpt lat="48.70901" lon="1.79452">
        <ele>185.19999694824</ele>
        <time>2012-03-27T11:25:14.000Z</time>
      </trkpt>
      <trkpt lat="48.70894" lon="1.79453">
        <ele>185.19999694824</ele>
        <time>2012-03-27T11:25:18.000Z</time>
      </trkpt>
      <trkpt lat="48.70888" lon="1.79452">
        <ele>185.19999694824</ele>
        <time>2012-03-27T11:25:22.000Z</time>
      </trkpt>
      <trkpt lat="48.70882" lon="1.79452">
        <ele>185.19999694824</ele>
        <time>2012-03-27T11:25:27.000Z</time>
      </trkpt>
      <trkpt lat="48.70869" lon="1.7945">
        <ele>185.19999694824</ele>
        <time>2012-03-27T11:25:34.000Z</time>
      </trkpt>
      <trkpt lat="48.70858" lon="1.79447">
        <ele>185.39999389648</ele>
        <time>2012-03-27T11:25:41.000Z</time>
      </trkpt>
      <trkpt lat="48.70848" lon="1.79443">
        <ele>185.39999389648</ele>
        <time>2012-03-27T11:25:47.000Z</time>
      </trkpt>
      <trkpt lat="48.70835" lon="1.79437">
        <ele>185.60000610352</ele>
        <time>2012-03-27T11:25:55.000Z</time>
      </trkpt>
      <trkpt lat="48.70825" lon="1.79433">
        <ele>185.60000610352</ele>
        <time>2012-03-27T11:26:01.000Z</time>
      </trkpt>
      <trkpt lat="48.70813" lon="1.79431">
        <ele>185.60000610352</ele>
        <time>2012-03-27T11:26:09.000Z</time>
      </trkpt>
      <trkpt lat="48.70804" lon="1.79426">
        <ele>185.80000305176</ele>
        <time>2012-03-27T11:26:16.000Z</time>
      </trkpt>
      <trkpt lat="48.70795" lon="1.79423">
        <ele>185.80000305176</ele>
        <time>2012-03-27T11:26:22.000Z</time>
      </trkpt>
      <trkpt lat="48.70788" lon="1.79422">
        <ele>185.80000305176</ele>
        <time>2012-03-27T11:26:27.000Z</time>
      </trkpt>
      <trkpt lat="48.70785" lon="1.79423">
        <ele>185.80000305176</ele>
        <time>2012-03-27T11:26:29.000Z</time>
      </trkpt>
      <trkpt lat="48.70774" lon="1.7942">
        <ele>185.80000305176</ele>
        <time>2012-03-27T11:26:35.000Z</time>
      </trkpt>
      <trkpt lat="48.70768" lon="1.79419">
        <ele>186</ele>
        <time>2012-03-27T11:26:39.000Z</time>
      </trkpt>
      <trkpt lat="48.70752" lon="1.79417">
        <ele>186</ele>
        <time>2012-03-27T11:26:48.000Z</time>
      </trkpt>
      <trkpt lat="48.70742" lon="1.79413">
        <ele>185.80000305176</ele>
        <time>2012-03-27T11:26:54.000Z</time>
      </trkpt>
      <trkpt lat="48.70726" lon="1.79412">
        <ele>185.19999694824</ele>
        <time>2012-03-27T11:27:04.000Z</time>
      </trkpt>
      <trkpt lat="48.70709" lon="1.79406">
        <ele>184.80000305176</ele>
        <time>2012-03-27T11:27:15.000Z</time>
      </trkpt>
      <trkpt lat="48.70699" lon="1.79406">
        <ele>184.39999389648</ele>
        <time>2012-03-27T11:27:21.000Z</time>
      </trkpt>
      <trkpt lat="48.70689" lon="1.79407">
        <ele>184</ele>
        <time>2012-03-27T11:27:27.000Z</time>
      </trkpt>
      <trkpt lat="48.70677" lon="1.79408">
        <ele>183.60000610352</ele>
        <time>2012-03-27T11:27:34.000Z</time>
      </trkpt>
      <trkpt lat="48.7067" lon="1.79407">
        <ele>183.39999389648</ele>
        <time>2012-03-27T11:27:39.000Z</time>
      </trkpt>
      <trkpt lat="48.70659" lon="1.79407">
        <ele>183.39999389648</ele>
        <time>2012-03-27T11:27:45.000Z</time>
      </trkpt>
      <trkpt lat="48.70653" lon="1.79405">
        <ele>183.60000610352</ele>
        <time>2012-03-27T11:27:49.000Z</time>
      </trkpt>
      <trkpt lat="48.7065" lon="1.79392">
        <ele>184.19999694824</ele>
        <time>2012-03-27T11:27:54.000Z</time>
      </trkpt>
      <trkpt lat="48.70649" lon="1.79387">
        <ele>184.19999694824</ele>
        <time>2012-03-27T11:27:56.000Z</time>
      </trkpt>
      <trkpt lat="48.70647" lon="1.79371">
        <ele>184.80000305176</ele>
        <time>2012-03-27T11:28:02.000Z</time>
      </trkpt>
      <trkpt lat="48.70645" lon="1.79356">
        <ele>185.39999389648</ele>
        <time>2012-03-27T11:28:08.000Z</time>
      </trkpt>
      <trkpt lat="48.70644" lon="1.79345">
        <ele>185.80000305176</ele>
        <time>2012-03-27T11:28:12.000Z</time>
      </trkpt>
      <trkpt lat="48.70641" lon="1.79328">
        <ele>186.19999694824</ele>
        <time>2012-03-27T11:28:18.000Z</time>
      </trkpt>
      <trkpt lat="48.70638" lon="1.79315">
        <ele>186.19999694824</ele>
        <time>2012-03-27T11:28:24.000Z</time>
      </trkpt>
      <trkpt lat="48.70635" lon="1.793">
        <ele>186.19999694824</ele>
        <time>2012-03-27T11:28:30.000Z</time>
      </trkpt>
      <trkpt lat="48.70632" lon="1.79284">
        <ele>186</ele>
        <time>2012-03-27T11:28:38.000Z</time>
      </trkpt>
      <trkpt lat="48.70628" lon="1.79266">
        <ele>186</ele>
        <time>2012-03-27T11:28:46.000Z</time>
      </trkpt>
      <trkpt lat="48.70627" lon="1.79253">
        <ele>186</ele>
        <time>2012-03-27T11:28:52.000Z</time>
      </trkpt>
      <trkpt lat="48.70624" lon="1.79237">
        <ele>186</ele>
        <time>2012-03-27T11:28:59.000Z</time>
      </trkpt>
      <trkpt lat="48.70622" lon="1.79222">
        <ele>186.19999694824</ele>
        <time>2012-03-27T11:29:06.000Z</time>
      </trkpt>
      <trkpt lat="48.70619" lon="1.79203">
        <ele>186.39999389648</ele>
        <time>2012-03-27T11:29:14.000Z</time>
      </trkpt>
      <trkpt lat="48.70615" lon="1.79184">
        <ele>186.39999389648</ele>
        <time>2012-03-27T11:29:21.000Z</time>
      </trkpt>
      <trkpt lat="48.70614" lon="1.79171">
        <ele>186.60000610352</ele>
        <time>2012-03-27T11:29:27.000Z</time>
      </trkpt>
      <trkpt lat="48.70611" lon="1.79156">
        <ele>186.80000305176</ele>
        <time>2012-03-27T11:29:33.000Z</time>
      </trkpt>
      <trkpt lat="48.7061" lon="1.79148">
        <ele>186.80000305176</ele>
        <time>2012-03-27T11:29:37.000Z</time>
      </trkpt>
      <trkpt lat="48.70608" lon="1.7913">
        <ele>187</ele>
        <time>2012-03-27T11:29:45.000Z</time>
      </trkpt>
      <trkpt lat="48.70608" lon="1.79116">
        <ele>187.19999694824</ele>
        <time>2012-03-27T11:29:51.000Z</time>
      </trkpt>
      <trkpt lat="48.70607" lon="1.79106">
        <ele>187.19999694824</ele>
        <time>2012-03-27T11:29:56.000Z</time>
      </trkpt>
      <trkpt lat="48.70605" lon="1.79092">
        <ele>187.39999389648</ele>
        <time>2012-03-27T11:30:02.000Z</time>
      </trkpt>
      <trkpt lat="48.70605" lon="1.79091">
        <ele>187.39999389648</ele>
        <time>2012-03-27T11:30:03.000Z</time>
      </trkpt>
      <trkpt lat="48.706" lon="1.79074">
        <ele>187.60000610352</ele>
        <time>2012-03-27T11:30:11.000Z</time>
      </trkpt>
      <trkpt lat="48.70598" lon="1.79056">
        <ele>187.80000305176</ele>
        <time>2012-03-27T11:30:17.000Z</time>
      </trkpt>
      <trkpt lat="48.70599" lon="1.79041">
        <ele>187.80000305176</ele>
        <time>2012-03-27T11:30:24.000Z</time>
      </trkpt>
      <trkpt lat="48.70595" lon="1.79027">
        <ele>188</ele>
        <time>2012-03-27T11:30:30.000Z</time>
      </trkpt>
      <trkpt lat="48.70594" lon="1.79016">
        <ele>188</ele>
        <time>2012-03-27T11:30:34.000Z</time>
      </trkpt>
      <trkpt lat="48.70591" lon="1.79008">
        <ele>188</ele>
        <time>2012-03-27T11:30:38.000Z</time>
      </trkpt>
      <trkpt lat="48.70589" lon="1.78996">
        <ele>188</ele>
        <time>2012-03-27T11:30:44.000Z</time>
      </trkpt>
      <trkpt lat="48.70584" lon="1.78974">
        <ele>188</ele>
        <time>2012-03-27T11:30:54.000Z</time>
      </trkpt>
      <trkpt lat="48.70583" lon="1.78961">
        <ele>188</ele>
        <time>2012-03-27T11:31:00.000Z</time>
      </trkpt>
      <trkpt lat="48.7058" lon="1.78943">
        <ele>188</ele>
        <time>2012-03-27T11:31:06.000Z</time>
      </trkpt>
      <trkpt lat="48.70574" lon="1.78917">
        <ele>188</ele>
        <time>2012-03-27T11:31:12.000Z</time>
      </trkpt>
      <trkpt lat="48.70569" lon="1.78883">
        <ele>187.60000610352</ele>
        <time>2012-03-27T11:31:18.000Z</time>
      </trkpt>
      <trkpt lat="48.70562" lon="1.78841">
        <ele>187.39999389648</ele>
        <time>2012-03-27T11:31:25.000Z</time>
      </trkpt>
      <trkpt lat="48.70558" lon="1.78817">
        <ele>187.39999389648</ele>
        <time>2012-03-27T11:31:29.000Z</time>
      </trkpt>
      <trkpt lat="48.70554" lon="1.78783">
        <ele>187.80000305176</ele>
        <time>2012-03-27T11:31:35.000Z</time>
      </trkpt>
      <trkpt lat="48.7055" lon="1.78759">
        <ele>188</ele>
        <time>2012-03-27T11:31:39.000Z</time>
      </trkpt>
      <trkpt lat="48.70544" lon="1.78714">
        <ele>188</ele>
        <time>2012-03-27T11:31:46.000Z</time>
      </trkpt>
      <trkpt lat="48.70539" lon="1.7869">
        <ele>188</ele>
        <time>2012-03-27T11:31:51.000Z</time>
      </trkpt>
      <trkpt lat="48.70535" lon="1.78659">
        <ele>188</ele>
        <time>2012-03-27T11:31:57.000Z</time>
      </trkpt>
      <trkpt lat="48.70532" lon="1.78628">
        <ele>188</ele>
        <time>2012-03-27T11:32:03.000Z</time>
      </trkpt>
      <trkpt lat="48.70529" lon="1.78602">
        <ele>188</ele>
        <time>2012-03-27T11:32:08.000Z</time>
      </trkpt>
      <trkpt lat="48.70521" lon="1.78571">
        <ele>188.19999694824</ele>
        <time>2012-03-27T11:32:14.000Z</time>
      </trkpt>
      <trkpt lat="48.70517" lon="1.78543">
        <ele>188.39999389648</ele>
        <time>2012-03-27T11:32:19.000Z</time>
      </trkpt>
      <trkpt lat="48.70512" lon="1.78513">
        <ele>188.80000305176</ele>
        <time>2012-03-27T11:32:24.000Z</time>
      </trkpt>
      <trkpt lat="48.7051" lon="1.785">
        <ele>189</ele>
        <time>2012-03-27T11:32:26.000Z</time>
      </trkpt>
      <trkpt lat="48.70505" lon="1.78478">
        <ele>189</ele>
        <time>2012-03-27T11:32:30.000Z</time>
      </trkpt>
      <trkpt lat="48.70503" lon="1.78461">
        <ele>189</ele>
        <time>2012-03-27T11:32:33.000Z</time>
      </trkpt>
      <trkpt lat="48.70498" lon="1.78427">
        <ele>189</ele>
        <time>2012-03-27T11:32:39.000Z</time>
      </trkpt>
      <trkpt lat="48.70494" lon="1.78403">
        <ele>189</ele>
        <time>2012-03-27T11:32:44.000Z</time>
      </trkpt>
      <trkpt lat="48.70488" lon="1.78378">
        <ele>189</ele>
        <time>2012-03-27T11:32:49.000Z</time>
      </trkpt>
      <trkpt lat="48.70485" lon="1.78345">
        <ele>189</ele>
        <time>2012-03-27T11:32:55.000Z</time>
      </trkpt>
      <trkpt lat="48.7048" lon="1.78318">
        <ele>189</ele>
        <time>2012-03-27T11:33:00.000Z</time>
      </trkpt>
      <trkpt lat="48.70477" lon="1.78295">
        <ele>189</ele>
        <time>2012-03-27T11:33:04.000Z</time>
      </trkpt>
      <trkpt lat="48.70473" lon="1.78273">
        <ele>189</ele>
        <time>2012-03-27T11:33:08.000Z</time>
      </trkpt>
      <trkpt lat="48.7047" lon="1.78244">
        <ele>189</ele>
        <time>2012-03-27T11:33:13.000Z</time>
      </trkpt>
      <trkpt lat="48.70465" lon="1.78214">
        <ele>188.80000305176</ele>
        <time>2012-03-27T11:33:18.000Z</time>
      </trkpt>
      <trkpt lat="48.7046" lon="1.78181">
        <ele>188.60000610352</ele>
        <time>2012-03-27T11:33:24.000Z</time>
      </trkpt>
      <trkpt lat="48.70456" lon="1.78153">
        <ele>188.60000610352</ele>
        <time>2012-03-27T11:33:29.000Z</time>
      </trkpt>
      <trkpt lat="48.70449" lon="1.7812">
        <ele>188.60000610352</ele>
        <time>2012-03-27T11:33:35.000Z</time>
      </trkpt>
      <trkpt lat="48.70444" lon="1.78092">
        <ele>188.60000610352</ele>
        <time>2012-03-27T11:33:40.000Z</time>
      </trkpt>
      <trkpt lat="48.7044" lon="1.78063">
        <ele>188.80000305176</ele>
        <time>2012-03-27T11:33:45.000Z</time>
      </trkpt>
      <trkpt lat="48.70436" lon="1.78032">
        <ele>188.80000305176</ele>
        <time>2012-03-27T11:33:50.000Z</time>
      </trkpt>
      <trkpt lat="48.70429" lon="1.77993">
        <ele>188.80000305176</ele>
        <time>2012-03-27T11:33:57.000Z</time>
      </trkpt>
      <trkpt lat="48.70425" lon="1.77966">
        <ele>188.60000610352</ele>
        <time>2012-03-27T11:34:02.000Z</time>
      </trkpt>
      <trkpt lat="48.7042" lon="1.77941">
        <ele>188.19999694824</ele>
        <time>2012-03-27T11:34:07.000Z</time>
      </trkpt>
      <trkpt lat="48.70415" lon="1.77911">
        <ele>188</ele>
        <time>2012-03-27T11:34:13.000Z</time>
      </trkpt>
      <trkpt lat="48.70412" lon="1.77883">
        <ele>188</ele>
        <time>2012-03-27T11:34:18.000Z</time>
      </trkpt>
      <trkpt lat="48.7041" lon="1.77873">
        <ele>188</ele>
        <time>2012-03-27T11:34:20.000Z</time>
      </trkpt>
      <trkpt lat="48.70404" lon="1.77838">
        <ele>188.19999694824</ele>
        <time>2012-03-27T11:34:26.000Z</time>
      </trkpt>
      <trkpt lat="48.70401" lon="1.77815">
        <ele>188</ele>
        <time>2012-03-27T11:34:30.000Z</time>
      </trkpt>
      <trkpt lat="48.70399" lon="1.77785">
        <ele>187.80000305176</ele>
        <time>2012-03-27T11:34:35.000Z</time>
      </trkpt>
      <trkpt lat="48.70395" lon="1.77765">
        <ele>187.60000610352</ele>
        <time>2012-03-27T11:34:39.000Z</time>
      </trkpt>
      <trkpt lat="48.7039" lon="1.77737">
        <ele>187.60000610352</ele>
        <time>2012-03-27T11:34:44.000Z</time>
      </trkpt>
      <trkpt lat="48.70385" lon="1.77703">
        <ele>187.80000305176</ele>
        <time>2012-03-27T11:34:50.000Z</time>
      </trkpt>
      <trkpt lat="48.7038" lon="1.77674">
        <ele>187.80000305176</ele>
        <time>2012-03-27T11:34:55.000Z</time>
      </trkpt>
      <trkpt lat="48.70373" lon="1.77641">
        <ele>188.19999694824</ele>
        <time>2012-03-27T11:35:01.000Z</time>
      </trkpt>
      <trkpt lat="48.7037" lon="1.77621">
        <ele>188.39999389648</ele>
        <time>2012-03-27T11:35:05.000Z</time>
      </trkpt>
      <trkpt lat="48.70364" lon="1.77591">
        <ele>188.80000305176</ele>
        <time>2012-03-27T11:35:10.000Z</time>
      </trkpt>
      <trkpt lat="48.70358" lon="1.77556">
        <ele>188.60000610352</ele>
        <time>2012-03-27T11:35:16.000Z</time>
      </trkpt>
      <trkpt lat="48.70357" lon="1.7755">
        <ele>188.39999389648</ele>
        <time>2012-03-27T11:35:17.000Z</time>
      </trkpt>
      <trkpt lat="48.70353" lon="1.77518">
        <ele>188</ele>
        <time>2012-03-27T11:35:23.000Z</time>
      </trkpt>
      <trkpt lat="48.70349" lon="1.77488">
        <ele>187.39999389648</ele>
        <time>2012-03-27T11:35:28.000Z</time>
      </trkpt>
      <trkpt lat="48.70343" lon="1.77459">
        <ele>186.80000305176</ele>
        <time>2012-03-27T11:35:33.000Z</time>
      </trkpt>
      <trkpt lat="48.70339" lon="1.77431">
        <ele>186.19999694824</ele>
        <time>2012-03-27T11:35:38.000Z</time>
      </trkpt>
      <trkpt lat="48.7034" lon="1.77403">
        <ele>185</ele>
        <time>2012-03-27T11:35:43.000Z</time>
      </trkpt>
      <trkpt lat="48.70344" lon="1.77383">
        <ele>184</ele>
        <time>2012-03-27T11:35:47.000Z</time>
      </trkpt>
      <trkpt lat="48.70355" lon="1.77366">
        <ele>183</ele>
        <time>2012-03-27T11:35:52.000Z</time>
      </trkpt>
      <trkpt lat="48.70362" lon="1.77351">
        <ele>182.39999389648</ele>
        <time>2012-03-27T11:35:57.000Z</time>
      </trkpt>
      <trkpt lat="48.70365" lon="1.77344">
        <ele>182.19999694824</ele>
        <time>2012-03-27T11:36:01.000Z</time>
      </trkpt>
      <trkpt lat="48.70367" lon="1.77329">
        <ele>181.80000305176</ele>
        <time>2012-03-27T11:36:08.000Z</time>
      </trkpt>
      <trkpt lat="48.70366" lon="1.77313">
        <ele>181.39999389648</ele>
        <time>2012-03-27T11:36:15.000Z</time>
      </trkpt>
      <trkpt lat="48.70368" lon="1.77296">
        <ele>181.19999694824</ele>
        <time>2012-03-27T11:36:22.000Z</time>
      </trkpt>
      <trkpt lat="48.70366" lon="1.77279">
        <ele>180.80000305176</ele>
        <time>2012-03-27T11:36:30.000Z</time>
      </trkpt>
      <trkpt lat="48.70365" lon="1.77261">
        <ele>180.60000610352</ele>
        <time>2012-03-27T11:36:38.000Z</time>
      </trkpt>
      <trkpt lat="48.70364" lon="1.77245">
        <ele>180.39999389648</ele>
        <time>2012-03-27T11:36:45.000Z</time>
      </trkpt>
      <trkpt lat="48.70362" lon="1.77227">
        <ele>180.60000610352</ele>
        <time>2012-03-27T11:36:53.000Z</time>
      </trkpt>
      <trkpt lat="48.70361" lon="1.77209">
        <ele>180.60000610352</ele>
        <time>2012-03-27T11:37:01.000Z</time>
      </trkpt>
      <trkpt lat="48.70358" lon="1.77196">
        <ele>180.80000305176</ele>
        <time>2012-03-27T11:37:07.000Z</time>
      </trkpt>
      <trkpt lat="48.70356" lon="1.77178">
        <ele>181</ele>
        <time>2012-03-27T11:37:15.000Z</time>
      </trkpt>
      <trkpt lat="48.70355" lon="1.77158">
        <ele>181.19999694824</ele>
        <time>2012-03-27T11:37:24.000Z</time>
      </trkpt>
      <trkpt lat="48.70354" lon="1.7714">
        <ele>181.19999694824</ele>
        <time>2012-03-27T11:37:32.000Z</time>
      </trkpt>
      <trkpt lat="48.70353" lon="1.77121">
        <ele>181.19999694824</ele>
        <time>2012-03-27T11:37:40.000Z</time>
      </trkpt>
      <trkpt lat="48.70351" lon="1.77103">
        <ele>181.19999694824</ele>
        <time>2012-03-27T11:37:48.000Z</time>
      </trkpt>
      <trkpt lat="48.70349" lon="1.77089">
        <ele>181.19999694824</ele>
        <time>2012-03-27T11:37:55.000Z</time>
      </trkpt>
      <trkpt lat="48.70345" lon="1.77075">
        <ele>181.39999389648</ele>
        <time>2012-03-27T11:38:01.000Z</time>
      </trkpt>
      <trkpt lat="48.70343" lon="1.7706">
        <ele>181.60000610352</ele>
        <time>2012-03-27T11:38:08.000Z</time>
      </trkpt>
      <trkpt lat="48.70344" lon="1.77051">
        <ele>181.60000610352</ele>
        <time>2012-03-27T11:38:12.000Z</time>
      </trkpt>
      <trkpt lat="48.70341" lon="1.77027">
        <ele>181.60000610352</ele>
        <time>2012-03-27T11:38:22.000Z</time>
      </trkpt>
      <trkpt lat="48.7034" lon="1.7701">
        <ele>181.60000610352</ele>
        <time>2012-03-27T11:38:30.000Z</time>
      </trkpt>
      <trkpt lat="48.70338" lon="1.76985">
        <ele>181.39999389648</ele>
        <time>2012-03-27T11:38:41.000Z</time>
      </trkpt>
      <trkpt lat="48.70337" lon="1.76974">
        <ele>181.19999694824</ele>
        <time>2012-03-27T11:38:47.000Z</time>
      </trkpt>
      <trkpt lat="48.70337" lon="1.76974">
        <ele>181.19999694824</ele>
        <time>2012-03-27T11:38:49.000Z</time>
      </trkpt>
      <trkpt lat="48.70336" lon="1.76964">
        <ele>181.19999694824</ele>
        <time>2012-03-27T11:38:57.000Z</time>
      </trkpt>
      <trkpt lat="48.70335" lon="1.76951">
        <ele>180.80000305176</ele>
        <time>2012-03-27T11:39:01.000Z</time>
      </trkpt>
      <trkpt lat="48.70333" lon="1.7693">
        <ele>180.39999389648</ele>
        <time>2012-03-27T11:39:10.000Z</time>
      </trkpt>
      <trkpt lat="48.70333" lon="1.7691">
        <ele>180</ele>
        <time>2012-03-27T11:39:19.000Z</time>
      </trkpt>
      <trkpt lat="48.70331" lon="1.76888">
        <ele>179.60000610352</ele>
        <time>2012-03-27T11:39:28.000Z</time>
      </trkpt>
      <trkpt lat="48.70331" lon="1.76866">
        <ele>179.39999389648</ele>
        <time>2012-03-27T11:39:37.000Z</time>
      </trkpt>
      <trkpt lat="48.70329" lon="1.76844">
        <ele>179.19999694824</ele>
        <time>2012-03-27T11:39:47.000Z</time>
      </trkpt>
      <trkpt lat="48.70328" lon="1.76817">
        <ele>178.80000305176</ele>
        <time>2012-03-27T11:39:59.000Z</time>
      </trkpt>
      <trkpt lat="48.70327" lon="1.76799">
        <ele>178.60000610352</ele>
        <time>2012-03-27T11:40:07.000Z</time>
      </trkpt>
      <trkpt lat="48.70327" lon="1.76779">
        <ele>178.39999389648</ele>
        <time>2012-03-27T11:40:16.000Z</time>
      </trkpt>
      <trkpt lat="48.70326" lon="1.76758">
        <ele>178.19999694824</ele>
        <time>2012-03-27T11:40:25.000Z</time>
      </trkpt>
      <trkpt lat="48.70326" lon="1.76745">
        <ele>178.19999694824</ele>
        <time>2012-03-27T11:40:31.000Z</time>
      </trkpt>
      <trkpt lat="48.70325" lon="1.76743">
        <ele>178.19999694824</ele>
        <time>2012-03-27T11:40:34.000Z</time>
      </trkpt>
      <trkpt lat="48.70324" lon="1.76738">
        <ele>178.19999694824</ele>
        <time>2012-03-27T11:40:38.000Z</time>
      </trkpt>
      <trkpt lat="48.70325" lon="1.7672">
        <ele>178.19999694824</ele>
        <time>2012-03-27T11:40:43.000Z</time>
      </trkpt>
      <trkpt lat="48.70324" lon="1.76695">
        <ele>178.19999694824</ele>
        <time>2012-03-27T11:40:52.000Z</time>
      </trkpt>
      <trkpt lat="48.70323" lon="1.76669">
        <ele>178.19999694824</ele>
        <time>2012-03-27T11:41:02.000Z</time>
      </trkpt>
      <trkpt lat="48.70324" lon="1.7666">
        <ele>178.19999694824</ele>
        <time>2012-03-27T11:41:07.000Z</time>
      </trkpt>
      <trkpt lat="48.70327" lon="1.76646">
        <ele>178.39999389648</ele>
        <time>2012-03-27T11:41:14.000Z</time>
      </trkpt>
      <trkpt lat="48.70328" lon="1.76639">
        <ele>178.39999389648</ele>
        <time>2012-03-27T11:41:20.000Z</time>
      </trkpt>
      <trkpt lat="48.70326" lon="1.76637">
        <ele>178.39999389648</ele>
        <time>2012-03-27T11:41:24.000Z</time>
      </trkpt>
      <trkpt lat="48.70321" lon="1.76645">
        <ele>178.60000610352</ele>
        <time>2012-03-27T11:42:32.000Z</time>
      </trkpt>
      <trkpt lat="48.70327" lon="1.76637">
        <ele>178.39999389648</ele>
        <time>2012-03-27T11:42:37.000Z</time>
      </trkpt>
      <trkpt lat="48.70332" lon="1.76632">
        <ele>178.39999389648</ele>
        <time>2012-03-27T11:42:42.000Z</time>
      </trkpt>
      <trkpt lat="48.7034" lon="1.76625">
        <ele>178.60000610352</ele>
        <time>2012-03-27T11:42:48.000Z</time>
      </trkpt>
      <trkpt lat="48.70341" lon="1.76624">
        <ele>178.80000305176</ele>
        <time>2012-03-27T11:42:49.000Z</time>
      </trkpt>
      <trkpt lat="48.70352" lon="1.76615">
        <ele>179</ele>
        <time>2012-03-27T11:42:56.000Z</time>
      </trkpt>
      <trkpt lat="48.7036" lon="1.76611">
        <ele>179.39999389648</ele>
        <time>2012-03-27T11:43:01.000Z</time>
      </trkpt>
      <trkpt lat="48.70365" lon="1.7661">
        <ele>179.39999389648</ele>
        <time>2012-03-27T11:43:05.000Z</time>
      </trkpt>
      <trkpt lat="48.70373" lon="1.76606">
        <ele>179.60000610352</ele>
        <time>2012-03-27T11:43:11.000Z</time>
      </trkpt>
      <trkpt lat="48.70388" lon="1.76596">
        <ele>180.19999694824</ele>
        <time>2012-03-27T11:43:20.000Z</time>
      </trkpt>
      <trkpt lat="48.70391" lon="1.76595">
        <ele>180.19999694824</ele>
        <time>2012-03-27T11:43:22.000Z</time>
      </trkpt>
      <trkpt lat="48.70402" lon="1.76589">
        <ele>180.60000610352</ele>
        <time>2012-03-27T11:43:29.000Z</time>
      </trkpt>
      <trkpt lat="48.70404" lon="1.76588">
        <ele>180.60000610352</ele>
        <time>2012-03-27T11:43:30.000Z</time>
      </trkpt>
      <trkpt lat="48.70415" lon="1.76582">
        <ele>181</ele>
        <time>2012-03-27T11:43:38.000Z</time>
      </trkpt>
      <trkpt lat="48.70424" lon="1.76577">
        <ele>180.60000610352</ele>
        <time>2012-03-27T11:43:44.000Z</time>
      </trkpt>
      <trkpt lat="48.7043" lon="1.7657">
        <ele>180.39999389648</ele>
        <time>2012-03-27T11:43:49.000Z</time>
      </trkpt>
      <trkpt lat="48.70435" lon="1.76554">
        <ele>180</ele>
        <time>2012-03-27T11:43:56.000Z</time>
      </trkpt>
      <trkpt lat="48.70438" lon="1.7654">
        <ele>179.80000305176</ele>
        <time>2012-03-27T11:44:03.000Z</time>
      </trkpt>
      <trkpt lat="48.70441" lon="1.76527">
        <ele>179.60000610352</ele>
        <time>2012-03-27T11:44:09.000Z</time>
      </trkpt>
      <trkpt lat="48.70445" lon="1.7651">
        <ele>179.39999389648</ele>
        <time>2012-03-27T11:44:16.000Z</time>
      </trkpt>
      <trkpt lat="48.70447" lon="1.76497">
        <ele>179</ele>
        <time>2012-03-27T11:44:22.000Z</time>
      </trkpt>
      <trkpt lat="48.70449" lon="1.7649">
        <ele>178.80000305176</ele>
        <time>2012-03-27T11:44:25.000Z</time>
      </trkpt>
      <trkpt lat="48.70451" lon="1.76482">
        <ele>178.39999389648</ele>
        <time>2012-03-27T11:44:29.000Z</time>
      </trkpt>
      <trkpt lat="48.70456" lon="1.76458">
        <ele>177.60000610352</ele>
        <time>2012-03-27T11:44:39.000Z</time>
      </trkpt>
      <trkpt lat="48.70459" lon="1.76443">
        <ele>177.19999694824</ele>
        <time>2012-03-27T11:44:45.000Z</time>
      </trkpt>
      <trkpt lat="48.7046" lon="1.7643">
        <ele>176.80000305176</ele>
        <time>2012-03-27T11:44:51.000Z</time>
      </trkpt>
      <trkpt lat="48.7046" lon="1.76423">
        <ele>176.60000610352</ele>
        <time>2012-03-27T11:44:54.000Z</time>
      </trkpt>
      <trkpt lat="48.70458" lon="1.76409">
        <ele>176.19999694824</ele>
        <time>2012-03-27T11:45:00.000Z</time>
      </trkpt>
      <trkpt lat="48.70456" lon="1.76388">
        <ele>175.19999694824</ele>
        <time>2012-03-27T11:45:08.000Z</time>
      </trkpt>
      <trkpt lat="48.70454" lon="1.76374">
        <ele>174.60000610352</ele>
        <time>2012-03-27T11:45:14.000Z</time>
      </trkpt>
      <trkpt lat="48.70451" lon="1.76354">
        <ele>173.80000305176</ele>
        <time>2012-03-27T11:45:22.000Z</time>
      </trkpt>
      <trkpt lat="48.70446" lon="1.7633">
        <ele>173</ele>
        <time>2012-03-27T11:45:31.000Z</time>
      </trkpt>
      <trkpt lat="48.70445" lon="1.76312">
        <ele>172.80000305176</ele>
        <time>2012-03-27T11:45:38.000Z</time>
      </trkpt>
      <trkpt lat="48.70446" lon="1.76291">
        <ele>172.80000305176</ele>
        <time>2012-03-27T11:45:46.000Z</time>
      </trkpt>
      <trkpt lat="48.70446" lon="1.76274">
        <ele>172.60000610352</ele>
        <time>2012-03-27T11:45:53.000Z</time>
      </trkpt>
      <trkpt lat="48.7045" lon="1.7626">
        <ele>172.39999389648</ele>
        <time>2012-03-27T11:46:00.000Z</time>
      </trkpt>
      <trkpt lat="48.70454" lon="1.76246">
        <ele>172.19999694824</ele>
        <time>2012-03-27T11:46:07.000Z</time>
      </trkpt>
      <trkpt lat="48.70457" lon="1.7623">
        <ele>172.60000610352</ele>
        <time>2012-03-27T11:46:14.000Z</time>
      </trkpt>
      <trkpt lat="48.70457" lon="1.76227">
        <ele>172.60000610352</ele>
        <time>2012-03-27T11:46:15.000Z</time>
      </trkpt>
      <trkpt lat="48.70457" lon="1.76212">
        <ele>173</ele>
        <time>2012-03-27T11:46:21.000Z</time>
      </trkpt>
      <trkpt lat="48.70455" lon="1.76194">
        <ele>173.60000610352</ele>
        <time>2012-03-27T11:46:28.000Z</time>
      </trkpt>
      <trkpt lat="48.70454" lon="1.76191">
        <ele>173.60000610352</ele>
        <time>2012-03-27T11:46:29.000Z</time>
      </trkpt>
      <trkpt lat="48.70451" lon="1.76175">
        <ele>174.19999694824</ele>
        <time>2012-03-27T11:46:37.000Z</time>
      </trkpt>
      <trkpt lat="48.70449" lon="1.76161">
        <ele>174.60000610352</ele>
        <time>2012-03-27T11:46:42.000Z</time>
      </trkpt>
      <trkpt lat="48.7045" lon="1.76146">
        <ele>174.60000610352</ele>
        <time>2012-03-27T11:46:48.000Z</time>
      </trkpt>
      <trkpt lat="48.70451" lon="1.76135">
        <ele>174.80000305176</ele>
        <time>2012-03-27T11:46:53.000Z</time>
      </trkpt>
      <trkpt lat="48.70453" lon="1.76123">
        <ele>174.80000305176</ele>
        <time>2012-03-27T11:46:59.000Z</time>
      </trkpt>
      <trkpt lat="48.70458" lon="1.76109">
        <ele>174.80000305176</ele>
        <time>2012-03-27T11:47:06.000Z</time>
      </trkpt>
      <trkpt lat="48.70463" lon="1.76092">
        <ele>174.60000610352</ele>
        <time>2012-03-27T11:47:14.000Z</time>
      </trkpt>
      <trkpt lat="48.70466" lon="1.76079">
        <ele>174.80000305176</ele>
        <time>2012-03-27T11:47:20.000Z</time>
      </trkpt>
      <trkpt lat="48.70468" lon="1.76061">
        <ele>175.80000305176</ele>
        <time>2012-03-27T11:47:27.000Z</time>
      </trkpt>
      <trkpt lat="48.70471" lon="1.76046">
        <ele>176.39999389648</ele>
        <time>2012-03-27T11:47:33.000Z</time>
      </trkpt>
      <trkpt lat="48.70475" lon="1.76032">
        <ele>177.19999694824</ele>
        <time>2012-03-27T11:47:40.000Z</time>
      </trkpt>
      <trkpt lat="48.7048" lon="1.76013">
        <ele>178</ele>
        <time>2012-03-27T11:47:50.000Z</time>
      </trkpt>
      <trkpt lat="48.70482" lon="1.76">
        <ele>178.60000610352</ele>
        <time>2012-03-27T11:47:55.000Z</time>
      </trkpt>
      <trkpt lat="48.70487" lon="1.75988">
        <ele>179</ele>
        <time>2012-03-27T11:48:01.000Z</time>
      </trkpt>
      <trkpt lat="48.70495" lon="1.7597">
        <ele>179.60000610352</ele>
        <time>2012-03-27T11:48:10.000Z</time>
      </trkpt>
      <trkpt lat="48.70499" lon="1.75961">
        <ele>180</ele>
        <time>2012-03-27T11:48:15.000Z</time>
      </trkpt>
      <trkpt lat="48.70504" lon="1.75952">
        <ele>180</ele>
        <time>2012-03-27T11:48:20.000Z</time>
      </trkpt>
      <trkpt lat="48.70512" lon="1.7594">
        <ele>180</ele>
        <time>2012-03-27T11:48:27.000Z</time>
      </trkpt>
      <trkpt lat="48.70519" lon="1.7593">
        <ele>180</ele>
        <time>2012-03-27T11:48:33.000Z</time>
      </trkpt>
      <trkpt lat="48.70524" lon="1.75917">
        <ele>180.19999694824</ele>
        <time>2012-03-27T11:48:39.000Z</time>
      </trkpt>
      <trkpt lat="48.7053" lon="1.75907">
        <ele>180</ele>
        <time>2012-03-27T11:48:45.000Z</time>
      </trkpt>
      <trkpt lat="48.70536" lon="1.75894">
        <ele>179.80000305176</ele>
        <time>2012-03-27T11:48:52.000Z</time>
      </trkpt>
      <trkpt lat="48.7054" lon="1.75887">
        <ele>179.60000610352</ele>
        <time>2012-03-27T11:48:56.000Z</time>
      </trkpt>
      <trkpt lat="48.70544" lon="1.75876">
        <ele>179.19999694824</ele>
        <time>2012-03-27T11:49:02.000Z</time>
      </trkpt>
      <trkpt lat="48.70548" lon="1.75864">
        <ele>179</ele>
        <time>2012-03-27T11:49:08.000Z</time>
      </trkpt>
      <trkpt lat="48.70554" lon="1.75856">
        <ele>178.60000610352</ele>
        <time>2012-03-27T11:49:15.000Z</time>
      </trkpt>
      <trkpt lat="48.70554" lon="1.75856">
        <ele>178.60000610352</ele>
        <time>2012-03-27T11:49:17.000Z</time>
      </trkpt>
      <trkpt lat="48.70561" lon="1.75847">
        <ele>178</ele>
        <time>2012-03-27T11:49:31.000Z</time>
      </trkpt>
      <trkpt lat="48.70566" lon="1.75834">
        <ele>177.60000610352</ele>
        <time>2012-03-27T11:49:36.000Z</time>
      </trkpt>
      <trkpt lat="48.70573" lon="1.75818">
        <ele>177.39999389648</ele>
        <time>2012-03-27T11:49:45.000Z</time>
      </trkpt>
      <trkpt lat="48.70576" lon="1.75812">
        <ele>177.39999389648</ele>
        <time>2012-03-27T11:49:48.000Z</time>
      </trkpt>
      <trkpt lat="48.7058" lon="1.758">
        <ele>177.60000610352</ele>
        <time>2012-03-27T11:49:54.000Z</time>
      </trkpt>
      <trkpt lat="48.70583" lon="1.75795">
        <ele>177.39999389648</ele>
        <time>2012-03-27T11:49:57.000Z</time>
      </trkpt>
      <trkpt lat="48.70591" lon="1.75778">
        <ele>177.60000610352</ele>
        <time>2012-03-27T11:50:06.000Z</time>
      </trkpt>
      <trkpt lat="48.70597" lon="1.7577">
        <ele>177.39999389648</ele>
        <time>2012-03-27T11:50:12.000Z</time>
      </trkpt>
      <trkpt lat="48.70604" lon="1.75759">
        <ele>177.39999389648</ele>
        <time>2012-03-27T11:50:19.000Z</time>
      </trkpt>
      <trkpt lat="48.7061" lon="1.7575">
        <ele>177.39999389648</ele>
        <time>2012-03-27T11:50:25.000Z</time>
      </trkpt>
      <trkpt lat="48.70615" lon="1.75743">
        <ele>177.39999389648</ele>
        <time>2012-03-27T11:50:30.000Z</time>
      </trkpt>
      <trkpt lat="48.70616" lon="1.75741">
        <ele>177.39999389648</ele>
        <time>2012-03-27T11:50:31.000Z</time>
      </trkpt>
      <trkpt lat="48.70624" lon="1.75722">
        <ele>177.80000305176</ele>
        <time>2012-03-27T11:50:41.000Z</time>
      </trkpt>
      <trkpt lat="48.7063" lon="1.75714">
        <ele>177.60000610352</ele>
        <time>2012-03-27T11:50:47.000Z</time>
      </trkpt>
      <trkpt lat="48.70631" lon="1.75712">
        <ele>177.60000610352</ele>
        <time>2012-03-27T11:50:50.000Z</time>
      </trkpt>
      <trkpt lat="48.70646" lon="1.75669">
        <ele>177.39999389648</ele>
        <time>2012-03-27T11:53:24.000Z</time>
      </trkpt>
      <trkpt lat="48.7064" lon="1.7566">
        <ele>178.19999694824</ele>
        <time>2012-03-27T11:53:29.000Z</time>
      </trkpt>
      <trkpt lat="48.70638" lon="1.75647">
        <ele>178.39999389648</ele>
        <time>2012-03-27T11:53:36.000Z</time>
      </trkpt>
      <trkpt lat="48.70638" lon="1.75636">
        <ele>178.19999694824</ele>
        <time>2012-03-27T11:53:42.000Z</time>
      </trkpt>
      <trkpt lat="48.70639" lon="1.75631">
        <ele>178</ele>
        <time>2012-03-27T11:53:44.000Z</time>
      </trkpt>
      <trkpt lat="48.70642" lon="1.75619">
        <ele>177.60000610352</ele>
        <time>2012-03-27T11:53:50.000Z</time>
      </trkpt>
      <trkpt lat="48.70644" lon="1.75611">
        <ele>177.39999389648</ele>
        <time>2012-03-27T11:53:55.000Z</time>
      </trkpt>
      <trkpt lat="48.70645" lon="1.75609">
        <ele>177.19999694824</ele>
        <time>2012-03-27T11:53:57.000Z</time>
      </trkpt>
      <trkpt lat="48.70648" lon="1.75602">
        <ele>176.80000305176</ele>
        <time>2012-03-27T11:54:02.000Z</time>
      </trkpt>
      <trkpt lat="48.70652" lon="1.75595">
        <ele>176.39999389648</ele>
        <time>2012-03-27T11:54:09.000Z</time>
      </trkpt>
      <trkpt lat="48.70655" lon="1.75589">
        <ele>176.19999694824</ele>
        <time>2012-03-27T11:54:14.000Z</time>
      </trkpt>
      <trkpt lat="48.70658" lon="1.75583">
        <ele>175.80000305176</ele>
        <time>2012-03-27T11:54:19.000Z</time>
      </trkpt>
      <trkpt lat="48.70662" lon="1.75575">
        <ele>175.19999694824</ele>
        <time>2012-03-27T11:54:25.000Z</time>
      </trkpt>
      <trkpt lat="48.70667" lon="1.75566">
        <ele>174.60000610352</ele>
        <time>2012-03-27T11:54:31.000Z</time>
      </trkpt>
      <trkpt lat="48.7067" lon="1.7556">
        <ele>174.39999389648</ele>
        <time>2012-03-27T11:54:35.000Z</time>
      </trkpt>
      <trkpt lat="48.70672" lon="1.75554">
        <ele>174.19999694824</ele>
        <time>2012-03-27T11:54:39.000Z</time>
      </trkpt>
      <trkpt lat="48.70673" lon="1.75553">
        <ele>174</ele>
        <time>2012-03-27T11:54:41.000Z</time>
      </trkpt>
      <trkpt lat="48.70673" lon="1.75552">
        <ele>174</ele>
        <time>2012-03-27T11:54:44.000Z</time>
      </trkpt>
      <trkpt lat="48.70704" lon="1.75476">
        <ele>172</ele>
        <time>2012-03-27T11:59:21.000Z</time>
      </trkpt>
      <trkpt lat="48.70706" lon="1.75474">
        <ele>171.80000305176</ele>
        <time>2012-03-27T11:59:25.000Z</time>
      </trkpt>
    </trkseg>
  </trk>
</gpx>